[[{"header":{"parameterUnit":"m.s-1","parameterCategory":1,"la1":31.0,"la2":29.5877,"lo1":-88.7671,"lo2":-86.6584,"dy":0.0162,"dx":0.0185,"nx":115,"ny":88,"refTime":"2023-07-31T06:00:00:Z","depth":0,"parameterNumber":2,"parameterNumberName":"U-component_of_WINDS"},"data":[0.0,0.0,0.0,0.0,0.0,0.0,0.0,0.0,0.0,0.0,0.0,0.0,0.0,0.0,0.0,0.0,0.0,0.0,0.0,0.0,0.0,0.0,0.0,0.0,0.0,0.0,0.0,0.0,0.0,0.0,0.0,0.0,0.0,0.0,0.0,0.0,0.0,0.0,0.0,0.0,0.0,0.0,0.0,0.0,0.0,0.0,0.0,0.0,0.0,0.0,0.0,0.0,0.0,0.0,0.0,0.0,0.0,0.0,0.0,0.0,0.0,0.0,0.0,0.0,0.0,0.0,0.0,0.0,0.0,0.0,0.0,0.0,0.0,0.0,0.0,0.0,0.0,0.0,0.0,0.0,0.0,0.0,0.0,0.0,0.0,0.0,0.0,0.0,0.0,0.0,0.0,0.0,0.0,0.0,0.0,0.0,0.0,0.0,0.0,0.0,0.0,0.0,0.0,0.0,0.0,0.0,0.0,0.0,0.0,0.0,0.0,0.0,0.0,0.0,0.0,0.0,0.0,0.0,0.0,0.0,0.0,0.0,0.0,0.0,0.0,0.0,0.0,0.0,0.0,0.0,0.0,0.0,0.0,0.0,0.0,0.0,0.0,0.0,0.0,0.0,0.0,0.0,0.0,0.0,0.0,0.0,0.0,0.0,0.0,0.0,0.0,0.0,0.0,0.0,0.0,0.0,0.0,0.0,0.0,0.0,0.0,0.0,0.0,0.0,0.0,0.0,0.0,0.0,0.0,0.0,0.0,0.0,0.0,0.0,0.0,0.0,0.0,0.0,0.0,0.0,0.0,0.0,0.0,0.0,0.0,0.0,0.0,0.0,0.0,0.0,0.0,0.0,0.0,0.0,0.0,0.0,0.0,0.0,0.0,0.0,0.0,0.0,0.0,0.0,0.0,0.0,0.0,0.0,0.0,0.0,0.0,0.0,0.0,0.0,0.0,0.0,0.0,0.0,0.0,0.0,0.0,0.0,0.0,0.0,0.0,0.0,0.0,0.0,0.0,0.0,0.0,0.0,0.0,0.0,0.0,0.0,0.0,0.0,0.0,0.0,0.0,0.0,0.0,0.0,0.0,0.0,0.0,0.0,0.0,0.0,0.0,0.0,0.0,0.0,0.0,0.0,0.0,0.0,0.0,0.0,0.0,0.0,0.0,0.0,0.0,0.0,0.0,0.0,0.0,0.0,0.0,0.0,0.0,0.0,0.0,0.0,0.0,0.0,0.0,0.0,0.0,0.0,0.0,0.0,0.0,0.0,0.0,0.0,0.0,0.0,0.0,0.0,0.0,0.0,0.0,0.0,0.0,0.0,0.0,0.0,0.0,0.0,0.0,0.0,0.0,0.0,0.0,0.0,0.0,0.0,0.0,0.0,0.0,0.0,0.0,0.0,0.0,0.0,0.0,0.0,0.0,0.0,0.0,0.0,0.0,0.0,0.0,0.0,0.0,0.0,0.0,0.0,0.0,0.0,0.0,0.0,0.0,0.0,0.0,0.0,0.0,0.0,0.0,0.0,0.0,0.0,0.0,0.0,0.0,0.0,0.0,0.0,0.0,0.0,0.0,0.0,0.0,0.0,0.0,0.0,0.0,0.0,0.0,0.0,0.0,0.0,0.0,0.0,0.0,0.0,0.0,0.0,0.0,0.0,0.0,0.0,0.0,0.0,0.0,0.0,0.0,0.0,0.0,0.0,0.0,0.0,0.0,0.0,0.0,0.0,0.0,0.0,0.0,0.0,0.0,0.0,0.0,0.0,0.0,0.0,0.0,0.0,0.0,0.0,0.0,0.0,0.0,0.0,0.0,0.0,0.0,0.0,0.0,0.0,0.0,0.0,0.0,0.0,0.0,0.0,0.0,0.0,0.0,0.0,0.0,0.0,0.0,0.0,0.0,0.0,0.0,0.0,0.0,0.0,0.0,0.0,0.0,0.0,0.0,0.0,0.0,0.0,0.0,0.0,0.0,0.0,0.0,0.0,0.0,0.0,0.0,0.0,0.0,0.0,0.0,0.0,0.0,0.0,0.0,0.0,0.0,0.0,0.0,0.0,0.0,0.0,0.0,0.0,0.0,0.0,0.0,0.0,0.0,0.0,0.0,0.0,0.0,0.0,0.0,0.0,0.0,0.0,0.0,0.0,0.0,0.0,0.0,0.0,0.0,0.0,0.0,0.0,0.0,0.0,0.0,0.0,0.0,0.0,0.0,0.0,0.0,0.0,0.0,0.0,0.0,0.0,0.0,0.0,0.0,0.0,0.0,0.0,0.0,0.0,0.0,0.0,0.0,0.0,0.0,0.0,0.0,0.0,0.0,0.0,0.0,0.0,0.0,0.0,0.0,0.0,0.0,0.0,0.0,0.0,0.0,0.0,0.0,0.0,0.0,0.0,0.0,0.0,0.0,0.0,0.0,0.0,0.0,0.0,0.0,0.0,0.0,0.0,0.0,0.0,0.0,0.0,0.0,0.0,0.0,0.0,0.0,0.0,0.0,0.0,0.0,0.0,0.0,0.0,0.0,0.0,0.0,0.0,0.0,0.0,0.0,0.0,0.0,0.0,0.0,0.0,0.0,0.0,0.0,0.0,0.0,0.0,0.0,0.0,0.0,0.0,0.0,0.0,0.0,0.0,0.0,0.0,0.0,0.0,0.0,0.0,0.0,0.0,0.0,0.0,0.0,0.0,0.0,0.0,0.0,0.0,0.0,0.0,0.0,0.0,0.0,0.0,0.0,0.0,0.0,0.0,0.0,0.0,0.0,0.0,0.0,0.0,0.0,0.0,0.0,0.0,0.0,0.0,0.0,0.0,0.0,0.0,0.0,0.0,0.0,0.0,0.0,0.0,0.0,0.0,0.0,0.0,0.0,0.0,0.0,0.0,0.0,0.0,0.0,0.0,0.0,0.0,0.0,0.0,0.0,0.0,0.0,0.0,0.0,0.0,0.0,0.0,0.0,0.0,0.0,0.0,0.0,0.0,0.0,0.0,0.0,0.0,0.0,0.0,0.0,0.0,0.0,0.0,0.0,0.0,0.0,0.0,0.0,0.0,0.0,0.0,0.0,0.0,0.0,0.0,0.0,0.0,0.0,0.0,0.0,0.0,0.0,0.0,0.0,0.0,0.0,0.0,0.0,0.0,0.0,0.0,0.0,0.0,0.0,0.0,0.0,0.0,0.0,0.0,0.0,0.0,0.0,0.0,0.0,0.0,0.0,0.0,0.0,0.0,0.0,0.0,0.0,0.0,0.0,0.0,0.0,0.0,0.0,0.0,0.0,0.0,0.0,0.0,0.0,0.0,0.0,0.0,0.0,0.0,0.0,0.0,0.0,0.0,0.0,0.0,0.0,0.0,0.0,0.0,0.0,0.0,0.0,0.0,0.0,0.0,0.0,0.0,0.0,0.0,0.0,0.0,0.0,0.0,0.0,0.0,0.0,0.0,0.0,0.0,0.0,0.0,0.0,0.0,0.0,0.0,0.0,0.0,0.0,0.0,0.0,0.0,0.0,0.0,0.0,0.0,0.0,0.0,0.0,0.0,0.0,0.0,0.0,0.0,0.0,0.0,0.0,0.0,0.0,0.0,0.0,0.0,0.0,0.0,0.0,0.0,0.0,0.0,0.0,0.0,0.0,0.0,0.0,0.0,0.0,0.0,0.0,0.0,0.0,0.0,0.0,0.0,0.0,0.0,0.0,0.0,0.0,0.0,0.0,0.0,0.0,0.0,0.0,0.0,0.0,0.0,0.0,0.0,0.0,0.0,0.0,0.0,0.0,0.0,0.0,0.0,0.0,0.0,0.0,0.0,0.0,0.0,0.0,0.0,0.0,0.0,0.0,0.0,0.0,0.0,0.0,0.0,0.0,0.0,0.0,0.0,0.0,0.0,0.0,0.0,0.0,0.0,0.0,0.0,0.0,0.0,0.0,0.0,0.0,0.0,0.0,0.0,0.0,0.0,0.0,0.0,0.0,0.0,0.0,0.0,0.0,0.0,0.0,0.0,0.0,0.0,0.0,0.0,0.0,0.0,0.0,0.0,0.0,0.0,0.0,0.0,0.0,0.0,0.0,0.0,0.0,0.0,0.0,0.0,0.0,0.0,0.0,0.0,0.0,0.0,0.0,0.0,0.0,0.0,0.0,0.0,0.0,0.0,0.0,0.0,0.0,0.0,0.0,0.0,0.0,0.0,0.0,0.0,0.0,0.0,0.0,0.0,0.0,0.0,0.0,0.0,0.0,0.0,0.0,0.0,0.0,0.0,0.0,0.0,0.0,0.0,0.0,0.0,-4.5673,0.0,0.0,0.0,0.0,0.0,0.0,0.0,0.0,0.0,0.0,0.0,0.0,0.0,0.0,0.0,0.0,0.0,0.0,0.0,0.0,0.0,0.0,0.0,0.0,0.0,0.0,0.0,0.0,0.0,0.0,0.0,0.0,0.0,0.0,0.0,0.0,0.0,0.0,0.0,0.0,0.0,0.0,0.0,0.0,0.0,0.0,0.0,0.0,0.0,0.0,0.0,0.0,0.0,0.0,0.0,0.0,0.0,0.0,0.0,0.0,0.0,0.0,0.0,0.0,0.0,0.0,0.0,0.0,0.0,0.0,0.0,0.0,0.0,0.0,0.0,0.0,0.0,0.0,0.0,0.0,0.0,0.0,0.0,0.0,0.0,0.0,0.0,0.0,0.0,0.0,0.0,0.0,0.0,0.0,0.0,0.0,0.0,0.0,0.0,0.0,0.0,0.0,0.0,0.0,0.0,0.0,0.0,0.0,0.0,0.0,-4.5929,-4.5848,-4.5791,-4.5735,-4.5687,0.0,0.0,0.0,0.0,0.0,0.0,0.0,0.0,0.0,0.0,0.0,0.0,0.0,0.0,0.0,0.0,0.0,0.0,0.0,0.0,0.0,0.0,0.0,0.0,0.0,0.0,0.0,0.0,0.0,0.0,0.0,0.0,0.0,0.0,0.0,0.0,0.0,0.0,0.0,0.0,0.0,0.0,0.0,0.0,0.0,0.0,0.0,0.0,0.0,0.0,0.0,0.0,0.0,0.0,0.0,0.0,0.0,0.0,0.0,0.0,0.0,0.0,0.0,0.0,0.0,0.0,0.0,0.0,0.0,0.0,0.0,0.0,0.0,0.0,0.0,0.0,0.0,0.0,0.0,0.0,0.0,0.0,0.0,0.0,0.0,0.0,0.0,0.0,0.0,0.0,0.0,0.0,0.0,0.0,0.0,0.0,0.0,0.0,0.0,0.0,0.0,0.0,0.0,0.0,0.0,0.0,0.0,0.0,0.0,0.0,0.0,0.0,-4.5833,-4.5731,-4.558,0.0,0.0,0.0,0.0,0.0,0.0,0.0,0.0,0.0,0.0,0.0,0.0,0.0,0.0,0.0,0.0,0.0,0.0,0.0,0.0,0.0,0.0,0.0,0.0,0.0,0.0,0.0,0.0,0.0,0.0,0.0,0.0,0.0,0.0,0.0,0.0,0.0,0.0,0.0,0.0,0.0,0.0,0.0,0.0,0.0,0.0,0.0,0.0,0.0,0.0,0.0,0.0,0.0,0.0,0.0,0.0,0.0,0.0,0.0,0.0,0.0,0.0,0.0,0.0,0.0,0.0,0.0,0.0,0.0,0.0,0.0,0.0,0.0,0.0,0.0,0.0,0.0,0.0,0.0,0.0,0.0,0.0,0.0,0.0,0.0,0.0,0.0,0.0,0.0,0.0,0.0,0.0,0.0,0.0,0.0,0.0,0.0,0.0,0.0,0.0,0.0,0.0,0.0,0.0,0.0,0.0,0.0,0.0,0.0,0.0,-4.6065,-4.5991,-4.5866,0.0,-4.5323,0.0,0.0,0.0,0.0,0.0,0.0,0.0,0.0,0.0,0.0,0.0,0.0,0.0,0.0,0.0,0.0,0.0,0.0,0.0,0.0,0.0,0.0,0.0,0.0,0.0,0.0,0.0,0.0,0.0,0.0,0.0,0.0,0.0,0.0,0.0,0.0,0.0,0.0,0.0,0.0,0.0,0.0,0.0,0.0,0.0,0.0,0.0,0.0,0.0,0.0,0.0,0.0,0.0,0.0,0.0,0.0,0.0,0.0,0.0,0.0,0.0,0.0,0.0,0.0,0.0,0.0,0.0,0.0,0.0,0.0,0.0,0.0,0.0,0.0,0.0,0.0,0.0,0.0,0.0,0.0,0.0,0.0,0.0,0.0,0.0,0.0,0.0,0.0,0.0,0.0,0.0,0.0,0.0,0.0,0.0,0.0,0.0,0.0,0.0,0.0,0.0,0.0,0.0,0.0,0.0,0.0,0.0,0.0,0.0,0.0,-4.6076,-4.5986,-4.58,-4.5582,0.0,0.0,0.0,0.0,0.0,0.0,0.0,0.0,0.0,0.0,0.0,0.0,0.0,0.0,0.0,0.0,0.0,0.0,0.0,0.0,0.0,0.0,0.0,0.0,0.0,0.0,0.0,0.0,0.0,0.0,0.0,0.0,0.0,0.0,0.0,0.0,0.0,0.0,0.0,0.0,0.0,0.0,0.0,0.0,0.0,0.0,0.0,0.0,0.0,0.0,0.0,0.0,0.0,0.0,0.0,0.0,0.0,0.0,0.0,0.0,0.0,0.0,0.0,0.0,0.0,0.0,0.0,0.0,0.0,0.0,0.0,0.0,0.0,0.0,0.0,0.0,0.0,0.0,0.0,0.0,0.0,0.0,0.0,0.0,0.0,0.0,0.0,0.0,0.0,0.0,0.0,0.0,0.0,0.0,0.0,0.0,0.0,0.0,0.0,0.0,0.0,0.0,0.0,0.0,0.0,0.0,0.0,0.0,0.0,0.0,-4.6142,-4.6056,-4.5953,-4.5688,-4.5475,-4.526,0.0,0.0,0.0,0.0,0.0,0.0,0.0,0.0,0.0,0.0,0.0,0.0,0.0,0.0,0.0,0.0,0.0,0.0,0.0,0.0,0.0,0.0,0.0,0.0,0.0,0.0,0.0,0.0,0.0,0.0,0.0,0.0,0.0,0.0,0.0,0.0,0.0,0.0,0.0,0.0,0.0,0.0,0.0,0.0,0.0,0.0,0.0,0.0,0.0,0.0,0.0,0.0,0.0,0.0,0.0,0.0,0.0,0.0,0.0,0.0,0.0,0.0,0.0,0.0,0.0,0.0,0.0,0.0,0.0,0.0,0.0,0.0,0.0,0.0,0.0,0.0,0.0,0.0,0.0,0.0,0.0,0.0,0.0,0.0,0.0,0.0,0.0,0.0,0.0,0.0,0.0,0.0,0.0,0.0,0.0,0.0,0.0,0.0,0.0,0.0,0.0,0.0,0.0,0.0,0.0,0.0,0.0,0.0,-4.6206,-4.6142,-4.6007,-4.5808,-4.5596,-4.538,0.0,0.0,0.0,0.0,0.0,0.0,0.0,0.0,0.0,0.0,0.0,0.0,0.0,0.0,0.0,0.0,0.0,0.0,0.0,0.0,0.0,0.0,0.0,0.0,0.0,0.0,0.0,0.0,0.0,0.0,0.0,0.0,0.0,0.0,0.0,0.0,0.0,0.0,0.0,0.0,0.0,0.0,0.0,0.0,0.0,0.0,0.0,0.0,0.0,0.0,0.0,0.0,0.0,0.0,0.0,0.0,0.0,0.0,0.0,0.0,0.0,0.0,0.0,0.0,0.0,0.0,0.0,0.0,0.0,0.0,0.0,0.0,0.0,0.0,0.0,0.0,0.0,0.0,0.0,0.0,0.0,0.0,0.0,0.0,0.0,0.0,0.0,0.0,0.0,0.0,0.0,0.0,0.0,0.0,0.0,0.0,0.0,0.0,0.0,0.0,0.0,0.0,0.0,0.0,0.0,0.0,0.0,0.0,0.0,-4.6196,-4.6084,-4.596,-4.578,-4.5599,-4.5361,0.0,0.0,0.0,0.0,0.0,0.0,0.0,0.0,0.0,0.0,0.0,0.0,0.0,0.0,0.0,0.0,0.0,0.0,0.0,0.0,0.0,0.0,0.0,0.0,0.0,0.0,0.0,0.0,0.0,0.0,0.0,0.0,0.0,0.0,0.0,0.0,0.0,0.0,0.0,0.0,0.0,0.0,0.0,0.0,0.0,0.0,0.0,0.0,0.0,0.0,0.0,0.0,0.0,0.0,0.0,0.0,0.0,0.0,0.0,0.0,0.0,0.0,0.0,0.0,0.0,0.0,0.0,0.0,0.0,0.0,0.0,0.0,0.0,0.0,0.0,0.0,0.0,0.0,0.0,0.0,0.0,0.0,0.0,0.0,0.0,0.0,0.0,0.0,0.0,0.0,0.0,0.0,0.0,0.0,0.0,0.0,0.0,0.0,0.0,0.0,0.0,0.0,0.0,0.0,0.0,0.0,0.0,0.0,0.0,-4.6138,0.0,-4.5912,-4.5771,-4.5565,-4.5321,0.0,0.0,0.0,0.0,0.0,0.0,0.0,0.0,0.0,0.0,0.0,0.0,0.0,0.0,0.0,0.0,0.0,0.0,0.0,0.0,0.0,0.0,0.0,0.0,0.0,0.0,0.0,0.0,0.0,0.0,0.0,0.0,0.0,0.0,0.0,0.0,0.0,0.0,0.0,0.0,0.0,0.0,0.0,0.0,0.0,0.0,0.0,0.0,0.0,0.0,0.0,0.0,0.0,0.0,0.0,0.0,0.0,0.0,0.0,0.0,0.0,0.0,0.0,0.0,0.0,0.0,0.0,0.0,0.0,0.0,0.0,0.0,0.0,0.0,0.0,0.0,0.0,0.0,0.0,0.0,0.0,0.0,0.0,0.0,0.0,0.0,0.0,0.0,0.0,0.0,0.0,0.0,0.0,0.0,0.0,0.0,0.0,0.0,0.0,0.0,0.0,0.0,0.0,0.0,0.0,0.0,0.0,0.0,-4.6138,-4.6007,-4.5941,-4.5822,-4.5696,-4.5456,-4.5199,0.0,0.0,0.0,0.0,0.0,0.0,0.0,0.0,0.0,0.0,0.0,0.0,0.0,0.0,0.0,0.0,0.0,0.0,0.0,0.0,0.0,0.0,0.0,0.0,0.0,0.0,0.0,0.0,0.0,0.0,0.0,0.0,0.0,0.0,0.0,0.0,0.0,0.0,0.0,0.0,0.0,0.0,0.0,0.0,0.0,0.0,0.0,0.0,0.0,0.0,0.0,0.0,0.0,0.0,0.0,0.0,0.0,0.0,0.0,0.0,0.0,0.0,0.0,0.0,0.0,0.0,0.0,0.0,0.0,0.0,0.0,0.0,0.0,0.0,0.0,0.0,0.0,0.0,0.0,0.0,0.0,0.0,0.0,0.0,0.0,0.0,0.0,0.0,0.0,0.0,0.0,0.0,0.0,0.0,0.0,0.0,0.0,0.0,0.0,0.0,0.0,0.0,0.0,0.0,0.0,0.0,0.0,0.0,0.0,-4.5997,-4.5886,-4.58,-4.57,-4.5438,-4.5218,0.0,0.0,0.0,0.0,0.0,0.0,0.0,0.0,0.0,0.0,0.0,0.0,0.0,0.0,0.0,0.0,0.0,0.0,0.0,0.0,0.0,0.0,0.0,0.0,0.0,0.0,0.0,0.0,0.0,0.0,0.0,0.0,0.0,0.0,0.0,0.0,0.0,0.0,0.0,0.0,0.0,0.0,0.0,0.0,0.0,0.0,0.0,0.0,0.0,0.0,0.0,0.0,0.0,0.0,0.0,0.0,0.0,0.0,0.0,0.0,0.0,0.0,0.0,0.0,0.0,0.0,0.0,0.0,0.0,0.0,0.0,0.0,0.0,0.0,0.0,0.0,0.0,0.0,0.0,0.0,0.0,0.0,0.0,0.0,0.0,0.0,0.0,0.0,0.0,0.0,0.0,0.0,0.0,0.0,0.0,0.0,0.0,0.0,0.0,0.0,0.0,0.0,0.0,0.0,0.0,0.0,0.0,0.0,0.0,-4.6414,-4.6311,-4.621,-4.6116,-4.588,-4.5502,-4.4986,0.0,0.0,0.0,0.0,0.0,0.0,0.0,0.0,0.0,0.0,0.0,0.0,0.0,0.0,0.0,0.0,0.0,0.0,0.0,0.0,0.0,0.0,0.0,0.0,0.0,0.0,0.0,0.0,0.0,0.0,0.0,0.0,0.0,0.0,0.0,0.0,0.0,0.0,0.0,0.0,0.0,0.0,0.0,0.0,0.0,0.0,0.0,0.0,0.0,0.0,0.0,0.0,0.0,0.0,0.0,0.0,0.0,0.0,0.0,0.0,0.0,0.0,0.0,0.0,0.0,0.0,0.0,0.0,0.0,0.0,0.0,0.0,0.0,0.0,0.0,0.0,0.0,0.0,0.0,0.0,0.0,0.0,0.0,0.0,0.0,0.0,0.0,0.0,0.0,0.0,0.0,0.0,0.0,0.0,0.0,0.0,0.0,0.0,0.0,0.0,0.0,0.0,0.0,0.0,0.0,0.0,0.0,0.0,-4.7158,-4.7036,-4.694,-4.6877,-4.6624,-4.6031,0.0,0.0,0.0,0.0,0.0,0.0,0.0,0.0,0.0,0.0,0.0,0.0,0.0,0.0,0.0,0.0,0.0,0.0,0.0,0.0,0.0,0.0,0.0,0.0,0.0,0.0,0.0,0.0,0.0,0.0,0.0,0.0,0.0,0.0,0.0,0.0,0.0,0.0,0.0,0.0,0.0,0.0,0.0,0.0,0.0,0.0,0.0,0.0,0.0,0.0,0.0,0.0,0.0,0.0,0.0,0.0,0.0,0.0,0.0,0.0,0.0,0.0,0.0,0.0,0.0,0.0,0.0,0.0,0.0,0.0,0.0,0.0,0.0,0.0,0.0,0.0,0.0,0.0,0.0,0.0,0.0,0.0,0.0,0.0,0.0,0.0,0.0,0.0,0.0,0.0,0.0,0.0,0.0,0.0,0.0,0.0,0.0,0.0,0.0,0.0,0.0,0.0,0.0,0.0,0.0,0.0,0.0,0.0,0.0,-4.7824,-4.7268,-4.7178,-4.7722,-4.6951,-4.6301,0.0,0.0,0.0,0.0,0.0,0.0,0.0,0.0,0.0,0.0,0.0,0.0,0.0,0.0,0.0,0.0,0.0,0.0,0.0,0.0,0.0,0.0,0.0,0.0,0.0,0.0,0.0,0.0,0.0,0.0,0.0,0.0,0.0,0.0,0.0,0.0,0.0,0.0,0.0,0.0,0.0,0.0,0.0,0.0,0.0,0.0,0.0,0.0,0.0,0.0,0.0,0.0,0.0,0.0,0.0,0.0,0.0,0.0,0.0,0.0,0.0,0.0,0.0,0.0,0.0,0.0,0.0,0.0,0.0,0.0,0.0,0.0,0.0,0.0,0.0,0.0,0.0,0.0,0.0,0.0,0.0,0.0,0.0,0.0,0.0,0.0,0.0,0.0,0.0,0.0,0.0,0.0,0.0,0.0,0.0,0.0,0.0,0.0,0.0,0.0,0.0,0.0,0.0,0.0,0.0,0.0,0.0,0.0,-4.6653,-4.7638,-4.7852,-4.8068,-4.837,-4.7136,-4.6351,0.0,0.0,0.0,0.0,0.0,0.0,0.0,0.0,0.0,0.0,0.0,0.0,0.0,0.0,0.0,0.0,0.0,0.0,0.0,0.0,0.0,0.0,0.0,0.0,0.0,0.0,0.0,0.0,0.0,0.0,0.0,0.0,0.0,0.0,0.0,0.0,0.0,0.0,0.0,0.0,0.0,0.0,0.0,0.0,0.0,0.0,0.0,0.0,0.0,0.0,0.0,0.0,0.0,0.0,0.0,0.0,0.0,0.0,0.0,0.0,0.0,0.0,0.0,0.0,0.0,0.0,0.0,0.0,0.0,0.0,0.0,0.0,0.0,0.0,0.0,0.0,0.0,0.0,0.0,0.0,0.0,0.0,0.0,0.0,0.0,0.0,0.0,0.0,0.0,0.0,0.0,0.0,0.0,0.0,0.0,0.0,0.0,0.0,0.0,0.0,0.0,0.0,0.0,0.0,0.0,0.0,0.0,0.0,-4.6833,-4.6969,-4.8337,-4.8964,-4.871,-4.7285,-4.6416,0.0,0.0,0.0,0.0,0.0,0.0,0.0,0.0,0.0,0.0,0.0,0.0,0.0,0.0,0.0,0.0,0.0,0.0,0.0,0.0,0.0,0.0,0.0,0.0,0.0,0.0,0.0,0.0,0.0,0.0,0.0,0.0,0.0,0.0,0.0,0.0,0.0,0.0,0.0,0.0,0.0,0.0,0.0,0.0,0.0,0.0,0.0,0.0,0.0,0.0,0.0,0.0,0.0,0.0,0.0,0.0,0.0,0.0,0.0,0.0,0.0,0.0,0.0,0.0,0.0,0.0,0.0,0.0,0.0,0.0,0.0,0.0,0.0,0.0,0.0,0.0,0.0,0.0,0.0,0.0,0.0,0.0,0.0,0.0,0.0,0.0,0.0,0.0,0.0,0.0,0.0,0.0,0.0,0.0,0.0,0.0,0.0,0.0,0.0,0.0,0.0,0.0,0.0,0.0,0.0,0.0,0.0,0.0,-4.6262,-4.7341,-4.7111,-4.741,-4.8359,-4.7718,-4.715,0.0,0.0,0.0,0.0,0.0,0.0,0.0,0.0,0.0,0.0,0.0,0.0,0.0,0.0,0.0,0.0,0.0,0.0,0.0,0.0,0.0,0.0,0.0,0.0,0.0,0.0,0.0,0.0,0.0,0.0,0.0,0.0,0.0,0.0,0.0,0.0,0.0,0.0,0.0,0.0,0.0,0.0,0.0,0.0,0.0,0.0,0.0,0.0,-4.0644,0.0,0.0,0.0,0.0,0.0,0.0,0.0,0.0,0.0,0.0,0.0,0.0,0.0,0.0,0.0,0.0,0.0,0.0,0.0,0.0,0.0,0.0,0.0,0.0,0.0,0.0,0.0,0.0,0.0,0.0,0.0,0.0,0.0,0.0,0.0,0.0,0.0,0.0,0.0,0.0,0.0,0.0,0.0,0.0,0.0,0.0,0.0,0.0,0.0,0.0,0.0,0.0,0.0,0.0,0.0,0.0,0.0,0.0,0.0,-4.5639,-4.667,-4.667,-4.6895,-4.7387,-4.7222,-4.6826,0.0,0.0,0.0,0.0,0.0,0.0,0.0,0.0,0.0,0.0,0.0,0.0,0.0,0.0,0.0,0.0,0.0,0.0,0.0,0.0,0.0,0.0,0.0,0.0,0.0,0.0,0.0,0.0,0.0,0.0,0.0,0.0,0.0,0.0,0.0,0.0,0.0,0.0,0.0,0.0,0.0,0.0,0.0,0.0,0.0,0.0,0.0,0.0,0.0,0.0,0.0,0.0,0.0,0.0,0.0,0.0,0.0,0.0,0.0,0.0,0.0,0.0,0.0,0.0,0.0,0.0,0.0,0.0,0.0,0.0,0.0,0.0,0.0,0.0,0.0,0.0,0.0,0.0,0.0,0.0,0.0,0.0,0.0,0.0,0.0,0.0,0.0,0.0,0.0,0.0,0.0,0.0,0.0,0.0,0.0,0.0,0.0,0.0,0.0,0.0,0.0,0.0,0.0,0.0,0.0,0.0,0.0,-4.4783,-4.5179,-4.6073,-4.6619,-4.6727,-4.6327,-4.6443,-4.6059,-4.5109,0.0,0.0,0.0,0.0,0.0,0.0,0.0,0.0,0.0,0.0,0.0,0.0,0.0,0.0,0.0,0.0,0.0,0.0,0.0,0.0,0.0,0.0,0.0,0.0,0.0,0.0,0.0,0.0,0.0,0.0,0.0,0.0,0.0,0.0,0.0,0.0,0.0,0.0,-3.9338,-4.0313,0.0,0.0,0.0,0.0,0.0,0.0,0.0,0.0,-4.0728,0.0,0.0,0.0,0.0,0.0,0.0,0.0,0.0,0.0,0.0,0.0,0.0,0.0,0.0,0.0,0.0,0.0,0.0,0.0,0.0,0.0,0.0,0.0,0.0,0.0,0.0,0.0,0.0,0.0,0.0,0.0,0.0,0.0,0.0,0.0,0.0,0.0,0.0,0.0,0.0,0.0,0.0,0.0,0.0,0.0,0.0,0.0,0.0,0.0,0.0,0.0,0.0,0.0,0.0,0.0,0.0,-4.5509,-4.4904,-4.5482,-4.7322,-4.68,-4.6327,-4.6009,-4.6009,-4.5293,-4.3826,0.0,0.0,0.0,0.0,0.0,0.0,0.0,0.0,0.0,0.0,0.0,0.0,0.0,0.0,0.0,0.0,0.0,0.0,0.0,0.0,0.0,0.0,0.0,0.0,0.0,0.0,0.0,0.0,0.0,0.0,0.0,0.0,0.0,0.0,0.0,0.0,0.0,0.0,0.0,-4.1146,-4.1997,0.0,0.0,0.0,0.0,0.0,0.0,0.0,0.0,-4.0654,0.0,0.0,0.0,0.0,0.0,0.0,0.0,0.0,0.0,0.0,0.0,0.0,0.0,0.0,0.0,0.0,0.0,0.0,0.0,0.0,0.0,0.0,0.0,0.0,0.0,0.0,0.0,0.0,0.0,0.0,0.0,0.0,0.0,0.0,0.0,0.0,0.0,0.0,0.0,0.0,0.0,0.0,0.0,0.0,0.0,0.0,0.0,0.0,0.0,0.0,0.0,0.0,0.0,0.0,0.0,-4.5357,-4.499,-4.5616,-4.7274,-4.6165,-4.5637,-4.5865,-4.548,-4.462,0.0,0.0,0.0,0.0,0.0,0.0,0.0,0.0,0.0,0.0,0.0,0.0,0.0,0.0,0.0,0.0,0.0,0.0,0.0,0.0,0.0,0.0,0.0,0.0,0.0,0.0,0.0,0.0,0.0,0.0,0.0,0.0,0.0,0.0,0.0,0.0,0.0,0.0,0.0,0.0,-4.144,-4.2063,-4.2125,0.0,0.0,0.0,0.0,0.0,0.0,-4.1552,-4.0564,0.0,0.0,0.0,0.0,0.0,0.0,0.0,0.0,0.0,0.0,0.0,0.0,0.0,0.0,0.0,0.0,0.0,0.0,0.0,0.0,0.0,0.0,0.0,0.0,0.0,0.0,0.0,0.0,0.0,0.0,0.0,0.0,0.0,0.0,0.0,0.0,0.0,0.0,0.0,0.0,0.0,0.0,0.0,0.0,0.0,0.0,0.0,0.0,0.0,0.0,0.0,0.0,0.0,0.0,0.0,-4.5308,-4.506,-4.5676,-4.6966,-4.5535,-4.5021,-4.5626,-4.4949,-4.4181,0.0,0.0,0.0,0.0,0.0,0.0,0.0,0.0,0.0,0.0,0.0,0.0,0.0,0.0,0.0,0.0,0.0,0.0,0.0,0.0,0.0,0.0,0.0,0.0,0.0,0.0,0.0,0.0,0.0,0.0,0.0,0.0,0.0,0.0,0.0,0.0,0.0,0.0,0.0,0.0,0.0,-4.2108,-4.2634,-4.2788,0.0,0.0,0.0,0.0,-4.3216,-4.1754,0.0,0.0,0.0,0.0,0.0,0.0,0.0,0.0,0.0,0.0,0.0,0.0,0.0,0.0,0.0,0.0,0.0,0.0,0.0,0.0,0.0,0.0,0.0,0.0,0.0,0.0,0.0,0.0,0.0,0.0,0.0,0.0,0.0,0.0,0.0,0.0,0.0,0.0,0.0,0.0,0.0,0.0,0.0,0.0,0.0,0.0,0.0,0.0,0.0,0.0,0.0,0.0,0.0,0.0,0.0,0.0,-4.5915,-4.5199,-4.5587,-4.6948,-4.5535,-4.4764,-4.4856,-4.4674,-4.4163,0.0,0.0,0.0,0.0,0.0,0.0,0.0,0.0,0.0,0.0,0.0,0.0,0.0,0.0,0.0,0.0,0.0,0.0,0.0,0.0,0.0,0.0,0.0,0.0,0.0,0.0,0.0,0.0,0.0,0.0,0.0,0.0,0.0,0.0,0.0,0.0,0.0,0.0,0.0,0.0,0.0,-4.2615,-4.3183,-4.3301,-4.3014,0.0,0.0,-4.3048,-4.2311,-4.1829,0.0,0.0,0.0,0.0,0.0,0.0,0.0,0.0,0.0,0.0,0.0,0.0,0.0,0.0,0.0,0.0,0.0,0.0,0.0,0.0,0.0,0.0,0.0,0.0,0.0,0.0,0.0,0.0,0.0,0.0,0.0,0.0,0.0,0.0,0.0,0.0,0.0,0.0,0.0,0.0,0.0,0.0,0.0,0.0,0.0,0.0,0.0,0.0,0.0,0.0,0.0,0.0,0.0,0.0,0.0,-4.5785,-4.6083,-4.6103,-4.6654,-4.7682,-4.5773,-4.4929,-4.5369,-4.4346,-4.3524,0.0,0.0,0.0,0.0,0.0,0.0,0.0,0.0,0.0,0.0,0.0,0.0,0.0,0.0,0.0,0.0,0.0,0.0,0.0,0.0,0.0,0.0,0.0,0.0,0.0,0.0,0.0,0.0,0.0,0.0,0.0,0.0,0.0,0.0,0.0,0.0,0.0,0.0,0.0,0.0,0.0,0.0,-4.3765,-4.3934,0.0,0.0,0.0,-4.3939,-4.2248,0.0,0.0,0.0,0.0,0.0,0.0,0.0,0.0,0.0,0.0,0.0,0.0,0.0,0.0,0.0,0.0,0.0,0.0,0.0,0.0,0.0,0.0,0.0,0.0,0.0,0.0,0.0,0.0,0.0,0.0,0.0,0.0,0.0,0.0,0.0,0.0,0.0,0.0,0.0,0.0,0.0,0.0,0.0,0.0,0.0,0.0,0.0,0.0,0.0,0.0,0.0,0.0,0.0,0.0,0.0,0.0,0.0,-4.6065,-4.6746,-4.7407,-4.7921,-4.6049,-4.5296,-4.5847,-4.4343,0.0,0.0,0.0,0.0,0.0,0.0,0.0,0.0,0.0,0.0,0.0,0.0,0.0,0.0,0.0,0.0,0.0,0.0,0.0,0.0,0.0,0.0,0.0,0.0,0.0,0.0,0.0,-3.8855,0.0,0.0,0.0,0.0,0.0,0.0,0.0,0.0,0.0,0.0,0.0,0.0,0.0,0.0,-4.2858,-4.432,-4.4615,-4.4666,0.0,0.0,-4.4681,-4.3299,-4.2654,-4.1547,0.0,0.0,0.0,0.0,0.0,0.0,0.0,0.0,0.0,0.0,0.0,0.0,0.0,0.0,0.0,0.0,0.0,0.0,0.0,0.0,0.0,0.0,0.0,0.0,0.0,0.0,0.0,0.0,0.0,0.0,0.0,0.0,0.0,0.0,0.0,0.0,0.0,0.0,0.0,0.0,0.0,0.0,0.0,0.0,0.0,0.0,0.0,0.0,0.0,0.0,0.0,0.0,0.0,0.0,-4.5847,-4.592,-4.6709,-4.7168,-4.7168,-4.6287,-4.5847,-4.5883,-4.5113,-4.4371,0.0,0.0,0.0,0.0,0.0,0.0,0.0,0.0,0.0,0.0,0.0,0.0,0.0,0.0,0.0,0.0,0.0,0.0,0.0,0.0,0.0,0.0,0.0,0.0,0.0,0.0,0.0,0.0,0.0,0.0,0.0,0.0,0.0,0.0,0.0,0.0,0.0,0.0,0.0,0.0,0.0,-4.3501,-4.4959,-4.5551,-4.5445,0.0,-4.4431,-4.4962,-4.5776,-4.3521,-4.124,-3.9824,0.0,0.0,0.0,0.0,0.0,0.0,0.0,0.0,0.0,0.0,0.0,0.0,0.0,0.0,0.0,0.0,0.0,0.0,0.0,0.0,0.0,0.0,0.0,0.0,0.0,0.0,0.0,0.0,0.0,0.0,0.0,0.0,0.0,0.0,0.0,0.0,0.0,0.0,0.0,0.0,0.0,0.0,0.0,0.0,0.0,0.0,0.0,0.0,0.0,0.0,0.0,0.0,0.0,-4.5772,-4.5717,-4.7111,-4.7847,-4.7829,-4.7076,-4.6486,-4.6063,-4.5209,-4.4161,0.0,0.0,0.0,0.0,0.0,0.0,0.0,0.0,0.0,0.0,0.0,0.0,0.0,0.0,0.0,0.0,0.0,0.0,0.0,0.0,0.0,0.0,0.0,0.0,0.0,0.0,0.0,0.0,-4.0277,-4.0443,-4.0618,0.0,0.0,0.0,0.0,0.0,0.0,0.0,0.0,0.0,0.0,-4.2821,-4.4155,-4.4447,0.0,0.0,-4.5339,-4.4341,-4.3395,-4.2745,-4.1571,-3.9305,-3.8432,0.0,0.0,0.0,0.0,0.0,0.0,0.0,0.0,0.0,0.0,0.0,0.0,0.0,0.0,0.0,0.0,0.0,0.0,0.0,0.0,0.0,0.0,0.0,0.0,0.0,0.0,0.0,0.0,0.0,0.0,0.0,0.0,0.0,0.0,0.0,0.0,0.0,0.0,0.0,0.0,0.0,0.0,0.0,0.0,0.0,0.0,0.0,0.0,0.0,0.0,0.0,0.0,-4.5373,-4.5294,-4.6898,-4.7738,-4.7738,-4.7171,-4.6698,-4.628,-4.541,-4.4364,0.0,0.0,0.0,0.0,0.0,0.0,0.0,0.0,0.0,0.0,0.0,0.0,0.0,0.0,0.0,0.0,0.0,0.0,0.0,0.0,0.0,0.0,0.0,0.0,0.0,0.0,0.0,0.0,-4.0325,-4.0324,-3.9822,0.0,0.0,0.0,0.0,0.0,0.0,0.0,0.0,0.0,0.0,-4.2566,-4.3849,-4.4091,-4.4874,-4.6805,-4.5618,-4.3868,-4.1766,-4.1989,-4.1641,-3.9643,0.0,0.0,0.0,0.0,0.0,0.0,0.0,0.0,0.0,0.0,0.0,0.0,0.0,0.0,0.0,0.0,0.0,0.0,0.0,0.0,0.0,0.0,0.0,0.0,0.0,0.0,0.0,0.0,0.0,0.0,-4.3387,0.0,0.0,0.0,0.0,0.0,0.0,0.0,0.0,0.0,0.0,0.0,0.0,0.0,0.0,0.0,0.0,0.0,0.0,0.0,0.0,0.0,0.0,-4.4535,-4.4553,-4.5836,-4.646,-4.646,-4.6413,-4.6424,-4.6377,-4.578,-4.5197,-4.4515,0.0,0.0,0.0,0.0,0.0,0.0,0.0,0.0,0.0,0.0,0.0,0.0,0.0,0.0,0.0,0.0,0.0,0.0,0.0,0.0,0.0,0.0,0.0,0.0,0.0,0.0,-3.9377,-4.0511,-4.0688,0.0,0.0,0.0,0.0,0.0,0.0,0.0,0.0,0.0,0.0,-4.196,-4.2995,-4.4331,-4.4975,-4.5457,-4.6116,-4.4971,-4.3423,-4.1677,-4.1473,-4.1445,0.0,0.0,0.0,0.0,0.0,0.0,0.0,0.0,0.0,0.0,0.0,0.0,0.0,0.0,0.0,0.0,0.0,0.0,0.0,0.0,0.0,0.0,0.0,0.0,0.0,0.0,0.0,-4.4782,-4.4323,0.0,0.0,0.0,0.0,0.0,0.0,0.0,0.0,0.0,0.0,0.0,-4.5498,-4.5425,0.0,0.0,0.0,0.0,0.0,0.0,0.0,0.0,0.0,0.0,0.0,0.0,-4.4334,-4.4253,-4.5652,-4.6365,-4.6365,-4.6365,-4.6192,-4.5833,-4.5597,-4.4993,-4.3957,0.0,0.0,0.0,0.0,0.0,0.0,0.0,0.0,0.0,0.0,0.0,0.0,0.0,0.0,0.0,0.0,0.0,0.0,0.0,0.0,0.0,0.0,0.0,0.0,0.0,-3.8246,0.0,0.0,0.0,0.0,0.0,0.0,0.0,0.0,0.0,0.0,0.0,-3.9077,-3.9588,-4.0974,-4.205,-4.2434,-4.3366,-4.4065,0.0,0.0,0.0,0.0,0.0,0.0,0.0,0.0,0.0,0.0,0.0,0.0,0.0,0.0,-3.7023,-3.6818,-3.6415,-3.6103,-3.6088,0.0,0.0,0.0,0.0,0.0,0.0,0.0,0.0,0.0,0.0,0.0,0.0,0.0,0.0,-4.5351,0.0,-4.5131,0.0,0.0,0.0,0.0,0.0,0.0,0.0,0.0,-4.6232,-4.645,-4.6024,-4.5909,-4.5495,0.0,-4.4334,-4.3625,0.0,0.0,0.0,0.0,0.0,0.0,0.0,0.0,-4.3957,-4.4034,-4.5155,-4.5783,-4.5783,-4.5783,-4.5597,-4.5178,-4.5178,-4.4812,-4.3973,-4.3206,-4.2579,0.0,0.0,0.0,0.0,0.0,0.0,0.0,0.0,0.0,0.0,0.0,0.0,0.0,0.0,0.0,0.0,0.0,0.0,0.0,0.0,0.0,0.0,0.0,-3.8476,0.0,0.0,0.0,0.0,0.0,0.0,0.0,0.0,0.0,-3.87,-3.8907,-3.9237,-3.9793,-4.0872,-4.1625,-4.1775,0.0,0.0,0.0,0.0,0.0,0.0,0.0,-4.2073,-4.122,-4.0891,-4.0591,-4.0172,-4.0098,-3.9816,-3.9106,0.0,0.0,-3.8843,-3.8052,-3.7327,-3.7242,-3.7263,-3.7267,-3.6976,-3.6825,-3.6843,0.0,0.0,0.0,0.0,0.0,0.0,0.0,0.0,-4.5094,-4.5168,0.0,-4.5865,0.0,0.0,0.0,0.0,0.0,-4.5535,0.0,0.0,-4.7461,-4.7518,-4.6242,-4.6061,-4.5651,-4.4892,-4.3955,-4.3478,-4.3348,-4.3429,0.0,0.0,0.0,0.0,0.0,0.0,-4.3425,-4.3957,-4.4439,-4.4626,-4.4626,-4.4626,-4.4626,-4.4626,-4.4626,-4.4626,-4.4536,-4.3842,-4.3436,-4.3386,-4.2066,0.0,0.0,0.0,0.0,0.0,0.0,0.0,0.0,0.0,0.0,0.0,0.0,0.0,0.0,0.0,0.0,0.0,0.0,0.0,0.0,-3.8421,0.0,0.0,0.0,0.0,0.0,0.0,0.0,0.0,0.0,0.0,-4.0076,-3.941,-3.9485,-4.1384,0.0,0.0,0.0,0.0,-4.3344,-4.3344,-4.3344,-4.3319,-4.3268,-4.2782,-4.2387,-4.2419,0.0,0.0,-4.1399,-4.1429,-4.1489,-4.1866,-4.1413,-4.131,-4.1155,-3.9219,-3.7575,-3.7157,-3.7414,-3.7168,-3.636,-3.6675,-3.6857,-4.974,0.0,0.0,0.0,0.0,-4.5941,-4.5681,-4.5883,-4.5663,-4.5351,-4.5076,-4.5663,0.0,0.0,0.0,0.0,0.0,0.0,-4.5991,-4.611,-4.6581,-4.6632,-4.6326,-4.628,-4.597,-4.5318,-4.5025,-4.4647,-4.4238,-4.4238,-4.3785,-4.2936,0.0,0.0,0.0,0.0,-4.3628,-4.3761,-4.4275,-4.457,-4.457,-4.457,-4.457,-4.457,-4.457,-4.457,-4.457,-4.4367,-4.3995,-4.3436,-4.3014,0.0,0.0,0.0,0.0,0.0,0.0,0.0,0.0,0.0,0.0,0.0,0.0,0.0,0.0,0.0,0.0,0.0,0.0,0.0,-3.8311,-3.8461,-3.8632,0.0,0.0,0.0,0.0,0.0,0.0,0.0,0.0,0.0,-4.0934,-4.0394,-4.0126,0.0,0.0,-4.2147,-4.2342,-4.2925,-4.3344,-4.3344,-4.3344,0.0,-4.3304,-4.3135,-4.2895,-4.2447,-4.2207,-4.2073,-4.2073,-4.1774,-4.1448,-4.136,-4.0363,-3.9615,-3.9504,-3.9955,-4.01,-4.0054,-3.9545,-3.8957,-3.8572,-3.8238,-3.7805,-5.0297,-4.9537,-4.8124,-4.7333,-4.693,-4.5893,-4.5608,-4.5865,-4.5571,-4.5314,-4.5204,-4.5681,-4.5443,-4.4727,-4.4856,0.0,0.0,0.0,-4.534,-4.5743,-4.5839,-4.5757,-4.5638,-4.5923,-4.5749,-4.5178,-4.5125,-4.4944,-4.457,-4.457,-4.4279,-4.3698,0.0,0.0,-4.3305,-4.3558,-4.3844,-4.4079,-4.4444,-4.457,-4.457,-4.457,-4.457,-4.457,-4.457,-4.457,-4.457,-4.457,-4.4367,-4.3893,-4.3589,-4.3014,0.0,0.0,0.0,0.0,0.0,0.0,0.0,0.0,0.0,0.0,0.0,-3.8571,-3.8039,0.0,0.0,0.0,-3.7943,-3.8272,-3.8933,-3.8882,0.0,0.0,0.0,0.0,0.0,0.0,0.0,-3.9851,-4.0512,-4.1085,-4.1309,-4.1265,-4.1175,-4.1175,-4.1863,-4.2357,-4.2357,0.0,-4.3344,-4.3344,-4.3344,-4.3344,-4.3344,-4.3344,-4.3021,-4.2223,-4.1719,-4.1395,-4.1395,-4.1108,-4.0916,-4.0901,-4.011,-3.9147,-3.8787,-3.9857,-4.0553,-3.9877,-3.9363,-3.8802,-3.8393,-3.8073,-3.7853,-5.0442,-4.9992,-4.881,-4.7822,-4.6948,-4.5424,-4.5149,-4.5645,-4.4911,-4.5021,-4.57,-4.5773,-4.5424,-4.4764,-4.403,0.0,-4.4711,-4.4155,-4.4299,-4.4957,-4.5081,-4.4834,-4.4402,-4.5113,-4.5142,-4.457,-4.457,-4.457,-4.457,-4.457,-4.457,-4.4553,-4.3969,-4.3776,-4.3917,-4.3776,-4.4062,-4.4759,-4.4682,-4.457,-4.457,-4.457,-4.457,-4.457,-4.457,-4.457,-4.457,-4.457,-4.457,-4.4553,-4.3893,-4.3487,-4.3386,0.0,0.0,0.0,0.0,0.0,0.0,0.0,0.0,0.0,0.0,0.0,0.0,0.0,0.0,0.0,-3.8538,0.0,-3.9364,-3.9469,0.0,0.0,0.0,-4.0472,-4.0472,-4.1055,-4.1444,-4.1384,0.0,0.0,-4.1459,-4.1983,-4.2464,-4.2432,-4.2432,-4.2447,-4.2509,-4.2955,-4.3344,-4.3344,-4.3344,-4.322,-4.2877,-4.2856,-4.2452,-4.1544,-4.0575,-4.0031,-3.9944,-3.9784,-4.0037,-4.0548,-4.012,-3.9352,-3.8648,-3.8999,-3.9095,-3.7506,-3.7636,-3.764,-3.6877,-3.6911,-3.7061,-5.0462,-4.9992,-4.881,-4.7669,-4.6591,-4.588,-4.5039,-4.4048,-4.3864,-4.3883,-4.4103,-4.4709,-4.5223,-4.5608,-4.5406,-4.5223,-4.4989,-4.4216,-4.3853,-4.3734,-4.369,-4.3663,-4.369,-4.4439,-4.472,-4.457,-4.457,-4.457,-4.457,-4.457,-4.457,-4.457,-4.4439,-4.441,-4.441,-4.441,-4.4439,-4.4626,-4.4626,-4.457,-4.457,-4.457,-4.457,-4.457,-4.457,-4.457,-4.457,-4.457,-4.457,-4.457,-4.4401,-4.4028,-4.3436,-4.254,0.0,0.0,0.0,0.0,0.0,0.0,0.0,0.0,0.0,-3.8528,-3.7714,0.0,-3.8751,0.0,-3.8993,-3.9245,-3.9409,-3.9873,0.0,0.0,-4.0756,-4.1145,-4.116,-4.1728,-4.1938,-4.1429,-4.1818,-4.2132,-4.2132,-4.2344,-4.2536,-4.3015,-4.3105,-4.3105,-4.3105,-4.321,-4.3344,-4.328,-4.328,-4.2643,-4.1151,-4.073,-4.0675,-4.0332,-4.0059,-3.9885,-3.9885,-3.9094,-3.8585,-3.8666,-3.7913,-3.7217,-3.7009,-3.7111,-3.6932,-3.622,-3.7039,-3.7954,-3.7698,-3.7104,-3.6586,-5.0358,-4.9762,-4.9098,-4.7834,-4.6178,-4.5605,-4.4856,-4.4011,-4.3644,-4.3479,-4.3516,-4.3975,-4.4415,-4.4819,-4.4819,-4.4546,-4.4014,-4.3306,-4.2695,-4.2267,-4.2307,-4.2535,-4.2946,-4.369,-4.4248,-4.457,-4.457,-4.457,-4.457,-4.457,-4.457,-4.457,-4.457,-4.457,-4.457,-4.457,-4.457,-4.457,-4.457,-4.457,-4.457,-4.457,-4.457,-4.457,-4.457,-4.457,-4.457,-4.457,-4.457,-4.457,-4.457,-4.4384,-4.3944,-4.32,-4.2455,0.0,0.0,0.0,0.0,0.0,0.0,0.0,0.0,0.0,0.0,0.0,-3.9154,-3.8998,-3.9541,-3.9858,-3.9843,-4.0457,-4.0846,-4.0831,-4.1429,-4.1818,-4.1818,-4.2402,-4.2656,-4.2297,-4.2566,-4.2791,-4.2791,-4.2352,-4.2136,-4.2504,-4.2534,-4.2548,-4.2548,-4.2563,-4.2725,-4.3172,-4.2476,-4.1432,-4.0041,-3.9404,-3.9094,-3.9094,-3.8662,-3.8315,-3.8315,-3.7769,-3.7245,-3.6895,-3.6408,-3.5893,-3.5524,-3.5592,-3.5516,-3.542,-3.5927,-3.6548,-3.6586,-3.6065,-3.5629,-5.0268,-4.958,-4.9504,-4.8196,-4.6084,-4.524,-4.4727,-4.4507,-4.3791,-4.3479,-4.3479,-4.3479,-4.3479,-4.3479,-4.3479,-4.3178,-4.2559,-4.2021,-4.1499,-4.097,-4.1206,-4.1728,-4.2455,-4.3217,-4.3927,-4.457,-4.457,-4.457,-4.457,-4.457,-4.457,-4.457,-4.457,-4.457,-4.457,-4.457,-4.457,-4.457,-4.457,-4.457,-4.457,-4.457,-4.457,-4.457,-4.457,-4.457,-4.457,-4.457,-4.457,-4.457,-4.457,-4.457,-4.4553,-4.3842,-4.3115,0.0,-4.1623,0.0,0.0,0.0,0.0,0.0,0.0,0.0,0.0,-3.9063,-3.9529,-3.9544,-4.0127,-4.0531,-4.0531,-4.1115,-4.1504,-4.1519,-4.2102,-4.2476,-4.2521,-4.3,-4.3344,-4.3344,-4.3344,-4.3265,-4.2966,-4.2193,-4.1587,-4.142,-4.1435,-4.1253,-4.1155,-4.142,-4.1947,-4.2782,-4.0918,-3.9459,-3.9467,-3.8622,-3.7848,-3.7769,-3.7047,-3.6257,-3.6407,-3.6238,-3.5956,-3.5411,-3.5416,-3.5161,-3.4367,-3.4507,-3.4713,-3.465,-3.4728,-3.4778,-3.4866,-3.4916,-3.4726,-5.0421,-4.9968,-4.9617,-4.8671,-4.7274,-4.6173,-4.4911,-4.3718,-4.3571,-4.3479,-4.3479,-4.3479,-4.3479,-4.3479,-4.3479,-4.294,-4.1997,-4.1853,-4.159,-4.1189,-4.1781,-4.2472,-4.3234,-4.3995,-4.4434,-4.457,-4.457,-4.457,-4.457,-4.457,-4.457,-4.457,-4.457,-4.457,-4.457,0.0,0.0,0.0,-4.457,-4.457,-4.457,-4.457,-4.457,-4.457,-4.457,0.0,-4.457,-4.457,-4.457,-4.457,-4.457,0.0,0.0,0.0,0.0,0.0,0.0,0.0,0.0,0.0,0.0,0.0,-3.9203,-3.8766,-3.8689,-3.9598,-4.0217,-4.0247,-4.0816,-4.1205,-4.1205,-4.1788,-4.2177,-4.2269,-4.2761,-4.3135,-4.315,-4.3269,-4.3344,-4.3344,-4.325,-4.2886,-4.1971,-4.167,-4.1224,-4.0376,-4.0246,-3.9784,-3.889,-4.0376,-4.1269,-4.0583,-3.8653,-3.7492,-3.8326,-3.7494,-3.6752,-3.6671,-3.613,-3.573,-3.5667,-3.5341,-3.5052,-3.4773,-3.4876,-3.4851,-3.4573,-3.4623,-3.4525,-3.4148,-3.406,-3.4198,-3.4625,-3.4713,-3.4726,-5.0336,0.0,-4.9136,-4.8103,0.0,-4.5734,-4.4617,-4.3479,-4.3479,-4.3479,-4.3479,-4.3479,-4.3479,-4.3479,-4.3479,-4.3032,-4.2221,-4.2328,-4.2118,-4.1646,-4.2089,-4.2692,-4.342,-4.3826,-4.4198,-4.457,-4.457,-4.457,-4.457,-4.457,-4.457,-4.457,-4.457,-4.457,-4.457,-4.457,-4.457,-4.457,-4.457,-4.457,-4.457,-4.457,-4.457,-4.457,-4.457,0.0,0.0,0.0,0.0,0.0,0.0,0.0,0.0,0.0,0.0,-4.3436,-4.2955,-4.2682,-4.2572,-4.135,-4.0667,-4.0816,-3.9822,-3.9113,-3.9058,-3.9601,-4.0053,-4.0382,-4.0995,-4.1519,-4.1848,-4.2447,-4.2836,-4.2865,-4.3135,-4.3344,-4.322,-4.2524,-4.2077,-4.1953,-4.1273,-4.0488,-3.9966,-3.9396,-3.9026,-3.8695,-3.8573,-3.8327,-3.7625,-3.8725,-3.942,-3.8379,-3.7325,-3.659,-3.706,-3.6536,-3.5968,-3.5893,-3.5504,-3.5177,-3.5127,-3.4914,-3.465,-3.4399,-3.4324,-3.4261,-3.3972,-3.3909,-3.3822,-3.3571,-3.3483,-3.3571,-3.3859,-3.3909,-3.3909,-5.023,-4.9447,-4.8626,-4.7392,-4.5847,-4.5057,-4.425,-4.3479,0.0,0.0,0.0,-4.3699,-4.3773,-4.3901,-4.392,-4.3579,-4.2969,-4.3045,-4.284,-4.2322,-4.2465,-4.2895,-4.3606,-4.3639,-4.3944,-4.4553,-4.457,-4.457,-4.457,-4.457,-4.457,-4.457,-4.457,-4.457,-4.457,-4.457,-4.457,-4.457,-4.457,-4.457,-4.457,-4.457,-4.457,-4.457,-4.457,-4.457,-4.457,-4.457,-4.457,-4.457,-4.457,-4.457,-4.457,-4.457,-4.4299,-4.369,-4.3623,-4.3567,-4.3367,-4.1966,-4.1215,-4.1512,-4.0255,-3.9424,-3.9424,-3.9529,-3.9828,-4.0352,-4.101,-4.1609,-4.2132,-4.2656,-4.3,-4.2985,-4.2985,-4.2891,-4.2609,-4.15,-4.0573,-4.0259,-3.914,-3.8145,-3.7937,-3.7205,-3.6537,-3.6796,-3.6852,-3.6651,-3.6408,-3.6959,-3.7313,-3.6421,-3.6016,-3.5956,-3.5994,-3.5705,-3.5416,-3.5391,-3.4939,-3.46,-3.4562,-3.45,-3.4261,-3.3834,-3.3746,-3.3571,-3.3206,-3.3156,-3.3081,-3.3081,-3.3081,-3.3081,-3.3081,-3.3093,-3.3131,-5.0206,-4.9428,-4.8626,-4.7342,-4.5828,-4.5057,-4.425,-4.3497,-4.3479,-4.3883,-4.4544,-4.4544,-4.4911,-4.5571,-4.5553,-4.4953,-4.3926,-4.3899,-4.3672,-4.326,-4.3254,-4.3656,-4.4384,-4.4418,-4.4468,-4.457,-4.457,-4.457,-4.457,-4.457,-4.457,-4.457,-4.457,-4.457,-4.457,-4.457,-4.457,-4.457,-4.457,-4.457,-4.457,-4.457,-4.457,-4.457,-4.457,-4.457,-4.457,-4.457,-4.457,-4.457,-4.457,-4.457,-4.457,-4.457,-4.4536,-4.4418,-4.4401,-4.4102,-4.332,-4.2375,-4.1251,-3.992,-3.9538,-3.9424,-3.9439,-3.9933,-4.0307,-4.0427,-4.098,-4.1414,-4.1534,-4.1654,-4.1743,-4.1698,-4.1683,-4.1332,-4.0552,-4.0011,-3.951,-3.8669,-3.8366,-3.766,-3.6775,-3.6472,-3.5992,-3.5315,-3.5315,-3.5057,-3.5105,-3.5395,-3.5458,-3.5039,-3.467,-3.4657,-3.4936,-3.4926,-3.4839,-3.4851,-3.4387,-3.401,-3.4022,-3.3709,-3.3407,-3.3232,-3.3244,-3.3194,-3.3081,-3.3081,-3.3081,-3.3081,-3.3081,-3.3081,-3.3081,-3.3081,-3.3081,-4.9561,-4.8749,-4.7475,-4.6296,-4.5186,-4.4397,-4.4103,-4.414,-4.414,-4.4342,-4.469,-4.4709,-4.5149,-4.5865,-4.5902,-4.5415,-4.4586,-4.4671,-4.4362,-4.3922,-4.4007,-4.4231,-4.4536,-4.457,-4.457,-4.457,-4.457,-4.457,-4.457,-4.457,-4.457,-4.457,-4.457,-4.457,-4.457,-4.457,-4.457,-4.457,-4.457,-4.457,-4.457,-4.457,-4.457,-4.457,-4.457,-4.457,-4.457,-4.457,-4.457,-4.457,-4.457,-4.457,-4.457,-4.457,-4.457,-4.457,-4.457,-4.4196,-4.3366,-4.2062,-4.0758,-3.9538,-3.9424,-3.9424,-3.9424,-3.9679,-4.0008,-4.0352,-4.0681,-4.101,-4.1339,-4.1384,-4.1384,-4.1384,-4.0882,-4.0373,-3.9737,-3.8316,-3.7318,-3.6766,-3.5951,-3.5214,-3.4715,-3.4641,-3.4622,-3.43,-3.45,-3.46,-3.4311,-3.4462,-3.4573,-3.4598,-3.4432,-3.442,-3.4585,-3.4449,-3.4299,-3.4274,-3.3822,-3.3495,-3.3445,-3.3194,-3.3119,-3.3081,-3.3081,-3.3081,-3.3081,-3.3081,-3.3081,-3.3081,-3.3081,-3.3081,-3.3081,-3.3081,-3.3081,-4.8681,-4.7871,-4.6418,-4.5286,-4.4397,-4.3754,-4.3956,-4.469,-4.4709,-4.4911,-4.5241,-4.5259,-4.5681,-4.6397,-4.6452,-4.6038,-4.5408,-4.5427,-4.5071,-4.4423,-4.4558,-4.457,-4.457,-4.457,-4.457,-4.457,-4.457,-4.457,-4.457,-4.457,-4.457,-4.457,-4.457,-4.457,-4.457,-4.457,-4.457,-4.457,-4.457,-4.457,-4.457,-4.44,-4.4327,-4.4327,-4.431,-4.4327,-4.4327,-4.4514,-4.457,-4.457,-4.457,-4.457,-4.457,-4.457,-4.457,-4.457,-4.457,-4.4121,-4.3031,-4.1609,-4.0309,-3.9481,-3.9424,-3.9424,-3.9424,-3.9424,-3.9619,-4.0098,-4.0172,-4.0382,-4.0771,-4.0905,-4.086,-4.0604,-3.9857,-3.9054,-3.8484,-3.6647,-3.5239,-3.5018,-3.3871,-3.3192,-3.3081,-3.3081,-3.3356,-3.3684,-3.4098,-3.4135,-3.3809,-3.3709,-3.3909,-3.4173,-3.4083,-3.4008,-3.4311,-3.401,-3.3746,-3.3709,-3.3382,-3.3181,-3.3119,-3.3093,-3.3081,-3.3081,-3.3081,-3.3081,-3.3081,-3.3081,-3.3081,-3.3081,-3.3081,-3.3081,-3.3081,-3.3081,-3.3081,-4.778,-4.7049,-4.6153,-4.4931,-4.3679,-4.3516,-4.3956,-4.469,-4.4727,-4.5553,-4.6801,-4.6911,-4.7297,-4.8012,-4.8031,-4.7347,-4.6269,-4.6289,-4.5643,-4.4678,-4.4592,-4.457,-4.457,-4.457,-4.457,-4.457,-4.457,-4.457,-4.457,-4.457,-4.457,-4.457,-4.457,-4.457,-4.457,-4.457,-4.457,-4.457,-4.457,-4.457,-4.457,-4.3814,-4.3426,-4.3426,-4.3426,-4.3443,-4.3545,-4.4212,-4.457,-4.457,-4.457,-4.457,-4.457,-4.457,-4.457,-4.457,-4.457,-4.3873,-4.2252,-4.1198,-4.0309,-3.9553,-3.9424,-3.9424,-3.9424,-3.9424,-3.9424,-3.9544,-3.9529,-3.9604,-3.9604,-3.9664,-3.9343,-3.8568,-3.8145,-3.7296,-3.5683,-3.4948,-3.4437,-3.3389,-3.329,-3.3081,-3.3081,-3.3081,-3.3106,-3.3219,-3.3345,-3.3395,-3.3294,-3.3244,-3.3244,-3.3294,-3.3244,-3.3282,-3.3319,-3.3232,-3.3232,-3.3206,-3.3144,-3.3081,-3.3081,-3.3081,-3.3081,-3.3081,-3.3081,-3.3081,-3.3081,-3.3081,-3.3081,-3.3081,-3.3081,-3.3081,-3.3081,-3.3081,-3.3081,-4.7084,-4.6486,-4.5514,-4.4464,-4.3566,-4.3479,-4.4232,-4.5369,-4.5406,-4.6305,-4.7719,-4.781,-4.8012,-4.8324,-4.8324,-4.7797,-4.6999,-4.6571,-4.5982,-4.5142,-4.4759,-4.457,-4.457,-4.457,-4.457,-4.457,-4.457,-4.457,-4.457,-4.457,-4.457,-4.457,-4.457,-4.457,-4.457,-4.457,-4.457,-4.457,-4.457,-4.4384,-4.3873,-4.3502,-4.3306,-4.3229,-4.2785,-4.3108,-4.3931,-4.3948,-4.4064,-4.4514,-4.457,-4.457,-4.457,-4.457,-4.457,-4.4514,-4.3604,-4.2769,-4.2062,-4.0706,-3.9809,-3.9409,-3.9424,-3.9424,-3.9424,-3.9424,-3.9424,-3.9424,-3.9424,-3.9424,-3.9424,-3.9424,-3.8943,-3.7994,-3.7266,-3.6304,-3.4897,-3.4121,-3.3556,-3.3167,-3.3081,-3.3081,-3.3081,-3.3081,-3.3081,-3.3081,-3.3081,-3.3081,-3.3081,-3.3081,-3.3081,-3.3081,-3.3081,-3.3081,-3.3081,-3.3081,-3.3081,-3.3081,-3.3081,-3.3081,-3.3081,-3.3081,-3.3081,-3.3081,-3.3081,-3.3081,-3.3081,-3.3081,-3.3081,-3.3081,-3.3081,-3.3081,-3.3081,-3.3081,-3.3081,-4.6262,-4.5741,-4.4952,-4.4309,-4.3881,-4.4066,-4.4929,-4.614,-4.625,-4.7021,-4.8251,-4.8324,-4.8324,-4.8324,-4.8324,-4.7995,-4.7385,-4.671,-4.6046,-4.5459,-4.4852,-4.457,-4.457,-4.457,-4.457,-4.457,-4.457,-4.457,-4.457,-4.457,-4.457,-4.457,-4.457,-4.457,-4.457,-4.4384,-4.4253,-4.4212,-4.4047,-4.3469,-4.2707,-4.2583,-4.2583,-4.252,-4.1997,-4.2379,-4.3798,-4.3486,-4.368,-4.457,-4.457,-4.457,-4.457,-4.457,-4.457,-4.4497,-4.3426,-4.2504,-4.2062,-4.0826,-3.9864,-3.9496,-3.9424,-3.9424,-3.9424,-3.9424,-3.9424,-3.9424,-3.9424,-3.9424,-3.9424,-3.9424,-3.8855,-3.7587,-3.6604,-3.5748,-3.4428,-3.3471,-3.3167,-3.3081,-3.3081,-3.3081,-3.3081,-3.3081,-3.3081,-3.3081,-3.3081,-3.3081,-3.3081,-3.3081,-3.3081,-3.3081,-3.3081,-3.3081,-3.3081,-3.3081,-3.3081,-3.3081,-3.3081,-3.3081,-3.3081,-3.3081,-3.3081,-3.3081,-3.3081,-3.3081,-3.3081,-3.3081,-3.3081,-3.3081,-3.3081,-3.3081,-3.3081,-3.3081,-3.3081,-4.526,-4.4742,-4.4707,-4.4722,-4.4709,-4.5406,-4.6214,-4.6985,-4.6984,-4.7535,-4.8251,-4.8324,-4.8324,-4.8324,-4.8324,-4.7995,-4.7385,-4.671,-4.6046,-4.5459,-4.4852,-4.457,-4.457,-4.457,-4.457,-4.457,-4.457,-4.457,-4.457,-4.457,-4.457,-4.457,-4.457,-4.457,-4.4514,-4.3889,-4.3366,-4.3366,-4.2769,-4.1788,-4.1013,-4.0878,-4.0961,-4.0894,-4.0811,-4.128,-4.2189,-4.2925,-4.3697,-4.457,-4.457,-4.457,-4.457,-4.457,-4.457,-4.4497,-4.4423,-4.3621,-4.2189,-4.1674,-4.1028,-3.9681,-3.9424,-3.9424,-3.9424,-3.9424,-3.9424,-3.9424,-3.9424,-3.9424,-3.9409,-3.9265,-3.8442,-3.6696,-3.6277,-3.5278,-3.3484,-3.324,-3.3081,-3.3081,-3.3081,-3.3081,-3.3081,-3.3081,-3.3081,-3.3081,-3.3081,-3.3081,-3.3081,-3.3081,-3.3081,-3.3081,-3.3081,-3.3081,-3.3081,-3.3081,-3.3081,-3.3081,-3.3081,-3.3081,-3.3081,-3.3081,-3.3081,-3.3081,-3.3081,-3.3081,-3.3081,-3.3081,-3.3081,-3.3081,-3.3081,-3.3081,-3.3081,-3.3081,-3.3081,-4.5222,-4.4731,-4.5752,-4.5621,-4.48,-4.5553,-4.6361,-4.7057,-4.7075,-4.7572,-4.8214,-4.8324,-4.8324,-4.8324,-4.8324,-4.7995,-4.7385,-4.671,-4.6046,-4.5459,-4.4852,-4.457,-4.457,-4.457,-4.457,-4.457,-4.457,-4.457,-4.457,-4.457,-4.457,-4.457,-4.457,-4.457,-4.4514,-4.4327,-4.3873,-4.3306,-4.297,-4.2141,-4.0779,-4.069,-4.0432,-3.992,-4.0432,-4.1396,-4.2785,-4.3108,-4.3697,-4.457,-4.457,-4.457,-4.457,-4.457,-4.4327,-4.3798,-4.3229,-4.2442,-4.1346,-4.0638,-4.006,-3.9553,-3.9424,-3.9424,-3.9424,-3.9424,-3.9424,-3.9424,-3.9424,-3.9424,-3.9265,-3.8782,-3.78,-3.6448,-3.5588,-3.4733,-3.3556,-3.3081,-3.3081,-3.3081,-3.3081,-3.3081,-3.3081,-3.3081,-3.3081,-3.3081,-3.3081,-3.3081,-3.3081,-3.3081,-3.3081,-3.3081,-3.3081,-3.3081,-3.3081,-3.3081,-3.3081,-3.3081,-3.3081,-3.3081,-3.3081,-3.3081,-3.3081,-3.3081,-3.3081,-3.3081,-3.3081,-3.3081,-3.3081,-3.3081,-3.3081,-3.3081,-3.3081,-3.3081,-3.3081,-4.5347,-4.4926,-4.6478,-4.6395,-4.5277,-4.6214,-4.6985,-4.7498,-4.7517,-4.781,-4.8251,-4.8324,-4.8324,-4.8324,-4.8324,-4.7995,-4.7385,-4.671,-4.6174,-4.5732,-4.4944,-4.457,-4.4536,-4.4333,-4.4215,-4.4147,-4.3944,-4.3842,-4.3859,-4.3842,-4.3826,-4.3809,-4.3842,-4.3842,-4.3842,-4.3603,-4.304,-4.2343,-4.1963,-4.1055,-3.9853,-3.9649,-3.9528,-3.9352,-3.9988,-4.1165,-4.2798,-4.3108,-4.368,-4.444,-4.457,-4.457,-4.457,-4.457,-4.4327,-4.3739,-4.2892,-4.2062,-4.1147,-4.0309,-3.9737,-3.9424,-3.9424,-3.9424,-3.9424,-3.9424,-3.9424,-3.9424,-3.9424,-3.9337,-3.8782,-3.7904,-3.7021,-3.6212,-3.5278,-3.4275,-3.324,-3.3081,-3.3081,-3.3081,-3.3081,-3.3081,-3.3081,-3.3081,-3.3081,-3.3081,-3.3081,-3.3081,-3.3081,-3.3081,-3.3081,-3.3081,-3.3081,-3.3081,-3.3081,-3.3081,-3.3081,-3.3081,-3.3081,-3.3081,-3.3081,-3.3081,-3.3081,-3.3081,-3.3081,-3.3081,-3.3081,-3.3081,-3.3081,-3.3081,-3.3081,-3.3081,-3.3081,-3.3081,-3.3081,-4.5665,-4.5006,-4.6831,-4.7003,-4.6177,-4.7462,-4.8233,-4.8214,-4.8251,-4.8233,-4.8324,-4.8324,-4.8324,-4.8324,-4.8324,-4.7995,-4.7409,-4.6667,-4.6212,-4.6038,-4.5075,-4.4473,-4.4389,-4.3707,-4.342,-4.3386,-4.2692,-4.2388,-4.2506,-4.254,-4.2506,-4.2405,-4.2506,-4.2591,-4.2371,-4.1855,-4.0909,-4.0244,-3.9566,-3.8569,-3.7556,-3.7623,-3.7978,-3.8569,-3.9377,-4.0497,-4.1885,-4.2811,-4.3639,-4.4373,-4.4553,-4.457,-4.457,-4.457,-4.457,-4.4327,-4.3621,-4.2847,-4.1933,-4.0946,-4.0045,-3.9538,-3.9424,-3.9424,-3.9424,-3.9424,-3.9424,-3.9424,-3.9352,-3.9031,-3.7994,-3.7007,-3.629,-3.6039,-3.5129,-3.4108,-3.3398,-3.3081,-3.3081,-3.3081,-3.3081,-3.3081,-3.3081,-3.3081,-3.3081,-3.3081,-3.3081,-3.3081,-3.3081,-3.3081,-3.3081,-3.3081,-3.3081,-3.3081,-3.3081,-3.3081,-3.3081,-3.3081,-3.3081,-3.3081,-3.3081,-3.3081,-3.3081,-3.3081,-3.3081,-3.3081,-3.3081,-3.3081,-3.3081,-3.3081,-3.3081,-3.3081,-3.3081,-3.3081,-3.3081,-4.6202,-4.5674,-4.7306,-4.7537,-4.6893,-4.7865,-4.8324,-4.8324,-4.8324,-4.8324,-4.8324,-4.8324,-4.8324,-4.8324,-4.8324,-4.821,-4.7901,-4.6444,-4.5446,-4.5012,-4.4612,-4.3938,-4.3155,-4.276,-4.2625,-4.2608,-4.2422,-4.2286,-4.2252,-4.2252,-4.2303,-4.2303,-4.2269,-4.2303,-4.2219,-4.1984,-4.1326,-4.0007,-3.964,-3.8838,-3.7526,-3.7389,-3.7526,-3.7849,-3.858,-3.9582,-4.0603,-4.2385,-4.3446,-4.3792,-4.4282,-4.457,-4.457,-4.457,-4.4327,-4.368,-4.2909,-4.2062,-4.1147,-4.0324,-3.9737,-3.9481,-3.9424,-3.9424,-3.9424,-3.9424,-3.9424,-3.9424,-3.9352,-3.8958,-3.7919,-3.6852,-3.5894,-3.5197,-3.4262,-3.3556,-3.324,-3.3081,-3.3081,-3.3081,-3.3081,-3.3081,-3.3081,-3.3081,-3.3068,-3.3031,-3.3031,-3.3043,-3.3043,-3.2955,-3.3081,-3.3081,-3.3081,-3.293,-3.2817,-3.2767,-3.2805,-3.2918,-3.3006,-3.3068,-3.3081,-3.3081,-3.3081,-3.3081,-3.3081,-3.3081,-3.3081,-3.3081,-3.3081,-3.3081,-3.3081,-3.3081,-3.3081,-3.3081,-3.3081,-4.6653,-4.641,-4.7646,-4.7778,-4.7242,-4.7976,-4.8324,-4.8324,-4.8324,-4.8324,-4.8324,-4.8324,-4.8324,-4.8324,-4.8324,-4.8007,-4.7463,-4.6162,-4.4915,-4.3756,-4.3614,-4.3082,-4.2306,-4.1999,-4.1694,-4.1491,-4.1474,-4.1457,-4.1474,-4.1474,-4.1457,-4.1457,-4.1474,-4.1441,-4.1457,-4.1474,-4.0696,-3.9355,-3.9086,-3.8325,-3.7056,-3.6701,-3.682,-3.7157,-3.7964,-3.874,-3.9622,-4.1522,-4.2726,-4.3064,-4.3724,-4.413,-4.4164,-4.4384,-4.4196,-4.3366,-4.252,-4.1674,-4.0758,-3.992,-3.9424,-3.9424,-3.9424,-3.9424,-3.9424,-3.9424,-3.9424,-3.9424,-3.9017,-3.8383,-3.7266,-3.6225,-3.5197,-3.4178,-3.3543,-3.3167,-3.3081,-3.3081,-3.3081,-3.3081,-3.3081,-3.3081,-3.3081,-3.3081,-3.2968,-3.2842,-3.2754,-3.2604,-3.2541,-3.2403,-3.26,-3.2735,-3.2584,-3.2424,-3.239,-3.2428,-3.2491,-3.2692,-3.2905,-3.3006,-3.3081,-3.3081,-3.3081,-3.3081,-3.3081,-3.3081,-3.3081,-3.3081,-3.3081,-3.3081,-3.3081,-3.3081,-3.3081,-3.3081,-3.3081,-4.6994,-4.7154,-4.7862,-4.782,-4.7352,-4.8012,-4.8324,-4.8324,-4.8324,-4.8324,-4.8324,-4.8324,-4.8251,-4.8214,-4.8122,-4.7508,-4.6413,-4.5983,-4.4634,-4.2975,-4.2379,-4.2123,-4.1847,-4.1373,-4.0865,-4.0358,-4.0257,-4.0206,-4.0341,-4.0324,-4.0087,-4.0273,-4.0307,-4.0138,-4.0307,-4.0121,-3.9568,-3.8359,-3.8065,-3.7317,-3.5982,-3.5823,-3.6113,-3.68,-3.748,-3.8212,-3.9112,-4.0464,-4.1593,-4.2269,-4.3014,-4.3403,-4.3555,-4.413,-4.4061,-4.3317,-4.2458,-4.1609,-4.0758,-3.9864,-3.9424,-3.9424,-3.9424,-3.9424,-3.9424,-3.9424,-3.9424,-3.9337,-3.8708,-3.7587,-3.654,-3.5588,-3.4555,-3.3335,-3.3104,-3.3068,-3.3081,-3.3043,-3.293,-3.2943,-3.3006,-3.2955,-3.2817,-3.283,-3.2616,-3.2328,-3.2164,-3.1976,-3.1763,-3.1807,-3.2028,-3.2066,-3.2003,-3.163,-3.1502,-3.1913,-3.1976,-3.2139,-3.2428,-3.2679,-3.2968,-3.3056,-3.3081,-3.3081,-3.3081,-3.3081,-3.3081,-3.3081,-3.3081,-3.3081,-3.3081,-3.3081,-3.3081,-3.3068,-3.3031,-4.7547,-4.7872,-4.7847,-4.7874,-4.7995,-4.8251,-4.8324,-4.8324,-4.8324,-4.8324,-4.8306,-4.8324,-4.7957,-4.748,-4.7425,-4.6909,-4.5931,-4.5022,-4.405,-4.2785,-4.166,-4.1064,-4.0731,-4.0493,-4.0307,-4.0087,-4.0087,-4.0087,-4.0087,-4.0087,-4.0087,-4.0087,-4.0087,-4.0087,-4.0087,-4.0087,-3.961,-3.8761,-3.858,-3.8133,-3.7354,-3.7115,-3.7294,-3.7456,-3.769,-3.8206,-3.8908,-3.9847,-4.1001,-4.2168,-4.2439,-4.2861,-4.3284,-4.3589,-4.3501,-4.3092,-4.2409,-4.1577,-4.0743,-3.9864,-3.9409,-3.9424,-3.9424,-3.9424,-3.9424,-3.9424,-3.9424,-3.9337,-3.9031,-3.813,-3.6604,-3.5867,-3.4684,-3.2962,-3.2729,-3.298,-3.2943,-3.2692,-3.2428,-3.2403,-3.2102,-3.1964,-3.1938,-3.1926,-3.1851,-3.1662,-3.1587,-3.1512,-3.1248,-3.1198,-3.1491,-3.1574,-3.1461,-3.0897,-3.0741,-3.116,-3.1449,-3.1562,-3.1825,-3.2164,-3.2579,-3.298,-3.3031,-3.3081,-3.3081,-3.3081,-3.3081,-3.3081,-3.3081,-3.3081,-3.2993,-3.2955,-3.3031,-3.3043,-3.3054,-4.8128,-4.8683,-4.8145,-4.8054,-4.8307,-4.8324,-4.8324,-4.8324,-4.8324,-4.8324,-4.8251,-4.7939,-4.7553,-4.7075,-4.6764,-4.6029,-4.5018,-4.424,-4.3386,-4.2395,-4.1405,-4.0693,-4.0238,-4.0087,-4.0087,-4.0087,-4.0087,-4.0087,-4.0087,-4.0087,-4.0087,-4.0087,-4.0087,-4.0087,-4.0087,-4.007,-3.9714,-3.9032,-3.887,-3.8541,-3.7863,-3.7822,-3.7822,-3.7863,-3.8092,-3.8652,-3.9385,-3.985,-4.0527,-4.1255,-4.166,-4.2049,-4.2455,-4.2811,-4.2601,-4.201,-4.1641,-4.1035,-4.0009,-3.947,-3.9409,-3.9424,-3.9424,-3.9424,-3.9424,-3.9424,-3.9424,-3.9352,-3.8679,-3.7482,-3.6392,-3.5277,-3.3773,-3.225,-3.2164,-3.2365,-3.2365,-3.2051,-3.1876,-3.1775,-3.1599,-3.1386,-3.1373,-3.1361,-3.126,-3.1135,-3.106,-3.0909,-3.0708,-3.0771,-3.0783,-3.0859,-3.0846,-3.0436,-3.0164,-3.0528,-3.0871,-3.0997,-3.126,-3.1599,-3.1964,-3.2528,-3.295,-3.2988,-3.3054,-3.3031,-3.2943,-3.2955,-3.3081,-3.3031,-3.2905,-3.2742,-3.2717,-3.2874,-3.2836,-4.8747,-4.9418,-4.8616,-4.8287,-4.8327,-4.8324,-4.8324,-4.8288,-4.8141,-4.8122,-4.7957,-4.7315,-4.6856,-4.68,-4.6012,-4.5076,-4.3932,-4.3862,-4.3014,-4.2041,-4.1105,-4.048,-4.0171,-4.0087,-4.0087,-4.0087,-4.0087,-4.0087,-4.0087,-4.0087,-4.0087,-4.0087,-4.0087,-4.0087,-4.0087,-4.007,-3.9714,-3.9246,-3.9156,-3.8924,-3.843,-3.8318,-3.8318,-3.843,-3.8761,-3.9332,-3.985,-4.0087,-4.0172,-4.0104,-4.0747,-4.1136,-4.1305,-4.1914,-4.1477,-4.0545,-4.0495,-4.0083,-3.8735,-3.8822,-3.911,-3.9035,-3.9065,-3.9215,-3.905,-3.8975,-3.899,-3.896,-3.7433,-3.6564,-3.5641,-3.3763,-3.2219,-3.1461,-3.1348,-3.1311,-3.1248,-3.1273,-3.1311,-3.1286,-3.1273,-3.1223,-3.1223,-3.1185,-3.1022,-3.057,-3.0507,-3.0407,-3.0256,-3.0218,-3.0168,-3.0093,-3.003,-2.9905,-2.9867,-2.9892,-3.0193,-3.0444,-3.0721,-3.1009,-3.116,-3.1719,-3.2402,-3.2751,-3.2693,-3.26,-3.2566,-3.2679,-3.2792,-3.2654,-3.229,-3.219,-3.2139,-3.2364,-3.2422,-4.9607,-4.9475,-4.8933,-4.8577,-4.8326,-4.8324,-4.8306,-4.8233,-4.7627,-4.7425,-4.7186,-4.6526,-4.5847,-4.5296,-4.5057,-4.4436,-4.3669,-4.3524,-4.2918,-4.1778,-4.072,-4.0286,-4.0087,-4.0087,-4.0087,-4.0087,-4.0087,-4.0087,-4.0087,-4.0087,-4.0087,-4.0087,-4.0087,-4.0087,-4.0087,-4.007,-4.007,-3.9833,-3.9833,-3.9679,-3.9558,-3.9454,-3.9454,-3.9506,-3.9662,-3.985,-4.002,-4.0087,-4.0087,-4.0121,-4.0273,-4.0629,-4.1052,-4.1322,-4.0862,-4.0097,-3.9856,-3.9376,-3.8054,-3.7808,-3.7868,-3.7973,-3.8003,-3.7838,-3.7838,-3.7913,-3.7898,-3.7769,-3.7375,-3.6198,-3.4692,-3.2802,-3.1529,-3.0934,-3.0771,-3.0633,-3.0331,-3.052,-3.0758,-3.0708,-3.0457,-3.0156,-3.0168,-3.0244,-3.0143,-2.998,-2.9967,-2.9917,-2.9854,-2.9792,-2.9779,-2.9779,-2.9779,-2.9779,-2.9779,-2.9779,-2.9917,-3.0093,-3.0294,-3.0444,-3.0595,-3.0859,-3.1574,-3.1946,-3.2168,-3.2104,-3.2077,-3.1938,-3.1964,-3.18,-3.1712,-3.1637,-3.1656,-3.1795,-3.1737,-5.0178,-4.9746,-4.9337,-4.8963,-4.8604,-4.8402,-4.8086,-4.7719,-4.7315,-4.6893,-4.6416,-4.57,-4.5094,-4.4672,-4.4305,-4.3864,-4.3501,-4.3214,-4.2675,-4.1768,-4.0891,-4.0368,-4.0121,-4.0087,-4.0087,-4.007,-4.0087,-4.0087,-4.0087,-4.0087,-4.0087,-4.0087,-4.0087,-4.0087,-4.0087,-4.0087,-4.007,-4.007,-4.0087,-4.0087,-4.0087,-4.0087,-4.0087,-4.0087,-4.0087,-4.0087,-4.0087,-4.0087,-4.0087,-4.0087,-4.0087,-4.0223,-4.0561,-4.0679,-4.0093,-3.9198,-3.9218,-3.8592,-3.7476,-3.724,-3.7434,-3.7375,-3.7389,-3.7404,-3.7404,-3.7404,-3.7404,-3.7168,-3.6426,-3.5088,-3.2938,-3.1927,-3.0851,-3.0382,-3.0231,-3.0093,-2.9917,-3.0055,-3.0218,-3.0181,-3.0018,-2.988,-2.9792,-2.9779,-2.9792,-2.9892,-2.9892,-2.9842,-2.9842,-2.9779,-2.9779,-2.9779,-2.9779,-2.9779,-2.9779,-2.9779,-2.9779,-2.988,-2.9955,-3.0018,-3.0093,-3.0382,-3.0788,-3.104,-3.136,-3.1518,-3.1442,-3.1348,-3.1286,-3.1411,-3.1373,-3.116,-3.0959,-3.0968,-3.0817,-5.0462,-5.0068,-4.9746,-4.9251,-4.871,-4.8328,-4.7684,-4.6966,-4.6783,-4.6232,-4.5663,-4.4874,-4.447,-4.436,-4.3846,-4.3516,-4.3321,-4.279,-4.2203,-4.175,-4.0967,-4.0449,-4.0137,-3.9918,-3.98,-3.9918,-4.0037,-4.007,-4.0087,-4.0087,-4.0087,-4.0087,-4.0087,-4.0087,-4.0087,-4.0087,-4.0087,-4.0087,-4.0087,-4.0087,-4.0087,-4.0087,-4.0087,-4.0087,-4.0087,-4.0087,-4.0087,-4.0087,-4.0087,-4.0087,-4.0087,-4.0087,-4.0087,-4.002,-3.9506,-3.8157,-3.8547,-3.7932,-3.6968,-3.6835,-3.6985,-3.712,-3.7075,-3.706,-3.703,-3.6941,-3.6926,-3.6365,-3.5424,-3.3498,-3.1189,-3.0628,-3.0347,-2.9955,-2.9804,-2.9779,-2.9779,-2.9779,-2.9842,-2.9842,-2.9842,-2.9804,-2.9779,-2.9779,-2.9779,-2.9779,-2.9779,-2.9779,-2.9779,-2.9779,-2.9779,-2.9779,-2.9779,-2.9779,-2.9779,-2.9779,-2.9779,-2.9779,-2.9779,-2.9779,-2.9779,-2.9993,-3.0294,-3.0223,-3.0436,-3.0661,-3.0841,-3.0703,-3.0834,-3.1047,-3.0922,-3.057,-3.0306,-3.0068,-3.0018,-5.0462,-5.0111,-5.0043,-4.9211,-4.7993,-4.7843,-4.7143,-4.6085,-4.5461,-4.5057,-4.4819,-4.4085,-4.3754,-4.3681,-4.3608,-4.3479,-4.3194,-4.2474,-4.1837,-4.1462,-4.0701,-4.005,-3.9799,-3.936,-3.9174,-3.9343,-3.9614,-3.9884,-3.9935,-4.0087,-3.9834,-3.9986,-3.9952,-3.9935,-3.9969,-4.007,-4.002,-4.007,-4.0087,-4.0087,-4.0087,-4.0087,-4.0087,-4.0087,-4.0087,-4.0087,-4.0087,-4.0087,-4.0087,-4.0087,-4.0087,-4.0087,-4.0087,-4.0087,-3.961,-3.8849,-3.831,-3.7757,-3.6785,-3.6148,-3.5914,-3.5818,-3.5953,-3.5923,-3.5908,-3.5842,-3.5911,-3.5324,-3.4196,-3.2681,-3.2355,-3.0866,-2.9995,-2.9792,-2.9779,-2.9779,-2.9779,-2.9779,-2.9779,-2.9779,-2.9779,-2.9779,-2.9779,-2.9779,-2.9779,-2.9779,-2.9779,-2.9779,-2.9779,-2.9779,-2.9779,-2.9779,-2.9779,-2.9779,-2.9779,-2.9779,-2.9779,-2.9779,-2.9779,-2.9779,-2.9779,-2.9779,-2.9827,-2.999,-2.999,-3.0065,-3.0181,-3.0218,-3.0244,-3.0382,-3.0168,-2.9955,-2.993,-2.9917,-2.988,-5.0316,-4.9729,-4.9534,-4.8713,-4.7646,-4.7193,-4.6475,-4.5552,-4.4943,-4.447,-4.4066,-4.3663,-4.3479,-4.3479,-4.3479,-4.3296,-4.2684,-4.2008,-4.1266,-4.0605,-3.9759,-3.9146,-3.9037,-3.8565,-3.8464,-3.8497,-3.8802,-3.8988,-3.8954,-3.892,-3.9039,-3.8954,-3.8971,-3.9123,-3.9445,-3.9478,-3.9732,-3.9918,-4.0037,-4.0054,-4.007,-4.007,-4.0087,-4.0087,-4.0087,-4.0087,-4.0087,-4.0087,-4.0087,-4.0087,-4.0087,-4.0087,-4.0087,-4.002,-3.9731,-3.9032,-3.8525,-3.779,-3.6828,-3.6228,-3.5988,-3.5584,-3.5489,-3.5489,-3.5489,-3.5469,-3.5067,-3.4041,-3.3463,-3.2177,-3.1145,-3.0279,-2.9934,-2.9779,-2.9779,-2.9779,-2.9779,-2.9779,-2.9779,-2.9779,-2.9779,-2.9779,-2.9779,-2.9779,-2.9779,-2.9779,-2.9779,-2.9779,-2.9779,-2.9779,-2.9779,-2.9779,-2.9779,-2.9779,-2.9779,-2.9779,-2.9779,-2.9779,-2.9779,-2.9779,-2.9779,-2.9779,-2.9779,-2.9854,-2.9792,-2.9779,-2.9829,-2.9993,-2.9854,-2.9779,-2.9829,-2.9854,-2.9817,-2.9792,-2.9779,-5.0029,-4.9356,-4.8862,-4.8117,-4.7229,-4.6552,-4.5761,-4.5003,-4.4552,-4.4085,-4.3552,-4.3479,-4.3479,-4.3424,-4.3204,-4.28,-4.2051,-4.1415,-4.0607,-3.986,-3.905,-3.8414,-3.8138,-3.7767,-3.7669,-3.7652,-3.7432,-3.7635,-3.8075,-3.8091,-3.7973,-3.8091,-3.7973,-3.8142,-3.8667,-3.8768,-3.9208,-3.9428,-3.9631,-3.9731,-3.9834,-4.0003,-4.0087,-4.0087,-4.0087,-4.0087,-4.0087,-4.0087,-4.0087,-4.0087,-4.0087,-4.0087,-4.0087,-4.0087,-3.9782,-3.9262,-3.9016,-3.8101,-3.7247,-3.6615,-3.6228,-3.5554,-3.5489,-3.5489,-3.5489,-3.5344,-3.4854,-3.331,-3.2593,-3.2033,-3.0771,-3.0011,-2.9779,-2.9779,-2.9779,-2.9779,-2.9779,-2.9779,-2.9779,-2.9779,-2.9779,-2.9779,-2.9779,-2.9779,-2.9779,-2.9779,-2.9779,-2.9779,-2.9779,-2.9779,-2.9779,-2.9779,-2.9779,-2.9779,-2.9779,-2.9779,-2.9779,-2.9779,-2.9779,-2.9779,-2.9779,-2.9779,-2.9779,-2.9779,-2.9779,-2.9779,-2.9779,-2.9779,-2.9779,-2.9779,-2.9779,-2.9779,-2.9779,-2.9779,-2.9779,-4.949,-4.9317,-4.851,-4.7508,-4.6485,-4.6025,-4.5218,-4.4228,-4.3867,-4.3608,-4.3479,-4.3442,-4.3406,-4.3204,-4.2653,-4.1992,-4.129,-4.0724,-4.0166,-3.9542,-3.8824,-3.8347,-3.8229,-3.7359,-3.6988,-3.684,-3.6315,-3.6755,-3.7364,-3.7669,-3.7787,-3.7736,-3.7652,-3.7939,-3.799,-3.8024,-3.8075,-3.8193,-3.8244,-3.8548,-3.9157,-3.9732,-3.9969,-4.007,-4.0087,-4.0087,-4.0087,-4.0087,-4.0087,-4.0087,-4.0087,-4.0087,-4.0087,-4.0087,-4.007,-3.9782,-3.9315,-3.8525,-3.7674,-3.698,-3.629,-3.5668,-3.5489,-3.5489,-3.5489,-3.5424,-3.5001,-3.4027,-3.3087,-3.2033,-3.0833,-3.0216,-2.9934,-2.9779,-2.9779,-2.9779,-2.9779,-2.9779,-2.9779,-2.9779,-2.9779,-2.9779,-2.9779,-2.9779,-2.9779,-2.9779,-2.9779,-2.9779,-2.9779,-2.9779,-2.9779,-2.9779,-2.9779,-2.9779,-2.9779,-2.9779,-2.9779,-2.9779,-2.9779,-2.9779,-2.9779,-2.9779,-2.9779,-2.9779,-2.9779,-2.9779,-2.9779,-2.9779,-2.9779,-2.9779,-2.9779,-2.9779,-2.9779,-2.9779,-2.9779,-4.7971,-4.7952,-4.7586,-4.6839,-4.5878,-4.5342,-4.4839,-4.4308,-4.3726,-4.3479,-4.3369,-4.2983,-4.2598,-4.2176,-4.1717,-4.1185,-4.0478,-4.013,-3.9408,-3.8705,-3.8078,-3.7547,-3.684,-3.6401,-3.6129,-3.6096,-3.5859,-3.591,-3.6535,-3.6671,-3.662,-3.6688,-3.6688,-3.684,-3.7212,-3.7263,-3.755,-3.7804,-3.799,-3.8311,-3.8886,-3.9292,-3.9648,-4.0087,-4.0054,-4.0054,-4.0087,-4.0087,-4.0087,-4.0087,-4.0087,-4.0087,-4.0087,-4.0087,-4.007,-4.007,-3.9782,-3.9049,-3.7921,-3.7084,-3.6352,-3.5733,-3.5489,-3.5489,-3.5489,-3.5424,-3.4773,-3.331,-3.289,-3.1974,-3.0833,-3.0062,-2.9934,-2.9779,-2.9779,-2.9779,-2.9779,-2.9779,-2.9779,-2.9779,-2.9779,-2.9779,-2.9779,-2.9779,-2.9779,-2.9779,-2.9779,-2.9779,-2.9779,-2.9779,-2.9779,-2.9779,-2.9779,-2.9779,-2.9779,-2.9779,-2.9779,-2.9779,-2.9779,-2.9779,-2.9779,-2.9779,-2.9779,-2.9779,-2.9779,-2.9779,-2.9779,-2.9779,-2.9779,-2.9779,-2.9779,-2.9779,-2.9779,-2.9779,-2.9779,-4.6567,-4.6567,-4.6586,-4.6182,-4.555,-4.4877,-4.458,-4.4501,-4.3823,-4.3369,-4.302,-4.2359,-4.157,-4.0965,-4.0763,-4.0377,-3.9625,-3.9588,-3.8712,-3.7793,-3.7135,-3.6731,-3.6268,-3.5807,-3.5673,-3.5639,-3.5673,-3.5723,-3.569,-3.5723,-3.5791,-3.5639,-3.5859,-3.6011,-3.6332,-3.6518,-3.6705,-3.7094,-3.7415,-3.7804,-3.8261,-3.8599,-3.9123,-3.9546,-3.9817,-3.9884,-4.0054,-4.0087,-4.0087,-4.0087,-4.0087,-4.0087,-4.0087,-4.0087,-4.0087,-4.002,-3.9782,-3.9209,-3.8246,-3.744,-3.6585,-3.6022,-3.5554,-3.5489,-3.5489,-3.5424,-3.4691,-3.2876,-3.2664,-3.1623,-3.0355,-2.9779,-2.9779,-2.9779,-2.9779,-2.9779,-2.9779,-2.9779,-2.9779,-2.9779,-2.9779,-2.9779,-2.9779,-2.9779,-2.9779,-2.9779,-2.9779,-2.9779,-2.9779,-2.9779,-2.9779,-2.9779,-2.9779,-2.9779,-2.9779,-2.9779,-2.9779,-2.9779,-2.9779,-2.9779,-2.9779,-2.9779,-2.9779,-2.9779,-2.9779,-2.9779,-2.9779,-2.9779,-2.9779,-2.9779,-2.9779,-2.9779,-2.9779,-2.9779,-2.9754,-4.5663,-4.5682,-4.5701,-4.5682,-4.5531,-4.4896,-4.458,-4.4388,-4.3767,-4.2965,-4.2194,-4.1534,-4.0726,-4.0139,-3.9918,-3.957,-3.8836,-3.8799,-3.834,-3.7809,-3.7396,-3.6786,-3.6207,-3.5783,-3.5639,-3.5639,-3.5639,-3.5639,-3.5639,-3.5639,-3.5639,-3.5639,-3.5639,-3.5656,-3.5774,-3.5926,-3.5926,-3.6248,-3.6569,-3.6907,-3.728,-3.7702,-3.8393,-3.8952,-3.9172,-3.936,-4.0053,-4.0187,-4.0204,-4.0204,-4.0121,-4.0087,-4.0087,-4.0087,-4.0087,-4.002,-3.9662,-3.9156,-3.858,-3.7847,-3.7219,-3.6585,-3.5943,-3.5489,-3.5489,-3.5424,-3.4476,-3.2876,-3.2451,-3.1549,-3.0419,-2.9779,-2.9779,-2.9779,-2.9779,-2.9779,-2.9779,-2.9779,-2.9779,-2.9779,-2.9779,-2.9779,-2.9779,-2.9779,-2.9779,-2.9779,-2.9779,-2.9779,-2.9779,-2.9779,-2.9779,-2.9779,-2.9779,-2.9779,-2.9779,-2.9779,-2.9779,-2.9779,-2.9779,-2.9779,-2.9779,-2.9779,-2.9779,-2.9779,-2.9779,-2.9779,-2.9779,-2.9779,-2.9779,-2.9779,-2.9702,-2.9534,-2.9611,-2.9779,-2.9729,-4.5586,-4.5586,-4.54,-4.5302,-4.5282,-4.4781,-4.4173,-4.3483,-4.2955,-4.2011,-4.0836,-4.0451,-3.9918,-3.935,-3.9148,-3.9019,-3.8726,-3.8707,-3.8201,-3.7667,-3.721,-3.6666,-3.6122,-3.5783,-3.5639,-3.5639,-3.5639,-3.5639,-3.5639,-3.5639,-3.5639,-3.5639,-3.5639,-3.5639,-3.5639,-3.5639,-3.5639,-3.5673,-3.5943,-3.6248,-3.6806,-3.7055,-3.7721,-3.8643,-3.9341,-3.9761,-4.0325,-4.0543,-4.0586,-4.0463,-4.0203,-4.0087,-4.0087,-4.0087,-4.0087,-4.0087,-3.9731,-3.9437,-3.8745,-3.7831,-3.6753,-3.6133,-3.5668,-3.5489,-3.5424,-3.4971,-3.4041,-3.289,-3.2105,-3.1119,-3.0139,-2.9779,-2.9779,-2.9779,-2.9779,-2.9779,-2.9779,-2.9779,-2.9779,-2.9779,-2.9779,-2.9779,-2.9779,-2.9779,-2.9779,-2.9779,-2.9779,-2.9779,-2.9779,-2.9779,-2.9779,-2.9779,-2.9779,-2.9779,-2.9779,-2.9779,-2.9779,-2.9779,-2.9779,-2.9611,-2.9534,-2.9779,-2.9779,-2.9779,-2.9702,-2.9702,-2.9702,-2.9779,-2.9779,-2.9779,-2.9443,-2.9015,-2.9275,-2.9549,-2.9349,-4.5586,-4.5568,-4.5323,-4.5182,-4.5014,-4.4348,-4.3596,-4.2805,-4.2189,-4.1203,-3.9882,-3.9662,-3.9258,-3.8817,-3.8707,-3.8726,-3.8707,-3.8627,-3.8135,-3.7667,-3.721,-3.6666,-3.6097,-3.5694,-3.5639,-3.5639,-3.5639,-3.5639,-3.5639,-3.5639,-3.5639,-3.5639,-3.5639,-3.5639,-3.5639,-3.5639,-3.5639,-3.5639,-3.569,-3.5825,-3.64,-3.648,-3.6881,-3.7854,-3.8448,-3.8935,-3.9392,-3.9623,-3.9907,-3.9935,-3.9912,-3.9901,-3.9986,-4.0087,-4.0087,-4.0087,-4.002,-3.9782,-3.9032,-3.7658,-3.6337,-3.5718,-3.5554,-3.5489,-3.5264,-3.4543,-3.3671,-3.2749,-3.1756,-3.0833,-2.9934,-2.9779,-2.9779,-2.9779,-2.9779,-2.9779,-2.9779,-2.9779,-2.9779,-2.9779,-2.9779,-2.9779,-2.9702,-2.9702,-2.9624,-2.9702,-2.9779,-2.9779,-2.9779,-2.9779,-2.9779,-2.9779,-2.9779,-2.9779,-2.9779,-2.9779,-2.9779,-2.9534,-2.9443,-2.9106,-2.9106,-2.9365,-2.9365,-2.9015,-2.9106,-2.9365,-2.9443,-2.9353,-2.9521,-2.9792,-2.9419,-2.9045,-2.8354,-2.8565,-2.8319,-4.5586,-4.5586,-4.553,-4.5323,-4.484,-4.349,-4.2827,-4.2374,-4.147,-4.0561,-3.9717,-3.9129,-3.8817,-3.8707,-3.8707,-3.8707,-3.8707,-3.8676,-3.8318,-3.7738,-3.7323,-3.6825,-3.6291,-3.5871,-3.5639,-3.5639,-3.5639,-3.5639,-3.5639,-3.5639,-3.5639,-3.5639,-3.5639,-3.5639,-3.5639,-3.5639,-3.5639,-3.5639,-3.5639,-3.5707,-3.5774,-3.5808,-3.6305,-3.6877,-3.7393,-3.794,-3.8481,-3.8706,-3.8961,-3.9255,-3.9319,-3.9477,-3.9834,-4.002,-4.0087,-4.0087,-4.0087,-4.002,-3.9799,-3.7758,-3.6446,-3.5668,-3.5489,-3.5424,-3.5213,-3.4476,-3.3463,-3.2321,-3.1536,-3.0709,-3.0139,-2.9779,-2.9779,-2.9779,-2.9779,-2.9779,-2.9779,-2.9779,-2.9779,-2.9365,-2.9534,-2.9714,-2.9702,-2.9624,-2.9456,-2.9534,-2.9702,-2.9779,-2.9702,-2.9792,-2.9792,-2.9779,-2.9779,-2.9779,-2.9779,-2.9779,-2.9702,-2.9534,-2.9365,-2.9184,-2.8767,-2.8621,-2.853,-2.8255,-2.8676,-2.9197,-2.9015,-2.8834,-2.8572,-2.839,-2.9437,-2.9207,-2.8289,-2.7669,-2.7702,-4.5586,-4.5528,-4.4729,-4.4198,-4.3867,-4.3359,-4.2315,-4.0898,-3.9926,-3.935,-3.9111,-3.8781,-3.8707,-3.8707,-3.8707,-3.8707,-3.8707,-3.8658,-3.835,-3.7506,-3.7248,-3.6603,-3.6054,-3.5783,-3.5639,-3.5639,-3.5639,-3.5639,-3.5639,-3.5639,-3.5639,-3.5639,-3.5639,-3.5639,-3.5639,-3.5639,-3.5639,-3.5639,-3.5639,-3.5639,-3.5639,-3.5639,-3.5875,-3.6534,-3.6955,-3.7447,-3.7958,-3.8006,-3.8271,-3.8653,-3.8755,-3.9089,-3.9512,-3.9715,-4.0087,-4.007,-4.007,-3.9558,-3.8707,-3.7203,-3.6337,-3.5782,-3.5489,-3.5198,-3.4543,-3.3616,-3.2678,-3.1815,-3.0983,-3.0292,-2.9869,-2.9792,-2.9779,-2.9779,-2.9779,-2.9779,-2.9779,-2.9779,-2.9624,-2.8858,-2.8688,-2.8211,-2.8039,-2.8303,-2.8303,-2.8542,-2.8712,-2.9287,-2.9378,-2.9636,-2.9804,-2.9792,-2.9779,-2.9779,-2.9702,-2.9287,-2.9209,-2.9118,-2.9287,-2.9611,-2.9118,-2.7879,-2.7888,-2.7669,-2.839,-2.8949,-2.8052,-2.7249,-2.6823,-2.6886,-2.7794,-2.8307,-2.7488,-2.7371,-2.7766,-4.5413,-4.5049,-4.4308,-4.3373,-4.2535,-4.2328,-4.1176,-3.9559,-3.8927,-3.8707,-3.8707,-3.8707,-3.8707,-3.8707,-3.8707,-3.8707,-3.8707,-3.8658,-3.835,-3.747,-3.7266,-3.6724,-3.6139,-3.5667,-3.5622,-3.5639,-3.5639,-3.5639,-3.5639,-3.5639,-3.5639,-3.5639,-3.5639,-3.5639,-3.5639,-3.5639,-3.5639,-3.5639,-3.5639,-3.5639,-3.5639,-3.5667,-3.5739,-3.6139,-3.6552,-3.6991,-3.7307,-3.7594,-3.7799,-3.8042,-3.8406,-3.8734,-3.9073,-3.9597,-4.002,-4.007,-3.9662,-3.9049,-3.8035,-3.7084,-3.6275,-3.5604,-3.5489,-3.5198,-3.4327,-3.3463,-3.2678,-3.1683,-3.0495,-2.9998,-2.9792,-2.9779,-2.9779,-2.9779,-2.9779,-2.9779,-2.9702,-2.9702,-2.9028,-2.8267,-2.7441,-2.6871,-2.6554,-2.6719,-2.6976,-2.7302,-2.7718,-2.8187,-2.8779,-2.9204,-2.9155,-2.8991,-2.8694,-2.8306,-2.8207,-2.8223,-2.8303,-2.8554,-2.8639,-2.8621,-2.7533,-2.6119,-2.6606,-2.6864,-2.6462,-2.6234,-2.612,-2.5666,-2.5464,-2.5561,-2.603,-2.6403,-2.6363,-2.6576,-2.6858,-4.5047,-4.4316,-4.422,-4.289,-4.1099,-4.0603,-3.9682,-3.8744,-3.8726,-3.8707,-3.8707,-3.8707,-3.8707,-3.8707,-3.8707,-3.8707,-3.8627,-3.8627,-3.8201,-3.772,-3.721,-3.6706,-3.6207,-3.581,-3.5667,-3.5639,-3.5639,-3.5639,-3.5639,-3.5639,-3.5639,-3.5639,-3.5639,-3.5639,-3.5639,-3.5639,-3.5639,-3.5639,-3.5639,-3.5639,-3.5639,-3.5622,-3.5667,-3.5807,-3.5936,-3.6031,-3.611,-3.6123,-3.6384,-3.6831,-3.7449,-3.8176,-3.8886,-3.9648,-3.9901,-3.985,-3.9262,-3.8596,-3.769,-3.6859,-3.629,-3.5604,-3.5344,-3.5359,-3.4691,-3.3325,-3.2464,-3.1549,-3.057,-3.0139,-2.9779,-2.9779,-2.9779,-2.9779,-2.9779,-2.9702,-2.9624,-2.9197,-2.8426,-2.751,-2.6625,-2.5964,-2.5724,-2.5808,-2.5565,-2.5518,-2.5711,-2.5694,-2.654,-2.8438,-2.817,-2.7417,-2.7013,-2.6425,-2.6447,-2.6749,-2.6966,-2.7144,-2.6462,-2.6127,-2.5163,-2.4934,-2.5453,-2.5282,-2.3937,-2.3617,-2.4458,-2.4657,-2.4415,-2.4447,-2.4171,-2.4559,-2.4607,-2.4746,-2.4853,-4.4201,-4.3412,-4.2777,-4.1877,-4.0806,-3.9658,-3.8983,-3.8707,-3.8707,-3.8707,-3.8707,-3.8707,-3.8707,-3.8707,-3.8707,-3.8707,-3.8546,-3.8267,-3.7843,-3.7396,-3.6943,-3.6374,-3.5985,-3.5694,-3.5639,-3.5639,-3.5639,-3.5639,-3.5639,-3.5639,-3.5639,-3.5639,-3.5639,-3.5639,-3.5639,-3.5639,-3.5639,-3.5639,-3.5639,-3.5639,-3.5639,-3.5639,-3.5639,-3.5639,-3.5639,-3.5639,-3.5639,-3.5639,-3.5859,-3.6062,-3.6738,-3.7449,-3.8193,-3.8903,-3.9294,-3.9212,-3.8854,-3.8398,-3.7203,-3.6737,-3.6197,-3.5365,-3.4905,-3.3973,-3.3478,-3.2834,-3.1974,-3.1193,-3.0495,-2.9998,-2.9779,-2.9779,-2.9624,-2.9534,-2.9456,-2.9365,-2.9118,-2.8279,-2.751,-2.6367,-2.5473,-2.4735,-2.4586,-2.4385,-2.4122,-2.3862,-2.3719,-2.3773,-2.4407,-2.6222,-2.693,-2.6077,-2.5006,-2.4303,-2.4952,-2.534,-2.5532,-2.5554,-2.4923,-2.4594,-2.4713,-2.4692,-2.4616,-2.3879,-2.2829,-2.2967,-2.3691,-2.3576,-2.2949,-2.2133,-2.1871,-2.2431,-2.2929,-2.3209,-2.3381,-4.3355,-4.253,-4.1888,-4.107,-4.0103,-3.9153,-3.8707,-3.8707,-3.8707,-3.8707,-3.8707,-3.8707,-3.8707,-3.8707,-3.8707,-3.8707,-3.8676,-3.8183,-3.7685,-3.721,-3.6603,-3.6122,-3.5783,-3.5639,-3.5639,-3.5639,-3.5639,-3.5639,-3.5639,-3.5639,-3.5639,-3.5639,-3.5639,-3.5639,-3.5639,-3.5639,-3.5639,-3.5639,-3.5639,-3.5639,-3.5639,-3.5639,-3.5639,-3.5639,-3.5639,-3.5639,-3.5639,-3.5639,-3.5639,-3.574,-3.6366,-3.6941,-3.7669,-3.8379,-3.926,-3.9218,-3.8635,-3.8133,-3.7263,-3.6461,-3.5785,-3.5008,-3.4327,-3.3394,-3.2607,-3.1901,-3.1402,-3.0758,-3.0203,-2.9779,-2.9779,-2.9702,-2.9443,-2.9118,-2.904,-2.887,-2.8119,-2.736,-2.6295,-2.5136,-2.4255,-2.3421,-2.3055,-2.2939,-2.2764,-2.276,-2.2655,-2.2679,-2.3031,-2.4145,-2.4673,-2.4392,-2.3063,-2.202,-2.295,-2.3777,-2.3849,-2.3807,-2.3541,-2.3481,-2.4035,-2.3844,-2.3174,-2.2564,-2.1799,-2.2107,-2.2512,-2.1873,-2.1252,-2.0654,-2.0576,-2.1215,-2.1772,-2.1838,-2.2056,-4.2489,-4.1668,-4.1323,-4.0375,-3.9173,-3.8833,-3.8707,-3.8707,-3.8707,-3.8707,-3.8707,-3.8707,-3.8707,-3.8707,-3.8707,-3.8627,-3.8401,-3.7964,-3.747,-3.7114,-3.6457,-3.5968,-3.5739,-3.5639,-3.5639,-3.5639,-3.5639,-3.5639,-3.5639,-3.5639,-3.5639,-3.5639,-3.5639,-3.5639,-3.5639,-3.5639,-3.5639,-3.5639,-3.5639,-3.5639,-3.5639,-3.5639,-3.5639,-3.5639,-3.5639,-3.5639,-3.5639,-3.5639,-3.5639,-3.5876,-3.6163,-3.662,-3.7449,-3.8244,-3.9175,-3.9135,-3.8469,-3.769,-3.6995,-3.6196,-3.5204,-3.4461,-3.3891,-3.289,-3.2046,-3.1536,-3.1106,-3.0558,-2.9998,-2.9779,-2.9779,-2.9353,-2.8937,-2.8518,-2.8199,-2.7879,-2.7302,-2.6378,-2.5294,-2.4265,-2.3533,-2.2861,-2.2695,-2.2627,-2.2305,-2.1982,-2.1816,-2.1797,-2.1974,-2.2574,-2.2849,-2.291,-2.198,-2.1143,-2.15,-2.2169,-2.202,-2.1987,-2.2078,-2.2079,-2.2429,-2.208,-2.1562,-2.1299,-2.1164,-2.0899,-2.0918,-2.0684,-2.0713,-2.0635,-2.0576,-2.0576,-2.0712,-2.0934,-2.1088,-4.1604,-4.0765,-4.0229,-3.9613,-3.909,-3.8833,-3.8707,-3.8707,-3.8707,-3.8707,-3.8707,-3.8707,-3.8707,-3.8707,-3.8627,-3.8496,-3.8065,-3.7596,-3.7114,-3.6603,-3.6097,-3.5854,-3.5622,-3.5639,-3.5639,-3.5639,-3.5639,-3.5639,-3.5639,-3.5639,-3.5639,-3.5639,-3.5639,-3.5639,-3.5639,-3.5639,-3.5639,-3.5639,-3.5639,-3.5639,-3.5639,-3.5639,-3.5639,-3.5639,-3.5639,-3.5639,-3.5639,-3.5639,-3.5639,-3.5723,-3.5774,-3.6485,-3.7601,-3.8497,-3.867,-3.8378,-3.806,-3.7354,-3.6538,-3.5831,-3.5037,-3.4041,-3.3325,-3.2321,-3.1683,-3.1315,-3.0895,-3.0343,-2.9998,-2.9856,-2.9611,-2.9094,-2.8426,-2.7936,-2.736,-2.6964,-2.6472,-2.5305,-2.4221,-2.3553,-2.2899,-2.2637,-2.2461,-2.2178,-2.1846,-2.1611,-2.1455,-2.1318,-2.1064,-2.1382,-2.184,-2.189,-2.1362,-2.082,-2.0887,-2.0965,-2.1172,-2.1113,-2.1214,-2.1066,-2.0947,-2.1016,-2.1084,-2.0869,-2.0635,-2.0576,-2.0576,-2.0586,-2.0596,-2.0576,-2.0576,-2.0576,-2.0576,-2.0712,-2.0722,-4.095,-4.0441,-3.9842,-3.9352,-3.8952,-3.8762,-3.8707,-3.8707,-3.8707,-3.8707,-3.8707,-3.8707,-3.8707,-3.8627,-3.8465,-3.8216,-3.7755,-3.7135,-3.6803,-3.635,-3.5898,-3.5711,-3.5639,-3.5639,-3.5639,-3.5639,-3.5639,-3.5639,-3.5639,-3.5639,-3.5639,-3.5577,-3.5577,-3.5577,-3.5577,-3.5577,-3.5639,-3.5639,-3.5639,-3.5639,-3.5639,-3.5639,-3.5639,-3.5639,-3.5639,-3.5639,-3.5639,-3.5639,-3.5639,-3.5639,-3.5673,-3.6197,-3.7178,-3.8007,-3.8203,-3.8046,-3.7737,-3.7294,-3.6243,-3.5444,-3.4773,-3.3685,-3.3031,-3.2177,-3.0784,-3.0419,-3.0419,-2.9934,-2.9934,-2.9779,-2.9779,-2.9365,-2.8199,-2.7452,-2.6883,-2.6307,-2.5305,-2.4135,-2.3477,-2.2982,-2.2539,-2.2305,-2.207,-2.1719,-2.1396,-2.1084,-2.0957,-2.0977,-2.0703,-2.0576,-2.0948,-2.1125,-2.0771,-2.0683,-2.0713,-2.0732,-2.0732,-2.0625,-2.0576,-2.0654,-2.0752,-2.0664,-2.0586,-2.0576,-2.0576,-2.0576,-2.0576,-2.0576,-2.0576,-2.0576,-2.0576,-2.0576,-2.0576,-2.0576,-2.0576,-4.0457,-4.0319,-3.9821,-3.9268,-3.875,-3.8707,-3.8707,-3.8707,-3.8707,-3.8707,-3.8707,-3.8707,-3.8658,-3.8415,-3.815,-3.7911,-3.7488,-3.6825,-3.6498,-3.6139,-3.581,-3.5667,-3.5639,-3.5639,-3.5639,-3.5639,-3.5639,-3.5639,-3.5639,-3.5577,-3.5577,-3.5515,-3.5515,-3.556,-3.5515,-3.5577,-3.5639,-3.5639,-3.5639,-3.5639,-3.5639,-3.5639,-3.5639,-3.5639,-3.5639,-3.5639,-3.5639,-3.5639,-3.5639,-3.5639,-3.5673,-3.618,-3.6612,-3.7275,-3.7502,-3.7432,-3.7205,-3.6714,-3.6058,-3.535,-3.4095,-3.2961,-3.2607,-3.1769,-3.0292,-2.9869,-2.9869,-2.9611,-2.9611,-2.9611,-2.9611,-2.904,-2.7879,-2.6707,-2.6058,-2.5462,-2.4211,-2.3153,-2.2879,-2.251,-2.2227,-2.1973,-2.166,-2.1299,-2.0996,-2.0684,-2.0576,-2.0576,-2.0576,-2.0576,-2.0752,-2.0801,-2.0713,-2.0576,-2.0576,-2.0576,-2.0576,-2.0576,-2.0576,-2.0576,-2.0576,-2.0576,-2.0576,-2.0576,-2.0576,-2.0576,-2.0576,-2.0576,-2.0576,-2.0576,-2.0576,-2.0576,-2.0576,-2.0576,-2.0576,-4.0211,-3.9757,-3.9645,-3.9242,-3.875,-3.8707,-3.8707,-3.8707,-3.8707,-3.8707,-3.8707,-3.8676,-3.8515,-3.8065,-3.798,-3.7596,-3.6865,-3.6416,-3.6097,-3.5739,-3.565,-3.5622,-3.5639,-3.5639,-3.5639,-3.5639,-3.5639,-3.5639,-3.5577,-3.5515,-3.5316,-3.5005,-3.5407,-3.5299,-3.4958,-3.5161,-3.5424,-3.5515,-3.5515,-3.5515,-3.5622,-3.5639,-3.5639,-3.5639,-3.5639,-3.5639,-3.5639,-3.5639,-3.5639,-3.5639,-3.5611,-3.5954,-3.6219,-3.6386,-3.6432,-3.6426,-3.6269,-3.5661,-3.4961,-3.4493,-3.3282,-3.2033,-3.1609,-3.1193,-3.0216,-2.9792,-2.9534,-2.8846,-2.8846,-2.9015,-2.8779,-2.7799,-2.6637,-2.5546,-2.4723,-2.418,-2.3327,-2.2842,-2.2568,-2.2207,-2.1846,-2.1602,-2.1328,-2.1025,-2.0781,-2.0576,-2.0576,-2.0576,-2.0576,-2.0576,-2.0576,-2.0576,-2.0576,-2.0576,-2.0576,-2.0576,-2.0576,-2.0576,-2.0576,-2.0576,-2.0576,-2.0576,-2.0576,-2.0576,-2.0576,-2.0576,-2.0576,-2.0576,-2.0576,-2.0576,-2.0576,-2.0576,-2.0576,-2.0576,-2.0576]},{"header":{"parameterUnit":"m.s-1","parameterCategory":1,"la1":31.0,"la2":29.5877,"lo1":-88.7671,"lo2":-86.6584,"dy":0.0162,"dx":0.0185,"nx":115,"ny":88,"refTime":"2023-07-31T06:00:00:Z","depth":0,"parameterNumber":3,"parameterNumberName":"V-component_of_WINDS"},"data":[0.0,0.0,0.0,0.0,0.0,0.0,0.0,0.0,0.0,0.0,0.0,0.0,0.0,0.0,0.0,0.0,0.0,0.0,0.0,0.0,0.0,0.0,0.0,0.0,0.0,0.0,0.0,0.0,0.0,0.0,0.0,0.0,0.0,0.0,0.0,0.0,0.0,0.0,0.0,0.0,0.0,0.0,0.0,0.0,0.0,0.0,0.0,0.0,0.0,0.0,0.0,0.0,0.0,0.0,0.0,0.0,0.0,0.0,0.0,0.0,0.0,0.0,0.0,0.0,0.0,0.0,0.0,0.0,0.0,0.0,0.0,0.0,0.0,0.0,0.0,0.0,0.0,0.0,0.0,0.0,0.0,0.0,0.0,0.0,0.0,0.0,0.0,0.0,0.0,0.0,0.0,0.0,0.0,0.0,0.0,0.0,0.0,0.0,0.0,0.0,0.0,0.0,0.0,0.0,0.0,0.0,0.0,0.0,0.0,0.0,0.0,0.0,0.0,0.0,0.0,0.0,0.0,0.0,0.0,0.0,0.0,0.0,0.0,0.0,0.0,0.0,0.0,0.0,0.0,0.0,0.0,0.0,0.0,0.0,0.0,0.0,0.0,0.0,0.0,0.0,0.0,0.0,0.0,0.0,0.0,0.0,0.0,0.0,0.0,0.0,0.0,0.0,0.0,0.0,0.0,0.0,0.0,0.0,0.0,0.0,0.0,0.0,0.0,0.0,0.0,0.0,0.0,0.0,0.0,0.0,0.0,0.0,0.0,0.0,0.0,0.0,0.0,0.0,0.0,0.0,0.0,0.0,0.0,0.0,0.0,0.0,0.0,0.0,0.0,0.0,0.0,0.0,0.0,0.0,0.0,0.0,0.0,0.0,0.0,0.0,0.0,0.0,0.0,0.0,0.0,0.0,0.0,0.0,0.0,0.0,0.0,0.0,0.0,0.0,0.0,0.0,0.0,0.0,0.0,0.0,0.0,0.0,0.0,0.0,0.0,0.0,0.0,0.0,0.0,0.0,0.0,0.0,0.0,0.0,0.0,0.0,0.0,0.0,0.0,0.0,0.0,0.0,0.0,0.0,0.0,0.0,0.0,0.0,0.0,0.0,0.0,0.0,0.0,0.0,0.0,0.0,0.0,0.0,0.0,0.0,0.0,0.0,0.0,0.0,0.0,0.0,0.0,0.0,0.0,0.0,0.0,0.0,0.0,0.0,0.0,0.0,0.0,0.0,0.0,0.0,0.0,0.0,0.0,0.0,0.0,0.0,0.0,0.0,0.0,0.0,0.0,0.0,0.0,0.0,0.0,0.0,0.0,0.0,0.0,0.0,0.0,0.0,0.0,0.0,0.0,0.0,0.0,0.0,0.0,0.0,0.0,0.0,0.0,0.0,0.0,0.0,0.0,0.0,0.0,0.0,0.0,0.0,0.0,0.0,0.0,0.0,0.0,0.0,0.0,0.0,0.0,0.0,0.0,0.0,0.0,0.0,0.0,0.0,0.0,0.0,0.0,0.0,0.0,0.0,0.0,0.0,0.0,0.0,0.0,0.0,0.0,0.0,0.0,0.0,0.0,0.0,0.0,0.0,0.0,0.0,0.0,0.0,0.0,0.0,0.0,0.0,0.0,0.0,0.0,0.0,0.0,0.0,0.0,0.0,0.0,0.0,0.0,0.0,0.0,0.0,0.0,0.0,0.0,0.0,0.0,0.0,0.0,0.0,0.0,0.0,0.0,0.0,0.0,0.0,0.0,0.0,0.0,0.0,0.0,0.0,0.0,0.0,0.0,0.0,0.0,0.0,0.0,0.0,0.0,0.0,0.0,0.0,0.0,0.0,0.0,0.0,0.0,0.0,0.0,0.0,0.0,0.0,0.0,0.0,0.0,0.0,0.0,0.0,0.0,0.0,0.0,0.0,0.0,0.0,0.0,0.0,0.0,0.0,0.0,0.0,0.0,0.0,0.0,0.0,0.0,0.0,0.0,0.0,0.0,0.0,0.0,0.0,0.0,0.0,0.0,0.0,0.0,0.0,0.0,0.0,0.0,0.0,0.0,0.0,0.0,0.0,0.0,0.0,0.0,0.0,0.0,0.0,0.0,0.0,0.0,0.0,0.0,0.0,0.0,0.0,0.0,0.0,0.0,0.0,0.0,0.0,0.0,0.0,0.0,0.0,0.0,0.0,0.0,0.0,0.0,0.0,0.0,0.0,0.0,0.0,0.0,0.0,0.0,0.0,0.0,0.0,0.0,0.0,0.0,0.0,0.0,0.0,0.0,0.0,0.0,0.0,0.0,0.0,0.0,0.0,0.0,0.0,0.0,0.0,0.0,0.0,0.0,0.0,0.0,0.0,0.0,0.0,0.0,0.0,0.0,0.0,0.0,0.0,0.0,0.0,0.0,0.0,0.0,0.0,0.0,0.0,0.0,0.0,0.0,0.0,0.0,0.0,0.0,0.0,0.0,0.0,0.0,0.0,0.0,0.0,0.0,0.0,0.0,0.0,0.0,0.0,0.0,0.0,0.0,0.0,0.0,0.0,0.0,0.0,0.0,0.0,0.0,0.0,0.0,0.0,0.0,0.0,0.0,0.0,0.0,0.0,0.0,0.0,0.0,0.0,0.0,0.0,0.0,0.0,0.0,0.0,0.0,0.0,0.0,0.0,0.0,0.0,0.0,0.0,0.0,0.0,0.0,0.0,0.0,0.0,0.0,0.0,0.0,0.0,0.0,0.0,0.0,0.0,0.0,0.0,0.0,0.0,0.0,0.0,0.0,0.0,0.0,0.0,0.0,0.0,0.0,0.0,0.0,0.0,0.0,0.0,0.0,0.0,0.0,0.0,0.0,0.0,0.0,0.0,0.0,0.0,0.0,0.0,0.0,0.0,0.0,0.0,0.0,0.0,0.0,0.0,0.0,0.0,0.0,0.0,0.0,0.0,0.0,0.0,0.0,0.0,0.0,0.0,0.0,0.0,0.0,0.0,0.0,0.0,0.0,0.0,0.0,0.0,0.0,0.0,0.0,0.0,0.0,0.0,0.0,0.0,0.0,0.0,0.0,0.0,0.0,0.0,0.0,0.0,0.0,0.0,0.0,0.0,0.0,0.0,0.0,0.0,0.0,0.0,0.0,0.0,0.0,0.0,0.0,0.0,0.0,0.0,0.0,0.0,0.0,0.0,0.0,0.0,0.0,0.0,0.0,0.0,0.0,0.0,0.0,0.0,0.0,0.0,0.0,0.0,0.0,0.0,0.0,0.0,0.0,0.0,0.0,0.0,0.0,0.0,0.0,0.0,0.0,0.0,0.0,0.0,0.0,0.0,0.0,0.0,0.0,0.0,0.0,0.0,0.0,0.0,0.0,0.0,0.0,0.0,0.0,0.0,0.0,0.0,0.0,0.0,0.0,0.0,0.0,0.0,0.0,0.0,0.0,0.0,0.0,0.0,0.0,0.0,0.0,0.0,0.0,0.0,0.0,0.0,0.0,0.0,0.0,0.0,0.0,0.0,0.0,0.0,0.0,0.0,0.0,0.0,0.0,0.0,0.0,0.0,0.0,0.0,0.0,0.0,0.0,0.0,0.0,0.0,0.0,0.0,0.0,0.0,0.0,0.0,0.0,0.0,0.0,0.0,0.0,0.0,0.0,0.0,0.0,0.0,0.0,0.0,0.0,0.0,0.0,0.0,0.0,0.0,0.0,0.0,0.0,0.0,0.0,0.0,0.0,0.0,0.0,0.0,0.0,0.0,0.0,0.0,0.0,0.0,0.0,0.0,0.0,0.0,0.0,0.0,0.0,0.0,0.0,0.0,0.0,0.0,0.0,0.0,0.0,0.0,0.0,0.0,0.0,0.0,0.0,0.0,0.0,0.0,0.0,0.0,0.0,0.0,0.0,0.0,0.0,0.0,0.0,0.0,0.0,0.0,0.0,0.0,0.0,0.0,0.0,0.0,0.0,0.0,0.0,0.0,0.0,0.0,0.0,0.0,0.0,0.0,0.0,0.0,0.0,0.0,0.0,0.0,0.0,0.0,0.0,0.0,0.0,0.0,0.0,0.0,0.0,0.0,0.0,0.0,0.0,0.0,0.0,0.0,0.0,0.0,0.0,0.0,0.0,0.0,0.0,0.0,0.0,0.0,0.0,0.0,0.0,0.0,0.0,0.0,0.0,0.0,0.0,0.0,0.0,0.0,0.0,0.0,0.0,0.0,0.0,0.0,0.0,0.0,0.0,0.0,0.0,0.0,0.0,0.0,0.0,0.0,0.0,0.0,0.0,0.0,0.0,0.0,-0.7643,0.0,0.0,0.0,0.0,0.0,0.0,0.0,0.0,0.0,0.0,0.0,0.0,0.0,0.0,0.0,0.0,0.0,0.0,0.0,0.0,0.0,0.0,0.0,0.0,0.0,0.0,0.0,0.0,0.0,0.0,0.0,0.0,0.0,0.0,0.0,0.0,0.0,0.0,0.0,0.0,0.0,0.0,0.0,0.0,0.0,0.0,0.0,0.0,0.0,0.0,0.0,0.0,0.0,0.0,0.0,0.0,0.0,0.0,0.0,0.0,0.0,0.0,0.0,0.0,0.0,0.0,0.0,0.0,0.0,0.0,0.0,0.0,0.0,0.0,0.0,0.0,0.0,0.0,0.0,0.0,0.0,0.0,0.0,0.0,0.0,0.0,0.0,0.0,0.0,0.0,0.0,0.0,0.0,0.0,0.0,0.0,0.0,0.0,0.0,0.0,0.0,0.0,0.0,0.0,0.0,0.0,0.0,0.0,0.0,0.0,-0.5436,-0.5934,-0.6639,-0.7141,-0.7441,0.0,0.0,0.0,0.0,0.0,0.0,0.0,0.0,0.0,0.0,0.0,0.0,0.0,0.0,0.0,0.0,0.0,0.0,0.0,0.0,0.0,0.0,0.0,0.0,0.0,0.0,0.0,0.0,0.0,0.0,0.0,0.0,0.0,0.0,0.0,0.0,0.0,0.0,0.0,0.0,0.0,0.0,0.0,0.0,0.0,0.0,0.0,0.0,0.0,0.0,0.0,0.0,0.0,0.0,0.0,0.0,0.0,0.0,0.0,0.0,0.0,0.0,0.0,0.0,0.0,0.0,0.0,0.0,0.0,0.0,0.0,0.0,0.0,0.0,0.0,0.0,0.0,0.0,0.0,0.0,0.0,0.0,0.0,0.0,0.0,0.0,0.0,0.0,0.0,0.0,0.0,0.0,0.0,0.0,0.0,0.0,0.0,0.0,0.0,0.0,0.0,0.0,0.0,0.0,0.0,0.0,0.0,0.0,0.0,0.0,0.0,0.0,-0.6339,-0.7039,-0.773,0.0,0.0,0.0,0.0,0.0,0.0,0.0,0.0,0.0,0.0,0.0,0.0,0.0,0.0,0.0,0.0,0.0,0.0,0.0,0.0,0.0,0.0,0.0,0.0,0.0,0.0,0.0,0.0,0.0,0.0,0.0,0.0,0.0,0.0,0.0,0.0,0.0,0.0,0.0,0.0,0.0,0.0,0.0,0.0,0.0,0.0,0.0,0.0,0.0,0.0,0.0,0.0,0.0,0.0,0.0,0.0,0.0,0.0,0.0,0.0,0.0,0.0,0.0,0.0,0.0,0.0,0.0,0.0,0.0,0.0,0.0,0.0,0.0,0.0,0.0,0.0,0.0,0.0,0.0,0.0,0.0,0.0,0.0,0.0,0.0,0.0,0.0,0.0,0.0,0.0,0.0,0.0,0.0,0.0,0.0,0.0,0.0,0.0,0.0,0.0,0.0,0.0,0.0,0.0,0.0,0.0,0.0,0.0,0.0,0.0,-0.474,-0.524,-0.6242,0.0,-0.9015,0.0,0.0,0.0,0.0,0.0,0.0,0.0,0.0,0.0,0.0,0.0,0.0,0.0,0.0,0.0,0.0,0.0,0.0,0.0,0.0,0.0,0.0,0.0,0.0,0.0,0.0,0.0,0.0,0.0,0.0,0.0,0.0,0.0,0.0,0.0,0.0,0.0,0.0,0.0,0.0,0.0,0.0,0.0,0.0,0.0,0.0,0.0,0.0,0.0,0.0,0.0,0.0,0.0,0.0,0.0,0.0,0.0,0.0,0.0,0.0,0.0,0.0,0.0,0.0,0.0,0.0,0.0,0.0,0.0,0.0,0.0,0.0,0.0,0.0,0.0,0.0,0.0,0.0,0.0,0.0,0.0,0.0,0.0,0.0,0.0,0.0,0.0,0.0,0.0,0.0,0.0,0.0,0.0,0.0,0.0,0.0,0.0,0.0,0.0,0.0,0.0,0.0,0.0,0.0,0.0,0.0,0.0,0.0,0.0,0.0,-0.4437,-0.4935,-0.6437,-0.7832,0.0,0.0,0.0,0.0,0.0,0.0,0.0,0.0,0.0,0.0,0.0,0.0,0.0,0.0,0.0,0.0,0.0,0.0,0.0,0.0,0.0,0.0,0.0,0.0,0.0,0.0,0.0,0.0,0.0,0.0,0.0,0.0,0.0,0.0,0.0,0.0,0.0,0.0,0.0,0.0,0.0,0.0,0.0,0.0,0.0,0.0,0.0,0.0,0.0,0.0,0.0,0.0,0.0,0.0,0.0,0.0,0.0,0.0,0.0,0.0,0.0,0.0,0.0,0.0,0.0,0.0,0.0,0.0,0.0,0.0,0.0,0.0,0.0,0.0,0.0,0.0,0.0,0.0,0.0,0.0,0.0,0.0,0.0,0.0,0.0,0.0,0.0,0.0,0.0,0.0,0.0,0.0,0.0,0.0,0.0,0.0,0.0,0.0,0.0,0.0,0.0,0.0,0.0,0.0,0.0,0.0,0.0,0.0,0.0,0.0,-0.3429,-0.4435,-0.5236,-0.693,-0.8326,-0.9517,0.0,0.0,0.0,0.0,0.0,0.0,0.0,0.0,0.0,0.0,0.0,0.0,0.0,0.0,0.0,0.0,0.0,0.0,0.0,0.0,0.0,0.0,0.0,0.0,0.0,0.0,0.0,0.0,0.0,0.0,0.0,0.0,0.0,0.0,0.0,0.0,0.0,0.0,0.0,0.0,0.0,0.0,0.0,0.0,0.0,0.0,0.0,0.0,0.0,0.0,0.0,0.0,0.0,0.0,0.0,0.0,0.0,0.0,0.0,0.0,0.0,0.0,0.0,0.0,0.0,0.0,0.0,0.0,0.0,0.0,0.0,0.0,0.0,0.0,0.0,0.0,0.0,0.0,0.0,0.0,0.0,0.0,0.0,0.0,0.0,0.0,0.0,0.0,0.0,0.0,0.0,0.0,0.0,0.0,0.0,0.0,0.0,0.0,0.0,0.0,0.0,0.0,0.0,0.0,0.0,0.0,0.0,0.0,-0.2422,-0.3429,-0.4734,-0.6234,-0.763,-0.9027,0.0,0.0,0.0,0.0,0.0,0.0,0.0,0.0,0.0,0.0,0.0,0.0,0.0,0.0,0.0,0.0,0.0,0.0,0.0,0.0,0.0,0.0,0.0,0.0,0.0,0.0,0.0,0.0,0.0,0.0,0.0,0.0,0.0,0.0,0.0,0.0,0.0,0.0,0.0,0.0,0.0,0.0,0.0,0.0,0.0,0.0,0.0,0.0,0.0,0.0,0.0,0.0,0.0,0.0,0.0,0.0,0.0,0.0,0.0,0.0,0.0,0.0,0.0,0.0,0.0,0.0,0.0,0.0,0.0,0.0,0.0,0.0,0.0,0.0,0.0,0.0,0.0,0.0,0.0,0.0,0.0,0.0,0.0,0.0,0.0,0.0,0.0,0.0,0.0,0.0,0.0,0.0,0.0,0.0,0.0,0.0,0.0,0.0,0.0,0.0,0.0,0.0,0.0,0.0,0.0,0.0,0.0,0.0,0.0,-0.2927,-0.4133,-0.5338,-0.6434,-0.7733,-0.9023,0.0,0.0,0.0,0.0,0.0,0.0,0.0,0.0,0.0,0.0,0.0,0.0,0.0,0.0,0.0,0.0,0.0,0.0,0.0,0.0,0.0,0.0,0.0,0.0,0.0,0.0,0.0,0.0,0.0,0.0,0.0,0.0,0.0,0.0,0.0,0.0,0.0,0.0,0.0,0.0,0.0,0.0,0.0,0.0,0.0,0.0,0.0,0.0,0.0,0.0,0.0,0.0,0.0,0.0,0.0,0.0,0.0,0.0,0.0,0.0,0.0,0.0,0.0,0.0,0.0,0.0,0.0,0.0,0.0,0.0,0.0,0.0,0.0,0.0,0.0,0.0,0.0,0.0,0.0,0.0,0.0,0.0,0.0,0.0,0.0,0.0,0.0,0.0,0.0,0.0,0.0,0.0,0.0,0.0,0.0,0.0,0.0,0.0,0.0,0.0,0.0,0.0,0.0,0.0,0.0,0.0,0.0,0.0,0.0,-0.3732,0.0,-0.5739,-0.6637,-0.7932,-0.9221,0.0,0.0,0.0,0.0,0.0,0.0,0.0,0.0,0.0,0.0,0.0,0.0,0.0,0.0,0.0,0.0,0.0,0.0,0.0,0.0,0.0,0.0,0.0,0.0,0.0,0.0,0.0,0.0,0.0,0.0,0.0,0.0,0.0,0.0,0.0,0.0,0.0,0.0,0.0,0.0,0.0,0.0,0.0,0.0,0.0,0.0,0.0,0.0,0.0,0.0,0.0,0.0,0.0,0.0,0.0,0.0,0.0,0.0,0.0,0.0,0.0,0.0,0.0,0.0,0.0,0.0,0.0,0.0,0.0,0.0,0.0,0.0,0.0,0.0,0.0,0.0,0.0,0.0,0.0,0.0,0.0,0.0,0.0,0.0,0.0,0.0,0.0,0.0,0.0,0.0,0.0,0.0,0.0,0.0,0.0,0.0,0.0,0.0,0.0,0.0,0.0,0.0,0.0,0.0,0.0,0.0,0.0,0.0,-0.3732,-0.4734,-0.5336,-0.6134,-0.7135,-0.8425,-0.971,0.0,0.0,0.0,0.0,0.0,0.0,0.0,0.0,0.0,0.0,0.0,0.0,0.0,0.0,0.0,0.0,0.0,0.0,0.0,0.0,0.0,0.0,0.0,0.0,0.0,0.0,0.0,0.0,0.0,0.0,0.0,0.0,0.0,0.0,0.0,0.0,0.0,0.0,0.0,0.0,0.0,0.0,0.0,0.0,0.0,0.0,0.0,0.0,0.0,0.0,0.0,0.0,0.0,0.0,0.0,0.0,0.0,0.0,0.0,0.0,0.0,0.0,0.0,0.0,0.0,0.0,0.0,0.0,0.0,0.0,0.0,0.0,0.0,0.0,0.0,0.0,0.0,0.0,0.0,0.0,0.0,0.0,0.0,0.0,0.0,0.0,0.0,0.0,0.0,0.0,0.0,0.0,0.0,0.0,0.0,0.0,0.0,0.0,0.0,0.0,0.0,0.0,0.0,0.0,0.0,0.0,0.0,0.0,0.0,-0.4834,-0.5634,-0.6437,-0.7238,-0.8524,-0.9715,0.0,0.0,0.0,0.0,0.0,0.0,0.0,0.0,0.0,0.0,0.0,0.0,0.0,0.0,0.0,0.0,0.0,0.0,0.0,0.0,0.0,0.0,0.0,0.0,0.0,0.0,0.0,0.0,0.0,0.0,0.0,0.0,0.0,0.0,0.0,0.0,0.0,0.0,0.0,0.0,0.0,0.0,0.0,0.0,0.0,0.0,0.0,0.0,0.0,0.0,0.0,0.0,0.0,0.0,0.0,0.0,0.0,0.0,0.0,0.0,0.0,0.0,0.0,0.0,0.0,0.0,0.0,0.0,0.0,0.0,0.0,0.0,0.0,0.0,0.0,0.0,0.0,0.0,0.0,0.0,0.0,0.0,0.0,0.0,0.0,0.0,0.0,0.0,0.0,0.0,0.0,0.0,0.0,0.0,0.0,0.0,0.0,0.0,0.0,0.0,0.0,0.0,0.0,0.0,0.0,0.0,0.0,0.0,0.0,-0.5493,-0.6303,-0.7009,-0.7717,-0.8814,-0.988,-1.0904,0.0,0.0,0.0,0.0,0.0,0.0,0.0,0.0,0.0,0.0,0.0,0.0,0.0,0.0,0.0,0.0,0.0,0.0,0.0,0.0,0.0,0.0,0.0,0.0,0.0,0.0,0.0,0.0,0.0,0.0,0.0,0.0,0.0,0.0,0.0,0.0,0.0,0.0,0.0,0.0,0.0,0.0,0.0,0.0,0.0,0.0,0.0,0.0,0.0,0.0,0.0,0.0,0.0,0.0,0.0,0.0,0.0,0.0,0.0,0.0,0.0,0.0,0.0,0.0,0.0,0.0,0.0,0.0,0.0,0.0,0.0,0.0,0.0,0.0,0.0,0.0,0.0,0.0,0.0,0.0,0.0,0.0,0.0,0.0,0.0,0.0,0.0,0.0,0.0,0.0,0.0,0.0,0.0,0.0,0.0,0.0,0.0,0.0,0.0,0.0,0.0,0.0,0.0,0.0,0.0,0.0,0.0,0.0,-0.6733,-0.703,-0.7645,-0.8688,-0.938,-1.0205,0.0,0.0,0.0,0.0,0.0,0.0,0.0,0.0,0.0,0.0,0.0,0.0,0.0,0.0,0.0,0.0,0.0,0.0,0.0,0.0,0.0,0.0,0.0,0.0,0.0,0.0,0.0,0.0,0.0,0.0,0.0,0.0,0.0,0.0,0.0,0.0,0.0,0.0,0.0,0.0,0.0,0.0,0.0,0.0,0.0,0.0,0.0,0.0,0.0,0.0,0.0,0.0,0.0,0.0,0.0,0.0,0.0,0.0,0.0,0.0,0.0,0.0,0.0,0.0,0.0,0.0,0.0,0.0,0.0,0.0,0.0,0.0,0.0,0.0,0.0,0.0,0.0,0.0,0.0,0.0,0.0,0.0,0.0,0.0,0.0,0.0,0.0,0.0,0.0,0.0,0.0,0.0,0.0,0.0,0.0,0.0,0.0,0.0,0.0,0.0,0.0,0.0,0.0,0.0,0.0,0.0,0.0,0.0,0.0,-0.7682,-0.7698,-0.8001,-0.8522,-0.9339,-1.0159,0.0,0.0,0.0,0.0,0.0,0.0,0.0,0.0,0.0,0.0,0.0,0.0,0.0,0.0,0.0,0.0,0.0,0.0,0.0,0.0,0.0,0.0,0.0,0.0,0.0,0.0,0.0,0.0,0.0,0.0,0.0,0.0,0.0,0.0,0.0,0.0,0.0,0.0,0.0,0.0,0.0,0.0,0.0,0.0,0.0,0.0,0.0,0.0,0.0,0.0,0.0,0.0,0.0,0.0,0.0,0.0,0.0,0.0,0.0,0.0,0.0,0.0,0.0,0.0,0.0,0.0,0.0,0.0,0.0,0.0,0.0,0.0,0.0,0.0,0.0,0.0,0.0,0.0,0.0,0.0,0.0,0.0,0.0,0.0,0.0,0.0,0.0,0.0,0.0,0.0,0.0,0.0,0.0,0.0,0.0,0.0,0.0,0.0,0.0,0.0,0.0,0.0,0.0,0.0,0.0,0.0,0.0,0.0,-0.7703,-0.7972,-0.8115,-0.8692,-0.9512,-0.9804,-1.0382,0.0,0.0,0.0,0.0,0.0,0.0,0.0,0.0,0.0,0.0,0.0,0.0,0.0,0.0,0.0,0.0,0.0,0.0,0.0,0.0,0.0,0.0,0.0,0.0,0.0,0.0,0.0,0.0,0.0,0.0,0.0,0.0,0.0,0.0,0.0,0.0,0.0,0.0,0.0,0.0,0.0,0.0,0.0,0.0,0.0,0.0,0.0,0.0,0.0,0.0,0.0,0.0,0.0,0.0,0.0,0.0,0.0,0.0,0.0,0.0,0.0,0.0,0.0,0.0,0.0,0.0,0.0,0.0,0.0,0.0,0.0,0.0,0.0,0.0,0.0,0.0,0.0,0.0,0.0,0.0,0.0,0.0,0.0,0.0,0.0,0.0,0.0,0.0,0.0,0.0,0.0,0.0,0.0,0.0,0.0,0.0,0.0,0.0,0.0,0.0,0.0,0.0,0.0,0.0,0.0,0.0,0.0,0.0,-0.8047,-0.8176,-0.8632,-0.9629,-1.1022,-1.0591,-1.0716,0.0,0.0,0.0,0.0,0.0,0.0,0.0,0.0,0.0,0.0,0.0,0.0,0.0,0.0,0.0,0.0,0.0,0.0,0.0,0.0,0.0,0.0,0.0,0.0,0.0,0.0,0.0,0.0,0.0,0.0,0.0,0.0,0.0,0.0,0.0,0.0,0.0,0.0,0.0,0.0,0.0,0.0,0.0,0.0,0.0,0.0,0.0,0.0,0.0,0.0,0.0,0.0,0.0,0.0,0.0,0.0,0.0,0.0,0.0,0.0,0.0,0.0,0.0,0.0,0.0,0.0,0.0,0.0,0.0,0.0,0.0,0.0,0.0,0.0,0.0,0.0,0.0,0.0,0.0,0.0,0.0,0.0,0.0,0.0,0.0,0.0,0.0,0.0,0.0,0.0,0.0,0.0,0.0,0.0,0.0,0.0,0.0,0.0,0.0,0.0,0.0,0.0,0.0,0.0,0.0,0.0,0.0,0.0,-0.9097,-1.0063,-1.0014,-1.0837,-1.2394,-1.1236,-1.1429,0.0,0.0,0.0,0.0,0.0,0.0,0.0,0.0,0.0,0.0,0.0,0.0,0.0,0.0,0.0,0.0,0.0,0.0,0.0,0.0,0.0,0.0,0.0,0.0,0.0,0.0,0.0,0.0,0.0,0.0,0.0,0.0,0.0,0.0,0.0,0.0,0.0,0.0,0.0,0.0,0.0,0.0,0.0,0.0,0.0,0.0,0.0,0.0,-2.2878,0.0,0.0,0.0,0.0,0.0,0.0,0.0,0.0,0.0,0.0,0.0,0.0,0.0,0.0,0.0,0.0,0.0,0.0,0.0,0.0,0.0,0.0,0.0,0.0,0.0,0.0,0.0,0.0,0.0,0.0,0.0,0.0,0.0,0.0,0.0,0.0,0.0,0.0,0.0,0.0,0.0,0.0,0.0,0.0,0.0,0.0,0.0,0.0,0.0,0.0,0.0,0.0,0.0,0.0,0.0,0.0,0.0,0.0,0.0,-1.0432,-1.142,-1.142,-1.2128,-1.3588,-1.2874,-1.2766,0.0,0.0,0.0,0.0,0.0,0.0,0.0,0.0,0.0,0.0,0.0,0.0,0.0,0.0,0.0,0.0,0.0,0.0,0.0,0.0,0.0,0.0,0.0,0.0,0.0,0.0,0.0,0.0,0.0,0.0,0.0,0.0,0.0,0.0,0.0,0.0,0.0,0.0,0.0,0.0,0.0,0.0,0.0,0.0,0.0,0.0,0.0,0.0,0.0,0.0,0.0,0.0,0.0,0.0,0.0,0.0,0.0,0.0,0.0,0.0,0.0,0.0,0.0,0.0,0.0,0.0,0.0,0.0,0.0,0.0,0.0,0.0,0.0,0.0,0.0,0.0,0.0,0.0,0.0,0.0,0.0,0.0,0.0,0.0,0.0,0.0,0.0,0.0,0.0,0.0,0.0,0.0,0.0,0.0,0.0,0.0,0.0,0.0,0.0,0.0,0.0,0.0,0.0,0.0,0.0,0.0,0.0,-1.1477,-1.1895,-1.2777,-1.2929,-1.362,-1.5052,-1.4755,-1.4412,-1.4115,0.0,0.0,0.0,0.0,0.0,0.0,0.0,0.0,0.0,0.0,0.0,0.0,0.0,0.0,0.0,0.0,0.0,0.0,0.0,0.0,0.0,0.0,0.0,0.0,0.0,0.0,0.0,0.0,0.0,0.0,0.0,0.0,0.0,0.0,0.0,0.0,0.0,0.0,-1.6496,-1.8265,0.0,0.0,0.0,0.0,0.0,0.0,0.0,0.0,-2.3752,0.0,0.0,0.0,0.0,0.0,0.0,0.0,0.0,0.0,0.0,0.0,0.0,0.0,0.0,0.0,0.0,0.0,0.0,0.0,0.0,0.0,0.0,0.0,0.0,0.0,0.0,0.0,0.0,0.0,0.0,0.0,0.0,0.0,0.0,0.0,0.0,0.0,0.0,0.0,0.0,0.0,0.0,0.0,0.0,0.0,0.0,0.0,0.0,0.0,0.0,0.0,0.0,0.0,0.0,0.0,0.0,-1.2621,-1.2242,-1.2934,-1.4694,-1.4532,-1.5052,-1.6293,-1.6293,-1.615,-1.5843,0.0,0.0,0.0,0.0,0.0,0.0,0.0,0.0,0.0,0.0,0.0,0.0,0.0,0.0,0.0,0.0,0.0,0.0,0.0,0.0,0.0,0.0,0.0,0.0,0.0,0.0,0.0,0.0,0.0,0.0,0.0,0.0,0.0,0.0,0.0,0.0,0.0,0.0,0.0,-2.0515,-2.1514,0.0,0.0,0.0,0.0,0.0,0.0,0.0,0.0,-2.4791,0.0,0.0,0.0,0.0,0.0,0.0,0.0,0.0,0.0,0.0,0.0,0.0,0.0,0.0,0.0,0.0,0.0,0.0,0.0,0.0,0.0,0.0,0.0,0.0,0.0,0.0,0.0,0.0,0.0,0.0,0.0,0.0,0.0,0.0,0.0,0.0,0.0,0.0,0.0,0.0,0.0,0.0,0.0,0.0,0.0,0.0,0.0,0.0,0.0,0.0,0.0,0.0,0.0,0.0,0.0,-1.3975,-1.397,-1.4712,-1.6163,-1.5783,-1.5937,-1.6693,-1.6666,-1.6572,0.0,0.0,0.0,0.0,0.0,0.0,0.0,0.0,0.0,0.0,0.0,0.0,0.0,0.0,0.0,0.0,0.0,0.0,0.0,0.0,0.0,0.0,0.0,0.0,0.0,0.0,0.0,0.0,0.0,0.0,0.0,0.0,0.0,0.0,0.0,0.0,0.0,0.0,0.0,0.0,-2.1572,-2.2483,-2.335,0.0,0.0,0.0,0.0,0.0,0.0,-2.4967,-2.5347,0.0,0.0,0.0,0.0,0.0,0.0,0.0,0.0,0.0,0.0,0.0,0.0,0.0,0.0,0.0,0.0,0.0,0.0,0.0,0.0,0.0,0.0,0.0,0.0,0.0,0.0,0.0,0.0,0.0,0.0,0.0,0.0,0.0,0.0,0.0,0.0,0.0,0.0,0.0,0.0,0.0,0.0,0.0,0.0,0.0,0.0,0.0,0.0,0.0,0.0,0.0,0.0,0.0,0.0,0.0,-1.527,-1.5515,-1.6063,-1.7094,-1.6573,-1.6386,-1.6607,-1.6694,-1.6629,0.0,0.0,0.0,0.0,0.0,0.0,0.0,0.0,0.0,0.0,0.0,0.0,0.0,0.0,0.0,0.0,0.0,0.0,0.0,0.0,0.0,0.0,0.0,0.0,0.0,0.0,0.0,0.0,0.0,0.0,0.0,0.0,0.0,0.0,0.0,0.0,0.0,0.0,0.0,0.0,0.0,-2.3341,-2.4121,-2.4085,0.0,0.0,0.0,0.0,-2.5839,-2.5838,0.0,0.0,0.0,0.0,0.0,0.0,0.0,0.0,0.0,0.0,0.0,0.0,0.0,0.0,0.0,0.0,0.0,0.0,0.0,0.0,0.0,0.0,0.0,0.0,0.0,0.0,0.0,0.0,0.0,0.0,0.0,0.0,0.0,0.0,0.0,0.0,0.0,0.0,0.0,0.0,0.0,0.0,0.0,0.0,0.0,0.0,0.0,0.0,0.0,0.0,0.0,0.0,0.0,0.0,0.0,0.0,-1.6147,-1.6006,-1.6255,-1.7088,-1.6573,-1.6293,-1.6326,-1.6592,-1.6732,0.0,0.0,0.0,0.0,0.0,0.0,0.0,0.0,0.0,0.0,0.0,0.0,0.0,0.0,0.0,0.0,0.0,0.0,0.0,0.0,0.0,0.0,0.0,0.0,0.0,0.0,0.0,0.0,0.0,0.0,0.0,0.0,0.0,0.0,0.0,0.0,0.0,0.0,0.0,0.0,0.0,-2.4233,-2.4932,-2.5,-2.4834,0.0,0.0,-2.5357,-2.6568,-2.7034,0.0,0.0,0.0,0.0,0.0,0.0,0.0,0.0,0.0,0.0,0.0,0.0,0.0,0.0,0.0,0.0,0.0,0.0,0.0,0.0,0.0,0.0,0.0,0.0,0.0,0.0,0.0,0.0,0.0,0.0,0.0,0.0,0.0,0.0,0.0,0.0,0.0,0.0,0.0,0.0,0.0,0.0,0.0,0.0,0.0,0.0,0.0,0.0,0.0,0.0,0.0,0.0,0.0,0.0,0.0,-1.5989,-1.6319,-1.6553,-1.6866,-1.7355,-1.666,-1.6353,-1.6513,-1.6691,-1.6926,0.0,0.0,0.0,0.0,0.0,0.0,0.0,0.0,0.0,0.0,0.0,0.0,0.0,0.0,0.0,0.0,0.0,0.0,0.0,0.0,0.0,0.0,0.0,0.0,0.0,0.0,0.0,0.0,0.0,0.0,0.0,0.0,0.0,0.0,0.0,0.0,0.0,0.0,0.0,0.0,0.0,0.0,-2.5523,-2.5622,0.0,0.0,0.0,-2.6532,-2.7963,0.0,0.0,0.0,0.0,0.0,0.0,0.0,0.0,0.0,0.0,0.0,0.0,0.0,0.0,0.0,0.0,0.0,0.0,0.0,0.0,0.0,0.0,0.0,0.0,0.0,0.0,0.0,0.0,0.0,0.0,0.0,0.0,0.0,0.0,0.0,0.0,0.0,0.0,0.0,0.0,0.0,0.0,0.0,0.0,0.0,0.0,0.0,0.0,0.0,0.0,0.0,0.0,0.0,0.0,0.0,0.0,0.0,-1.6426,-1.6899,-1.7255,-1.7442,-1.676,-1.6486,-1.6687,-1.7244,0.0,0.0,0.0,0.0,0.0,0.0,0.0,0.0,0.0,0.0,0.0,0.0,0.0,0.0,0.0,0.0,0.0,0.0,0.0,0.0,0.0,0.0,0.0,0.0,0.0,0.0,0.0,-2.3578,0.0,0.0,0.0,0.0,0.0,0.0,0.0,0.0,0.0,0.0,0.0,0.0,0.0,0.0,-2.5371,-2.6237,-2.6543,-2.6838,0.0,0.0,-2.8192,-2.9758,-2.9728,-2.9772,0.0,0.0,0.0,0.0,0.0,0.0,0.0,0.0,0.0,0.0,0.0,0.0,0.0,0.0,0.0,0.0,0.0,0.0,0.0,0.0,0.0,0.0,0.0,0.0,0.0,0.0,0.0,0.0,0.0,0.0,0.0,0.0,0.0,0.0,0.0,0.0,0.0,0.0,0.0,0.0,0.0,0.0,0.0,0.0,0.0,0.0,0.0,0.0,0.0,0.0,0.0,0.0,0.0,0.0,-1.6914,-1.6714,-1.7001,-1.7168,-1.7168,-1.6847,-1.6687,-1.67,-1.8112,-1.8834,0.0,0.0,0.0,0.0,0.0,0.0,0.0,0.0,0.0,0.0,0.0,0.0,0.0,0.0,0.0,0.0,0.0,0.0,0.0,0.0,0.0,0.0,0.0,0.0,0.0,0.0,0.0,0.0,0.0,0.0,0.0,0.0,0.0,0.0,0.0,0.0,0.0,0.0,0.0,0.0,0.0,-2.6009,-2.6881,-2.7641,-2.826,0.0,-2.9548,-3.0613,-3.2352,-3.2204,-3.2076,-3.2537,0.0,0.0,0.0,0.0,0.0,0.0,0.0,0.0,0.0,0.0,0.0,0.0,0.0,0.0,0.0,0.0,0.0,0.0,0.0,0.0,0.0,0.0,0.0,0.0,0.0,0.0,0.0,0.0,0.0,0.0,0.0,0.0,0.0,0.0,0.0,0.0,0.0,0.0,0.0,0.0,0.0,0.0,0.0,0.0,0.0,0.0,0.0,0.0,0.0,0.0,0.0,0.0,0.0,-1.7114,-1.7207,-1.738,-1.7415,-1.7408,-1.7134,-1.738,-1.8261,-1.8958,-1.9662,0.0,0.0,0.0,0.0,0.0,0.0,0.0,0.0,0.0,0.0,0.0,0.0,0.0,0.0,0.0,0.0,0.0,0.0,0.0,0.0,0.0,0.0,0.0,0.0,0.0,0.0,0.0,0.0,-2.6659,-2.6264,-2.5628,0.0,0.0,0.0,0.0,0.0,0.0,0.0,0.0,0.0,0.0,-2.8477,-2.9504,-2.998,0.0,0.0,-3.1307,-3.1775,-3.27,-3.2651,-3.2478,-3.24,-3.2106,0.0,0.0,0.0,0.0,0.0,0.0,0.0,0.0,0.0,0.0,0.0,0.0,0.0,0.0,0.0,0.0,0.0,0.0,0.0,0.0,0.0,0.0,0.0,0.0,0.0,0.0,0.0,0.0,0.0,0.0,0.0,0.0,0.0,0.0,0.0,0.0,0.0,0.0,0.0,0.0,0.0,0.0,0.0,0.0,0.0,0.0,0.0,0.0,0.0,0.0,0.0,0.0,-1.7987,-1.8185,-1.8592,-1.8805,-1.8805,-1.87,-1.8986,-1.9884,-2.0456,-2.1042,0.0,0.0,0.0,0.0,0.0,0.0,0.0,0.0,0.0,0.0,0.0,0.0,0.0,0.0,0.0,0.0,0.0,0.0,0.0,0.0,0.0,0.0,0.0,0.0,0.0,0.0,0.0,0.0,-2.7844,-2.7327,-2.6108,0.0,0.0,0.0,0.0,0.0,0.0,0.0,0.0,0.0,0.0,-3.0362,-3.1422,-3.1888,-3.2305,-3.2926,-3.3143,-3.3207,-3.3521,-3.3399,-3.3271,-3.2971,0.0,0.0,0.0,0.0,0.0,0.0,0.0,0.0,0.0,0.0,0.0,0.0,0.0,0.0,0.0,0.0,0.0,0.0,0.0,0.0,0.0,0.0,0.0,0.0,0.0,0.0,0.0,0.0,0.0,0.0,-1.5792,0.0,0.0,0.0,0.0,0.0,0.0,0.0,0.0,0.0,0.0,0.0,0.0,0.0,0.0,0.0,0.0,0.0,0.0,0.0,0.0,0.0,0.0,-1.9828,-1.9836,-2.0889,-2.1541,-2.1541,-2.1643,-2.1525,-2.1626,-2.295,-2.3278,-2.2682,0.0,0.0,0.0,0.0,0.0,0.0,0.0,0.0,0.0,0.0,0.0,0.0,0.0,0.0,0.0,0.0,0.0,0.0,0.0,0.0,0.0,0.0,0.0,0.0,0.0,0.0,-2.874,-2.8498,-2.7833,0.0,0.0,0.0,0.0,0.0,0.0,0.0,0.0,0.0,0.0,-3.0767,-3.1237,-3.2356,-3.3128,-3.379,-3.428,-3.4978,-3.5478,-3.5438,-3.4954,-3.4623,0.0,0.0,0.0,0.0,0.0,0.0,0.0,0.0,0.0,0.0,0.0,0.0,0.0,0.0,0.0,0.0,0.0,0.0,0.0,0.0,0.0,0.0,0.0,0.0,0.0,0.0,0.0,-1.6299,-1.6132,0.0,0.0,0.0,0.0,0.0,0.0,0.0,0.0,0.0,0.0,0.0,-1.656,-1.6871,0.0,0.0,0.0,0.0,0.0,0.0,0.0,0.0,0.0,0.0,0.0,0.0,-2.0321,-2.0636,-2.1288,-2.1744,-2.1744,-2.1744,-2.2156,-2.2976,-2.3484,-2.3797,-2.3991,0.0,0.0,0.0,0.0,0.0,0.0,0.0,0.0,0.0,0.0,0.0,0.0,0.0,0.0,0.0,0.0,0.0,0.0,0.0,0.0,0.0,0.0,0.0,0.0,0.0,-2.9881,0.0,0.0,0.0,0.0,0.0,0.0,0.0,0.0,0.0,0.0,0.0,-3.053,-3.1209,-3.2447,-3.3448,-3.3905,-3.4805,-3.5524,0.0,0.0,0.0,0.0,0.0,0.0,0.0,0.0,0.0,0.0,0.0,0.0,0.0,0.0,-3.0929,-3.035,-3.0286,-3.0294,-3.0281,0.0,0.0,0.0,0.0,0.0,0.0,0.0,0.0,0.0,0.0,0.0,0.0,0.0,0.0,-1.6506,0.0,-1.6426,0.0,0.0,0.0,0.0,0.0,0.0,0.0,0.0,-1.6827,-1.7252,-1.7552,-1.7853,-1.8728,0.0,-2.0555,-2.0458,0.0,0.0,0.0,0.0,0.0,0.0,0.0,0.0,-2.1439,-2.2075,-2.276,-2.3076,-2.3076,-2.3076,-2.3484,-2.4402,-2.4402,-2.4585,-2.5006,-2.4694,-2.4336,0.0,0.0,0.0,0.0,0.0,0.0,0.0,0.0,0.0,0.0,0.0,0.0,0.0,0.0,0.0,0.0,0.0,0.0,0.0,0.0,0.0,0.0,0.0,-3.088,0.0,0.0,0.0,0.0,0.0,0.0,0.0,0.0,0.0,-2.9965,-3.081,-3.1773,-3.2513,-3.3692,-3.462,-3.4898,0.0,0.0,0.0,0.0,0.0,0.0,0.0,-3.5303,-3.4587,-3.4311,-3.406,-3.3709,-3.3646,-3.3707,-3.3696,0.0,0.0,-3.2162,-3.1647,-3.1599,-3.209,-3.1825,-3.1549,-3.186,-3.2153,-3.231,0.0,0.0,0.0,0.0,0.0,0.0,0.0,0.0,-1.6413,-1.644,0.0,-1.6693,0.0,0.0,0.0,0.0,0.0,-1.6573,0.0,0.0,-1.7392,-1.824,-1.9272,-1.9552,-2.0444,-2.2016,-2.2276,-2.2393,-2.2686,-2.2488,0.0,0.0,0.0,0.0,0.0,0.0,-2.3333,-2.3991,-2.5015,-2.5635,-2.5635,-2.5635,-2.5635,-2.5635,-2.5635,-2.5635,-2.5713,-2.5312,-2.5078,-2.5049,-2.4287,0.0,0.0,0.0,0.0,0.0,0.0,0.0,0.0,0.0,0.0,0.0,0.0,0.0,0.0,0.0,0.0,0.0,0.0,0.0,0.0,-3.0699,0.0,0.0,0.0,0.0,0.0,0.0,0.0,0.0,0.0,0.0,-3.2164,-3.2056,-3.2549,-3.4115,0.0,0.0,0.0,0.0,-3.637,-3.637,-3.637,-3.6188,-3.5668,-3.5581,-3.5567,-3.5437,0.0,0.0,-3.4738,-3.4763,-3.4813,-3.4819,-3.4904,-3.451,-3.3625,-3.2473,-3.2092,-3.3456,-3.2667,-3.2026,-3.2882,-3.3754,-3.4219,-0.8994,0.0,0.0,0.0,0.0,-1.5595,-1.6627,-1.67,-1.662,-1.6506,-1.6406,-1.662,0.0,0.0,0.0,0.0,0.0,0.0,-1.731,-1.8513,-1.8702,-1.9555,-2.099,-2.1091,-2.1804,-2.3215,-2.3314,-2.3864,-2.4775,-2.4775,-2.4021,-2.259,0.0,0.0,0.0,0.0,-2.4184,-2.4507,-2.5305,-2.5732,-2.5732,-2.5732,-2.5732,-2.5732,-2.5732,-2.5732,-2.5732,-2.5615,-2.54,-2.5078,-2.4834,0.0,0.0,0.0,0.0,0.0,0.0,0.0,0.0,0.0,0.0,0.0,0.0,0.0,0.0,0.0,0.0,0.0,0.0,0.0,-3.1023,-3.1704,-3.1988,0.0,0.0,0.0,0.0,0.0,0.0,0.0,0.0,0.0,-3.3893,-3.3595,-3.3521,0.0,0.0,-3.5366,-3.5529,-3.6019,-3.637,-3.637,-3.637,0.0,-3.6175,-3.6194,-3.5994,-3.5617,-3.5416,-3.5303,-3.5303,-3.6314,-3.7156,-3.7078,-3.7475,-3.7758,-3.7817,-3.5661,-3.4097,-3.4361,-3.468,-3.5077,-3.55,-3.6286,-3.6989,-0.9208,-0.9854,-1.1887,-1.3349,-1.4572,-1.5914,-1.66,-1.6693,-1.6587,-1.6493,-1.6453,-1.6627,-1.654,-1.6279,-1.6326,0.0,0.0,0.0,-1.786,-1.8947,-1.9576,-2.0732,-2.2136,-2.2398,-2.3185,-2.4402,-2.4501,-2.4913,-2.5732,-2.5732,-2.5179,-2.4098,0.0,0.0,-2.3758,-2.4269,-2.4679,-2.4939,-2.5402,-2.5732,-2.5732,-2.5732,-2.5732,-2.5732,-2.5732,-2.5732,-2.5732,-2.5732,-2.5615,-2.5342,-2.5166,-2.4834,0.0,0.0,0.0,0.0,0.0,0.0,0.0,0.0,0.0,0.0,0.0,-2.7386,-2.7258,0.0,0.0,0.0,-3.0046,-3.0854,-3.2237,-3.2481,0.0,0.0,0.0,0.0,0.0,0.0,0.0,-3.2997,-3.3545,-3.417,-3.4663,-3.4625,-3.455,-3.455,-3.5127,-3.5542,-3.5542,0.0,-3.637,-3.637,-3.637,-3.637,-3.637,-3.637,-3.642,-3.6542,-3.691,-3.7273,-3.7273,-3.8166,-3.8827,-3.8814,-3.9073,-3.949,-3.9816,-3.8155,-3.6836,-3.7023,-3.7029,-3.7308,-3.7729,-3.8575,-3.9198,-0.9805,-1.1197,-1.2283,-1.4393,-1.6856,-1.6533,-1.6433,-1.6613,-1.6346,-1.6386,-1.6633,-1.666,-1.6533,-1.6293,-1.6025,0.0,-1.6495,-1.7616,-1.8349,-1.8852,-2.0426,-2.1867,-2.3114,-2.361,-2.451,-2.5732,-2.5732,-2.5732,-2.5732,-2.5732,-2.5732,-2.5723,-2.5131,-2.4641,-2.4469,-2.4641,-2.4929,-2.5323,-2.5538,-2.5732,-2.5732,-2.5732,-2.5732,-2.5732,-2.5732,-2.5732,-2.5732,-2.5732,-2.5732,-2.5723,-2.5342,-2.5107,-2.5049,0.0,0.0,0.0,0.0,0.0,0.0,0.0,0.0,0.0,0.0,0.0,0.0,0.0,0.0,0.0,-3.1487,0.0,-3.3031,-3.3119,0.0,0.0,0.0,-3.396,-3.396,-3.4449,-3.4776,-3.4726,0.0,0.0,-3.4788,-3.5228,-3.5474,-3.5604,-3.5604,-3.5617,-3.5512,-3.6044,-3.637,-3.637,-3.637,-3.6427,-3.662,-3.6764,-3.723,-3.8068,-3.9183,-3.9683,-3.977,-3.9958,-4.0037,-4.0021,-4.012,-4.022,-4.0196,-4.0209,-4.0307,-4.0574,-3.9488,-3.8807,-3.9719,-4.0458,-4.0981,-0.9809,-1.1197,-1.2283,-1.3669,-1.5251,-1.6247,-1.6393,-1.6032,-1.5965,-1.5972,-1.6052,-1.6273,-1.646,-1.66,-1.6526,-1.7021,-1.7949,-1.8089,-1.9296,-2.1449,-2.2021,-2.3094,-2.4593,-2.5015,-2.543,-2.5732,-2.5732,-2.5732,-2.5732,-2.5732,-2.5732,-2.5732,-2.5528,-2.5383,-2.5383,-2.5383,-2.5528,-2.5635,-2.5635,-2.5732,-2.5732,-2.5732,-2.5732,-2.5732,-2.5732,-2.5732,-2.5732,-2.5732,-2.5732,-2.5732,-2.5635,-2.542,-2.5078,-2.456,0.0,0.0,0.0,0.0,0.0,0.0,0.0,0.0,0.0,-2.9033,-2.907,0.0,-3.138,0.0,-3.2287,-3.293,-3.3068,-3.3458,0.0,0.0,-3.4198,-3.4525,-3.4537,-3.5014,-3.519,-3.4763,-3.509,-3.5353,-3.5353,-3.5374,-3.5692,-3.6094,-3.6169,-3.6169,-3.6169,-3.6257,-3.637,-3.6477,-3.6477,-3.6743,-3.7543,-3.8483,-3.9108,-3.9461,-3.9711,-3.9885,-3.9885,-4.0661,-4.1197,-4.1283,-4.1922,-4.2438,-4.2386,-4.2504,-4.2298,-4.2036,-4.1317,-4.0879,-4.1141,-4.1938,-4.2648,-1.0131,-1.2177,-1.2812,-1.3942,-1.5563,-1.6262,-1.6326,-1.6019,-1.5885,-1.5825,-1.5838,-1.6005,-1.6166,-1.6313,-1.6313,-1.6988,-1.8119,-1.8494,-1.9909,-2.1886,-2.2732,-2.3699,-2.4795,-2.5225,-2.5547,-2.5732,-2.5732,-2.5732,-2.5732,-2.5732,-2.5732,-2.5732,-2.5732,-2.5732,-2.5732,-2.5732,-2.5732,-2.5732,-2.5732,-2.5732,-2.5732,-2.5732,-2.5732,-2.5732,-2.5732,-2.5732,-2.5732,-2.5732,-2.5732,-2.5732,-2.5732,-2.5625,-2.5371,-2.4941,-2.4512,0.0,0.0,0.0,0.0,0.0,0.0,0.0,0.0,0.0,0.0,0.0,-3.2276,-3.2434,-3.3032,-3.3445,-3.3432,-3.3947,-3.4274,-3.4261,-3.4763,-3.509,-3.509,-3.5579,-3.5793,-3.5491,-3.5717,-3.5906,-3.5906,-3.6332,-3.679,-3.7111,-3.7137,-3.715,-3.715,-3.7163,-3.7304,-3.7861,-3.7911,-3.8132,-3.8836,-3.9923,-4.0661,-4.0661,-4.1099,-4.1449,-4.1449,-4.1947,-4.2283,-4.2071,-4.2441,-4.2776,-4.2524,-4.2417,-4.2327,-4.2025,-4.1696,-4.1492,-4.1536,-4.2041,-4.2462,-1.057,-1.3053,-1.3264,-1.4505,-1.6432,-1.6354,-1.6279,-1.6199,-1.5939,-1.5825,-1.5825,-1.5825,-1.5825,-1.5825,-1.5825,-1.6574,-1.7956,-1.9039,-2.024,-2.167,-2.3194,-2.4092,-2.4512,-2.4951,-2.5361,-2.5732,-2.5732,-2.5732,-2.5732,-2.5732,-2.5732,-2.5732,-2.5732,-2.5732,-2.5732,-2.5732,-2.5732,-2.5732,-2.5732,-2.5732,-2.5732,-2.5732,-2.5732,-2.5732,-2.5732,-2.5732,-2.5732,-2.5732,-2.5732,-2.5732,-2.5732,-2.5732,-2.5723,-2.5312,-2.4893,0.0,-2.4274,0.0,0.0,0.0,0.0,0.0,0.0,0.0,0.0,-3.2201,-3.3169,-3.3181,-3.3671,-3.401,-3.401,-3.45,-3.4826,-3.4839,-3.5328,-3.5642,-3.568,-3.6081,-3.637,-3.637,-3.637,-3.6465,-3.6696,-3.7494,-3.8107,-3.8289,-3.8302,-3.8469,-3.8545,-3.8289,-3.8437,-3.9721,-4.0035,-3.9979,-4.0162,-4.1056,-4.185,-4.1947,-4.2431,-4.321,-4.3006,-4.2996,-4.2851,-4.2389,-4.2207,-4.2089,-4.1505,-4.149,-4.1369,-4.1294,-4.1204,-4.1264,-4.1368,-4.1428,-4.1384,-0.9915,-1.1651,-1.2832,-1.4071,-1.536,-1.6238,-1.6346,-1.5912,-1.5858,-1.5825,-1.5825,-1.5825,-1.5825,-1.5825,-1.5825,-1.7023,-1.9139,-1.9405,-2.0849,-2.3304,-2.4001,-2.4521,-2.4961,-2.54,-2.5654,-2.5732,-2.5732,-2.5732,-2.5732,-2.5732,-2.5732,-2.5732,-2.5732,-2.5732,-2.5732,0.0,0.0,0.0,-2.5732,-2.5732,-2.5732,-2.5732,-2.5732,-2.5732,-2.5732,0.0,-2.5732,-2.5732,-2.5732,-2.5732,-2.5732,0.0,0.0,0.0,0.0,0.0,0.0,0.0,0.0,0.0,0.0,0.0,-3.0081,-3.1392,-3.161,-3.2934,-3.3746,-3.3771,-3.4248,-3.4575,-3.4575,-3.5064,-3.5391,-3.5311,-3.5881,-3.6194,-3.6207,-3.6307,-3.637,-3.637,-3.6452,-3.679,-3.7625,-3.8017,-3.8442,-3.9332,-3.9549,-3.9958,-4.0802,-3.9332,-3.8652,-3.9707,-4.0731,-4.1276,-4.1279,-4.2193,-4.2841,-4.2936,-4.2678,-4.2581,-4.2506,-4.2117,-4.1773,-4.1625,-4.1564,-4.1534,-4.1385,-4.1445,-4.1145,-4.0696,-4.0591,-4.0756,-4.1265,-4.1369,-4.1384,-1.0241,0.0,-1.2822,-1.4135,0.0,-1.6308,-1.6239,-1.5825,-1.5825,-1.5825,-1.5825,-1.5825,-1.5825,-1.5825,-1.5825,-1.6842,-1.8688,-1.9402,-2.0885,-2.2966,-2.3934,-2.4648,-2.5068,-2.5303,-2.5518,-2.5732,-2.5732,-2.5732,-2.5732,-2.5732,-2.5732,-2.5732,-2.5732,-2.5732,-2.5732,-2.5732,-2.5732,-2.5732,-2.5732,-2.5732,-2.5732,-2.5732,-2.5732,-2.5732,-2.5732,0.0,0.0,0.0,0.0,0.0,0.0,0.0,0.0,0.0,0.0,-2.5078,-2.5051,-2.5016,-2.5202,-2.6982,-2.8344,-2.8846,-3.0973,-3.2386,-3.2484,-3.3082,-3.3608,-3.3884,-3.4399,-3.4839,-3.5115,-3.5617,-3.5943,-3.5968,-3.6194,-3.637,-3.6427,-3.6641,-3.6739,-3.6792,-3.7,-3.7427,-3.7927,-3.8546,-3.9197,-4.0069,-4.0294,-4.0743,-4.1971,-4.0986,-4.029,-4.1337,-4.2003,-4.2465,-4.2445,-4.2589,-4.2865,-4.2776,-4.2312,-4.1923,-4.1863,-4.1609,-4.1294,-4.0995,-4.0905,-4.0831,-4.0487,-4.0412,-4.0307,-4.0008,-3.9903,-4.0008,-4.0352,-4.0412,-4.0412,-1.0562,-1.3249,-1.2916,-1.4263,-1.6687,-1.64,-1.6106,-1.5825,0.0,0.0,0.0,-1.5905,-1.5932,-1.5979,-1.5985,-1.6728,-1.8239,-1.9617,-2.101,-2.2621,-2.3903,-2.4766,-2.5176,-2.5195,-2.5371,-2.5723,-2.5732,-2.5732,-2.5732,-2.5732,-2.5732,-2.5732,-2.5732,-2.5732,-2.5732,-2.5732,-2.5732,-2.5732,-2.5732,-2.5732,-2.5732,-2.5732,-2.5732,-2.5732,-2.5732,-2.5732,-2.5732,-2.5732,-2.5732,-2.5732,-2.5732,-2.5732,-2.5732,-2.5732,-2.5576,-2.5225,-2.5185,-2.5281,-2.5545,-2.7645,-2.9263,-3.0022,-3.1877,-3.3081,-3.3081,-3.3169,-3.342,-3.3859,-3.4412,-3.4914,-3.5353,-3.5793,-3.6081,-3.6069,-3.6069,-3.615,-3.6392,-3.6716,-3.7016,-3.7215,-3.7632,-3.7979,-3.8269,-3.9035,-3.9873,-4.0509,-4.0749,-4.1244,-4.2441,-4.2144,-4.1805,-4.2456,-4.2544,-4.2851,-4.2895,-4.2551,-4.2207,-4.2177,-4.1639,-4.1235,-4.119,-4.1115,-4.0831,-4.0322,-4.0217,-4.0008,-3.9574,-3.9514,-3.9424,-3.9424,-3.9424,-3.9424,-3.9424,-3.9439,-3.9484,-1.0672,-1.3244,-1.2916,-1.4361,-1.668,-1.64,-1.6106,-1.5832,-1.5825,-1.5972,-1.6213,-1.6213,-1.6346,-1.6587,-1.658,-1.7934,-2.0134,-2.0471,-2.2013,-2.46,-2.4847,-2.5205,-2.5625,-2.5644,-2.5674,-2.5732,-2.5732,-2.5732,-2.5732,-2.5732,-2.5732,-2.5732,-2.5732,-2.5732,-2.5732,-2.5732,-2.5732,-2.5732,-2.5732,-2.5732,-2.5732,-2.5732,-2.5732,-2.5732,-2.5732,-2.5732,-2.5732,-2.5732,-2.5732,-2.5732,-2.5732,-2.5732,-2.5732,-2.5732,-2.5713,-2.5644,-2.5635,-2.6108,-2.7201,-2.8582,-3.0247,-3.2326,-3.2884,-3.3081,-3.3093,-3.3508,-3.3822,-3.3922,-3.4387,-3.4751,-3.4851,-3.4951,-3.5027,-3.4989,-3.4977,-3.5301,-3.6194,-3.6503,-3.6844,-3.767,-3.7867,-3.8323,-3.9093,-3.9455,-3.9973,-4.0985,-4.1166,-4.1411,-4.1652,-4.1995,-4.207,-4.1758,-4.1686,-4.1671,-4.182,-4.1624,-4.1519,-4.1534,-4.098,-4.0531,-4.0546,-4.0172,-3.9813,-3.9604,-3.9619,-3.9559,-3.9424,-3.9424,-3.9424,-3.9424,-3.9424,-3.9424,-3.9424,-3.9424,-3.9424,-1.0421,-1.2834,-1.261,-1.4044,-1.6446,-1.6159,-1.6052,-1.6066,-1.6066,-1.6139,-1.6266,-1.6273,-1.6433,-1.6693,-1.6707,-1.7775,-1.9618,-2.0476,-2.2118,-2.4096,-2.5025,-2.5537,-2.5713,-2.5732,-2.5732,-2.5732,-2.5732,-2.5732,-2.5732,-2.5732,-2.5732,-2.5732,-2.5732,-2.5732,-2.5732,-2.5732,-2.5732,-2.5732,-2.5732,-2.5732,-2.5732,-2.5732,-2.5732,-2.5732,-2.5732,-2.5732,-2.5732,-2.5732,-2.5732,-2.5732,-2.5732,-2.5732,-2.5732,-2.5732,-2.5732,-2.5732,-2.5732,-2.6294,-2.7494,-2.9315,-3.1134,-3.2884,-3.3081,-3.3081,-3.3081,-3.3294,-3.3571,-3.3859,-3.4135,-3.4412,-3.4688,-3.4726,-3.4726,-3.4726,-3.5226,-3.5719,-3.6253,-3.7164,-3.781,-3.8239,-3.8553,-3.8938,-3.9411,-3.9501,-3.9829,-4.0696,-4.1115,-4.1235,-4.0891,-4.107,-4.1385,-4.1415,-4.14,-4.1385,-4.14,-4.1055,-4.0876,-4.0846,-4.0307,-3.9918,-3.9858,-3.9559,-3.9469,-3.9424,-3.9424,-3.9424,-3.9424,-3.9424,-3.9424,-3.9424,-3.9424,-3.9424,-3.9424,-3.9424,-3.9424,-1.0237,-1.2715,-1.2329,-1.3737,-1.6159,-1.5925,-1.5999,-1.6266,-1.6273,-1.6346,-1.6466,-1.6473,-1.6627,-1.6887,-1.6907,-1.7788,-1.9391,-2.0702,-2.2227,-2.3869,-2.5082,-2.5732,-2.5732,-2.5732,-2.5732,-2.5732,-2.5732,-2.5732,-2.5732,-2.5732,-2.5732,-2.5732,-2.5732,-2.5732,-2.5732,-2.5732,-2.5732,-2.5732,-2.5732,-2.5732,-2.5732,-2.6024,-2.611,-2.611,-2.61,-2.611,-2.611,-2.583,-2.5732,-2.5732,-2.5732,-2.5732,-2.5732,-2.5732,-2.5732,-2.5732,-2.5732,-2.638,-2.7945,-2.9954,-3.1777,-3.2982,-3.3081,-3.3081,-3.3081,-3.3081,-3.3244,-3.3646,-3.3709,-3.3884,-3.4211,-3.4324,-3.4438,-3.4679,-3.5418,-3.6101,-3.668,-3.7784,-3.8626,-3.8721,-3.9136,-3.9382,-3.9424,-3.9424,-3.9576,-4.0142,-4.0636,-4.0681,-4.0292,-4.0172,-4.0412,-4.0726,-4.098,-4.089,-4.0891,-4.0531,-4.0217,-4.0172,-3.9783,-3.9544,-3.9469,-3.9439,-3.9424,-3.9424,-3.9424,-3.9424,-3.9424,-3.9424,-3.9424,-3.9424,-3.9424,-3.9424,-3.9424,-3.9424,-3.9424,-1.0156,-1.2387,-1.2259,-1.363,-1.579,-1.5838,-1.5999,-1.6266,-1.6279,-1.658,-1.7034,-1.7074,-1.7215,-1.7475,-1.7482,-1.889,-2.1208,-2.1585,-2.3006,-2.5149,-2.5616,-2.5732,-2.5732,-2.5732,-2.5732,-2.5732,-2.5732,-2.5732,-2.5732,-2.5732,-2.5732,-2.5732,-2.5732,-2.5732,-2.5732,-2.5732,-2.5732,-2.5732,-2.5732,-2.5732,-2.5732,-2.6849,-2.74,-2.74,-2.74,-2.741,-2.721,-2.6304,-2.5732,-2.5732,-2.5732,-2.5732,-2.5732,-2.5732,-2.5732,-2.5732,-2.5732,-2.6754,-2.9039,-3.0485,-3.1777,-3.2896,-3.3081,-3.3081,-3.3081,-3.3081,-3.3081,-3.3181,-3.3169,-3.3232,-3.3232,-3.3282,-3.3751,-3.4575,-3.4954,-3.5548,-3.7275,-3.7806,-3.8246,-3.9266,-3.9324,-3.9424,-3.9424,-3.9424,-3.9454,-3.9589,-3.9738,-3.9798,-3.9679,-3.9619,-3.9619,-3.9679,-3.9619,-3.9664,-3.9709,-3.9604,-3.9604,-3.9574,-3.9499,-3.9424,-3.9424,-3.9424,-3.9424,-3.9424,-3.9424,-3.9424,-3.9424,-3.9424,-3.9424,-3.9424,-3.9424,-3.9424,-3.9424,-3.9424,-3.9424,-0.9472,-1.1268,-1.1771,-1.3488,-1.5642,-1.5825,-1.6099,-1.6513,-1.6526,-1.6854,-1.7368,-1.7402,-1.7475,-1.7589,-1.7589,-1.8708,-2.0436,-2.1347,-2.2676,-2.451,-2.5323,-2.5732,-2.5732,-2.5732,-2.5732,-2.5732,-2.5732,-2.5732,-2.5732,-2.5732,-2.5732,-2.5732,-2.5732,-2.5732,-2.5732,-2.5732,-2.5732,-2.5732,-2.5732,-2.6014,-2.6754,-2.7315,-2.7589,-2.7673,-2.8319,-2.7861,-2.6658,-2.6668,-2.6476,-2.583,-2.5732,-2.5732,-2.5732,-2.5732,-2.5732,-2.583,-2.7115,-2.8308,-2.9315,-3.1235,-3.2525,-3.3068,-3.3081,-3.3081,-3.3081,-3.3081,-3.3081,-3.3081,-3.3081,-3.3081,-3.3081,-3.3081,-3.3556,-3.4511,-3.521,-3.6146,-3.7587,-3.8397,-3.8943,-3.9352,-3.9424,-3.9424,-3.9424,-3.9424,-3.9424,-3.9424,-3.9424,-3.9424,-3.9424,-3.9424,-3.9424,-3.9424,-3.9424,-3.9424,-3.9424,-3.9424,-3.9424,-3.9424,-3.9424,-3.9424,-3.9424,-3.9424,-3.9424,-3.9424,-3.9424,-3.9424,-3.9424,-3.9424,-3.9424,-3.9424,-3.9424,-3.9424,-3.9424,-3.9424,-3.9424,-0.9202,-1.0771,-1.2361,-1.4183,-1.5863,-1.6039,-1.6353,-1.6794,-1.6834,-1.7114,-1.7562,-1.7589,-1.7589,-1.7589,-1.7589,-1.8304,-1.9627,-2.1041,-2.2458,-2.3791,-2.5118,-2.5732,-2.5732,-2.5732,-2.5732,-2.5732,-2.5732,-2.5732,-2.5732,-2.5732,-2.5732,-2.5732,-2.5732,-2.5732,-2.5732,-2.6014,-2.6197,-2.6304,-2.6466,-2.7295,-2.8402,-2.8588,-2.8588,-2.868,-2.9407,-2.8855,-2.6839,-2.7305,-2.703,-2.5732,-2.5732,-2.5732,-2.5732,-2.5732,-2.5732,-2.582,-2.74,-2.8669,-2.9315,-3.1045,-3.2426,-3.2995,-3.3081,-3.3081,-3.3081,-3.3081,-3.3081,-3.3081,-3.3081,-3.3081,-3.3081,-3.3081,-3.3628,-3.4897,-3.5814,-3.6696,-3.8069,-3.9017,-3.9352,-3.9424,-3.9424,-3.9424,-3.9424,-3.9424,-3.9424,-3.9424,-3.9424,-3.9424,-3.9424,-3.9424,-3.9424,-3.9424,-3.9424,-3.9424,-3.9424,-3.9424,-3.9424,-3.9424,-3.9424,-3.9424,-3.9424,-3.9424,-3.9424,-3.9424,-3.9424,-3.9424,-3.9424,-3.9424,-3.9424,-3.9424,-3.9424,-3.9424,-3.9424,-3.9424,-3.9424,-0.9517,-1.2093,-1.485,-1.5947,-1.6273,-1.6526,-1.682,-1.7101,-1.7217,-1.7301,-1.7562,-1.7589,-1.7589,-1.7589,-1.7589,-1.8304,-1.9627,-2.1041,-2.2458,-2.3791,-2.5118,-2.5732,-2.5732,-2.5732,-2.5732,-2.5732,-2.5732,-2.5732,-2.5732,-2.5732,-2.5732,-2.5732,-2.5732,-2.5732,-2.583,-2.6764,-2.7494,-2.7494,-2.8308,-2.967,-3.0765,-3.0944,-3.0866,-3.0956,-3.1033,-3.0406,-2.9131,-2.8143,-2.704,-2.5732,-2.5732,-2.5732,-2.5732,-2.5732,-2.5732,-2.582,-2.5907,-2.7125,-2.9131,-2.9863,-3.0777,-3.2711,-3.3081,-3.3081,-3.3081,-3.3081,-3.3081,-3.3081,-3.3081,-3.3081,-3.3068,-3.324,-3.4011,-3.5748,-3.6119,-3.7175,-3.9031,-3.9265,-3.9424,-3.9424,-3.9424,-3.9424,-3.9424,-3.9424,-3.9424,-3.9424,-3.9424,-3.9424,-3.9424,-3.9424,-3.9424,-3.9424,-3.9424,-3.9424,-3.9424,-3.9424,-3.9424,-3.9424,-3.9424,-3.9424,-3.9424,-3.9424,-3.9424,-3.9424,-3.9424,-3.9424,-3.9424,-3.9424,-3.9424,-3.9424,-3.9424,-3.9424,-3.9424,-3.9424,-3.9424,-0.9509,-1.1986,-1.3336,-1.4823,-1.6306,-1.658,-1.6874,-1.7244,-1.725,-1.7315,-1.7549,-1.7589,-1.7589,-1.7589,-1.7589,-1.8304,-1.9627,-2.1041,-2.2458,-2.3791,-2.5118,-2.5732,-2.5732,-2.5732,-2.5732,-2.5732,-2.5732,-2.5732,-2.5732,-2.5732,-2.5732,-2.5732,-2.5732,-2.5732,-2.583,-2.611,-2.6754,-2.7589,-2.8038,-2.9235,-3.1009,-3.1223,-3.1589,-3.2326,-3.1589,-3.0214,-2.8319,-2.7861,-2.704,-2.5732,-2.5732,-2.5732,-2.5732,-2.5732,-2.611,-2.6839,-2.7673,-2.8762,-3.0316,-3.1323,-3.2152,-3.2896,-3.3081,-3.3081,-3.3081,-3.3081,-3.3081,-3.3081,-3.3081,-3.3081,-3.324,-3.3713,-3.4637,-3.5974,-3.6852,-3.7738,-3.8943,-3.9424,-3.9424,-3.9424,-3.9424,-3.9424,-3.9424,-3.9424,-3.9424,-3.9424,-3.9424,-3.9424,-3.9424,-3.9424,-3.9424,-3.9424,-3.9424,-3.9424,-3.9424,-3.9424,-3.9424,-3.9424,-3.9424,-3.9424,-3.9424,-3.9424,-3.9424,-3.9424,-3.9424,-3.9424,-3.9424,-3.9424,-3.9424,-3.9424,-3.9424,-3.9424,-3.9424,-3.9424,-3.9424,-0.9949,-1.1933,-1.2999,-1.4517,-1.6368,-1.682,-1.7101,-1.7288,-1.7295,-1.7402,-1.7562,-1.7589,-1.7589,-1.7589,-1.7589,-1.8304,-1.9627,-2.1041,-2.2148,-2.3176,-2.4913,-2.5732,-2.5713,-2.5596,-2.5527,-2.5488,-2.5371,-2.5312,-2.5322,-2.5312,-2.5303,-2.5293,-2.5312,-2.5312,-2.5312,-2.5684,-2.6505,-2.7498,-2.8039,-2.9285,-3.0997,-3.1257,-3.1442,-3.1724,-3.0823,-2.9635,-2.8193,-2.7861,-2.703,-2.5917,-2.5732,-2.5732,-2.5732,-2.5732,-2.611,-2.6935,-2.8121,-2.9315,-3.0586,-3.1777,-3.2612,-3.3081,-3.3081,-3.3081,-3.3081,-3.3081,-3.3081,-3.3081,-3.3081,-3.3154,-3.3713,-3.4581,-3.544,-3.6212,-3.7175,-3.8234,-3.9265,-3.9424,-3.9424,-3.9424,-3.9424,-3.9424,-3.9424,-3.9424,-3.9424,-3.9424,-3.9424,-3.9424,-3.9424,-3.9424,-3.9424,-3.9424,-3.9424,-3.9424,-3.9424,-3.9424,-3.9424,-3.9424,-3.9424,-3.9424,-3.9424,-3.9424,-3.9424,-3.9424,-3.9424,-3.9424,-3.9424,-3.9424,-3.9424,-3.9424,-3.9424,-3.9424,-3.9424,-3.9424,-3.9424,-1.0753,-1.2165,-1.4095,-1.5499,-1.6693,-1.7275,-1.7555,-1.7549,-1.7562,-1.7555,-1.7589,-1.7589,-1.7589,-1.7589,-1.7589,-1.8304,-1.9517,-2.0899,-2.1795,-2.2206,-2.4347,-2.5548,-2.5499,-2.5234,-2.5068,-2.5049,-2.4648,-2.4473,-2.4541,-2.456,-2.4541,-2.4482,-2.4541,-2.459,-2.4463,-2.5523,-2.6694,-2.7789,-2.8879,-3.0134,-3.1235,-3.143,-3.103,-3.0134,-2.9005,-2.862,-2.9192,-2.8068,-2.6873,-2.5877,-2.5723,-2.5732,-2.5732,-2.5732,-2.5732,-2.611,-2.7125,-2.8226,-2.9498,-3.0855,-3.214,-3.2884,-3.3081,-3.3081,-3.3081,-3.3081,-3.3081,-3.3081,-3.3167,-3.3484,-3.4511,-3.5426,-3.6132,-3.6355,-3.7343,-3.8383,-3.9104,-3.9424,-3.9424,-3.9424,-3.9424,-3.9424,-3.9424,-3.9424,-3.9424,-3.9424,-3.9424,-3.9424,-3.9424,-3.9424,-3.9424,-3.9424,-3.9424,-3.9424,-3.9424,-3.9424,-3.9424,-3.9424,-3.9424,-3.9424,-3.9424,-3.9424,-3.9424,-3.9424,-3.9424,-3.9424,-3.9424,-3.9424,-3.9424,-3.9424,-3.9424,-3.9424,-3.9424,-3.9424,-3.9424,-1.0243,-1.2238,-1.323,-1.4988,-1.6952,-1.7422,-1.7589,-1.7589,-1.7589,-1.7589,-1.7589,-1.7589,-1.7589,-1.7589,-1.7589,-1.7786,-1.8387,-2.0194,-2.1677,-2.2565,-2.3472,-2.423,-2.4665,-2.4687,-2.4609,-2.46,-2.4492,-2.4414,-2.4394,-2.4394,-2.4424,-2.4424,-2.4404,-2.4424,-2.4375,-2.4854,-2.5823,-2.7754,-2.8275,-2.94,-3.121,-3.1373,-3.121,-3.0787,-2.9738,-2.889,-2.8299,-2.6743,-2.572,-2.5283,-2.5566,-2.5732,-2.5732,-2.5732,-2.611,-2.703,-2.8132,-2.9315,-3.0586,-3.1789,-3.2612,-3.2982,-3.3081,-3.3081,-3.3081,-3.3081,-3.3081,-3.3081,-3.3167,-3.3569,-3.4594,-3.5588,-3.6526,-3.7252,-3.8219,-3.8943,-3.9265,-3.9424,-3.9424,-3.9424,-3.9424,-3.9424,-3.9424,-3.9424,-3.9409,-3.9364,-3.9364,-3.9379,-3.9379,-3.9275,-3.9424,-3.9424,-3.9424,-3.9245,-3.911,-3.905,-3.9095,-3.923,-3.9334,-3.9409,-3.9424,-3.9424,-3.9424,-3.9424,-3.9424,-3.9424,-3.9424,-3.9424,-3.9424,-3.9424,-3.9424,-3.9424,-3.9424,-3.9424,-3.9424,-0.9916,-1.2435,-1.2878,-1.4607,-1.7078,-1.7462,-1.7589,-1.7589,-1.7589,-1.7589,-1.7589,-1.7589,-1.7589,-1.7589,-1.7589,-1.783,-1.8219,-1.9714,-2.1064,-2.2536,-2.3312,-2.3881,-2.4302,-2.4248,-2.4072,-2.3955,-2.3945,-2.3935,-2.3945,-2.3945,-2.3935,-2.3935,-2.3945,-2.3926,-2.3935,-2.3945,-2.5061,-2.7048,-2.7368,-2.8489,-3.0276,-3.0796,-3.0623,-3.0089,-2.9,-2.7889,-2.6725,-2.532,-2.4668,-2.4863,-2.5244,-2.5478,-2.5498,-2.5625,-2.6294,-2.7494,-2.868,-2.9863,-3.1134,-3.2326,-3.3081,-3.3081,-3.3081,-3.3081,-3.3081,-3.3081,-3.3081,-3.3081,-3.3471,-3.4108,-3.521,-3.6225,-3.7252,-3.8294,-3.8929,-3.9352,-3.9424,-3.9424,-3.9424,-3.9424,-3.9424,-3.9424,-3.9424,-3.9424,-3.929,-3.914,-3.9035,-3.8856,-3.8781,-3.8616,-3.868,-3.8668,-3.8489,-3.8471,-3.8601,-3.8646,-3.8721,-3.896,-3.9215,-3.9334,-3.9424,-3.9424,-3.9424,-3.9424,-3.9424,-3.9424,-3.9424,-3.9424,-3.9424,-3.9424,-3.9424,-3.9424,-3.9424,-3.9424,-3.9424,-1.0096,-1.2525,-1.3049,-1.4734,-1.7118,-1.7475,-1.7589,-1.7589,-1.7589,-1.7589,-1.7589,-1.7589,-1.7562,-1.7549,-1.7515,-1.7881,-1.8752,-1.8929,-1.9989,-2.1661,-2.301,-2.3953,-2.416,-2.3887,-2.3594,-2.3301,-2.3242,-2.3213,-2.3291,-2.3281,-2.3144,-2.3252,-2.3271,-2.3174,-2.3271,-2.3164,-2.4247,-2.6118,-2.6407,-2.7487,-2.9398,-2.953,-2.9113,-2.8111,-2.7231,-2.6263,-2.5157,-2.4313,-2.4014,-2.4404,-2.4834,-2.5059,-2.5146,-2.5478,-2.6214,-2.7463,-2.8773,-2.9954,-3.1134,-3.2426,-3.3081,-3.3081,-3.3081,-3.3081,-3.3081,-3.3081,-3.3081,-3.3154,-3.3797,-3.4897,-3.5908,-3.6852,-3.7875,-3.903,-3.9277,-3.9409,-3.9424,-3.9379,-3.9245,-3.926,-3.9334,-3.9275,-3.911,-3.9125,-3.8871,-3.8527,-3.8332,-3.8108,-3.7853,-3.7739,-3.75,-3.7545,-3.7804,-3.7863,-3.8045,-3.8033,-3.8108,-3.8302,-3.8646,-3.8945,-3.929,-3.9394,-3.9424,-3.9424,-3.9424,-3.9424,-3.9424,-3.9424,-3.9424,-3.9424,-3.9424,-3.9424,-3.9424,-3.9409,-3.9364,-1.1196,-1.2939,-1.4173,-1.5787,-1.735,-1.7562,-1.7589,-1.7589,-1.7589,-1.7589,-1.7582,-1.7589,-1.7455,-1.7281,-1.7261,-1.7306,-1.7631,-1.8076,-1.9039,-2.0407,-2.1572,-2.2645,-2.3279,-2.3379,-2.3271,-2.3144,-2.3144,-2.3144,-2.3144,-2.3144,-2.3144,-2.3144,-2.3144,-2.3144,-2.3144,-2.3144,-2.38,-2.5052,-2.5294,-2.5964,-2.7139,-2.7464,-2.7221,-2.6964,-2.6637,-2.5891,-2.4787,-2.3824,-2.3672,-2.4346,-2.4502,-2.4746,-2.499,-2.5166,-2.6009,-2.7453,-2.874,-2.9931,-3.1122,-3.2426,-3.3068,-3.3081,-3.3081,-3.3081,-3.3081,-3.3081,-3.3081,-3.3154,-3.3484,-3.4332,-3.5814,-3.6498,-3.7358,-3.8424,-3.9005,-3.9305,-3.926,-3.896,-3.8646,-3.8616,-3.8257,-3.8093,-3.8063,-3.8048,-3.7958,-3.7734,-3.7644,-3.7554,-3.724,-3.718,-3.7035,-3.7297,-3.7494,-3.7481,-3.7458,-3.7466,-3.7479,-3.7614,-3.7928,-3.8332,-3.8826,-3.9305,-3.9364,-3.9424,-3.9424,-3.9424,-3.9424,-3.9424,-3.9424,-3.9424,-3.932,-3.9275,-3.9364,-3.9379,-3.9218,-1.1111,-1.3158,-1.3919,-1.5614,-1.7463,-1.7589,-1.7589,-1.7589,-1.7589,-1.7589,-1.7562,-1.7448,-1.7308,-1.725,-1.7021,-1.7095,-1.7394,-1.7874,-1.8752,-1.9769,-2.087,-2.198,-2.2882,-2.3144,-2.3144,-2.3144,-2.3144,-2.3144,-2.3144,-2.3144,-2.3144,-2.3144,-2.3144,-2.3144,-2.3144,-2.3135,-2.3627,-2.4628,-2.4882,-2.5389,-2.6389,-2.6483,-2.6483,-2.6389,-2.6058,-2.5221,-2.4135,-2.3474,-2.3398,-2.3818,-2.4053,-2.4277,-2.4512,-2.4717,-2.5724,-2.7543,-2.8619,-2.9814,-3.1399,-3.2537,-3.3068,-3.3081,-3.3081,-3.3081,-3.3081,-3.3081,-3.3081,-3.3167,-3.3771,-3.4952,-3.5919,-3.669,-3.7345,-3.7927,-3.8332,-3.8571,-3.8571,-3.8197,-3.7988,-3.7868,-3.7659,-3.7404,-3.7389,-3.7375,-3.7255,-3.7105,-3.7015,-3.6836,-3.6596,-3.6671,-3.6686,-3.6776,-3.6761,-3.6595,-3.6592,-3.6543,-3.6791,-3.6941,-3.7255,-3.7659,-3.8093,-3.8766,-3.8922,-3.8967,-3.9218,-3.9364,-3.926,-3.9275,-3.9424,-3.9364,-3.9215,-3.902,-3.899,-3.8832,-3.8788,-1.0584,-1.3357,-1.3254,-1.4878,-1.7351,-1.7589,-1.7589,-1.7575,-1.7522,-1.7515,-1.7455,-1.7221,-1.7054,-1.715,-1.6747,-1.7078,-1.775,-1.761,-1.848,-1.9604,-2.0944,-2.2208,-2.296,-2.3144,-2.3144,-2.3144,-2.3144,-2.3144,-2.3144,-2.3144,-2.3144,-2.3144,-2.3144,-2.3144,-2.3144,-2.3135,-2.3627,-2.4286,-2.4467,-2.4798,-2.5557,-2.5724,-2.5724,-2.5557,-2.5052,-2.4221,-2.3474,-2.3144,-2.3193,-2.3154,-2.3525,-2.375,-2.3848,-2.4199,-2.5542,-2.7348,-2.8487,-2.966,-3.1648,-3.2431,-3.2817,-3.2754,-3.278,-3.2905,-3.2767,-3.2704,-3.2717,-3.2692,-3.4603,-3.5155,-3.5953,-3.717,-3.7723,-3.7494,-3.736,-3.7315,-3.724,-3.727,-3.7315,-3.7285,-3.727,-3.721,-3.721,-3.7165,-3.6971,-3.6432,-3.6357,-3.6237,-3.6058,-3.6013,-3.5953,-3.5863,-3.5789,-3.5639,-3.5594,-3.5624,-3.5983,-3.6282,-3.6611,-3.6956,-3.7135,-3.7635,-3.8106,-3.8347,-3.8448,-3.868,-3.8811,-3.8945,-3.908,-3.8916,-3.8482,-3.8362,-3.8302,-3.8061,-3.7961,-1.1567,-1.3372,-1.4495,-1.5901,-1.747,-1.7589,-1.7582,-1.7555,-1.7335,-1.7261,-1.7174,-1.6934,-1.6687,-1.6486,-1.64,-1.6393,-1.6436,-1.6599,-1.734,-1.9704,-2.1765,-2.2677,-2.3144,-2.3144,-2.3144,-2.3144,-2.3144,-2.3144,-2.3144,-2.3144,-2.3144,-2.3144,-2.3144,-2.3144,-2.3144,-2.3135,-2.3135,-2.3464,-2.3464,-2.3724,-2.3887,-2.4059,-2.4059,-2.3973,-2.3714,-2.3474,-2.3222,-2.3144,-2.3144,-2.3164,-2.3252,-2.3457,-2.3701,-2.3857,-2.5163,-2.7173,-2.8038,-2.9137,-3.1091,-3.1725,-3.1775,-3.1863,-3.1888,-3.175,-3.175,-3.1813,-3.18,-3.1833,-3.2204,-3.3608,-3.4996,-3.659,-3.7079,-3.6866,-3.6671,-3.6507,-3.6148,-3.6372,-3.6656,-3.6596,-3.6297,-3.5938,-3.5953,-3.6043,-3.5923,-3.5729,-3.5714,-3.5654,-3.5579,-3.5504,-3.5489,-3.5489,-3.5489,-3.5489,-3.5489,-3.5489,-3.5654,-3.5863,-3.6103,-3.6282,-3.6462,-3.6776,-3.7297,-3.757,-3.7664,-3.7923,-3.8227,-3.8063,-3.8093,-3.7898,-3.7793,-3.7704,-3.756,-3.7392,-3.7159,-1.0895,-1.2403,-1.3798,-1.5204,-1.6499,-1.7259,-1.7502,-1.7368,-1.7221,-1.7068,-1.6894,-1.6633,-1.6413,-1.6259,-1.6126,-1.5965,-1.6048,-1.648,-1.7677,-1.9588,-2.14,-2.2492,-2.3047,-2.3144,-2.3144,-2.3135,-2.3144,-2.3144,-2.3144,-2.3144,-2.3144,-2.3144,-2.3144,-2.3144,-2.3144,-2.3144,-2.3135,-2.3135,-2.3144,-2.3144,-2.3144,-2.3144,-2.3144,-2.3144,-2.3144,-2.3144,-2.3144,-2.3144,-2.3144,-2.3144,-2.3144,-2.3223,-2.3418,-2.3486,-2.481,-2.6689,-2.7588,-2.8687,-3.0347,-3.1248,-3.1411,-3.1361,-3.1373,-3.1386,-3.1386,-3.1386,-3.1386,-3.1605,-3.2369,-3.359,-3.5167,-3.6087,-3.6604,-3.6207,-3.6028,-3.5863,-3.5654,-3.5818,-3.6013,-3.5968,-3.5774,-3.5609,-3.5504,-3.5489,-3.5504,-3.5624,-3.5624,-3.5564,-3.5564,-3.5489,-3.5489,-3.5489,-3.5489,-3.5489,-3.5489,-3.5489,-3.5489,-3.5609,-3.5699,-3.5774,-3.5863,-3.6207,-3.6529,-3.6828,-3.7044,-3.7396,-3.7638,-3.736,-3.7285,-3.7434,-3.7389,-3.7135,-3.6896,-3.6581,-3.6403,-0.9809,-1.1214,-1.2403,-1.389,-1.5358,-1.6641,-1.712,-1.7094,-1.7027,-1.6827,-1.662,-1.6333,-1.6186,-1.6146,-1.5959,-1.5838,-1.6197,-1.7397,-1.868,-1.9579,-2.1212,-2.2306,-2.294,-2.3047,-2.2978,-2.3047,-2.3115,-2.3135,-2.3144,-2.3144,-2.3144,-2.3144,-2.3144,-2.3144,-2.3144,-2.3144,-2.3144,-2.3144,-2.3144,-2.3144,-2.3144,-2.3144,-2.3144,-2.3144,-2.3144,-2.3144,-2.3144,-2.3144,-2.3144,-2.3144,-2.3144,-2.3144,-2.3144,-2.3222,-2.3973,-2.6102,-2.6741,-2.8068,-2.967,-3.0636,-3.1035,-3.1148,-3.111,-3.1097,-3.1072,-3.0997,-3.0984,-3.1611,-3.246,-3.4088,-3.5722,-3.6179,-3.6007,-3.5699,-3.5519,-3.5489,-3.5489,-3.5489,-3.5564,-3.5564,-3.5564,-3.5519,-3.5489,-3.5489,-3.5489,-3.5489,-3.5489,-3.5489,-3.5489,-3.5489,-3.5489,-3.5489,-3.5489,-3.5489,-3.5489,-3.5489,-3.5489,-3.5489,-3.5489,-3.5489,-3.5489,-3.5744,-3.6103,-3.634,-3.6595,-3.6865,-3.6918,-3.6753,-3.6746,-3.7,-3.6851,-3.6432,-3.6118,-3.5833,-3.5774,-0.9809,-1.1109,-1.1324,-1.2842,-1.4902,-1.5315,-1.6003,-1.666,-1.6547,-1.64,-1.6313,-1.6046,-1.5925,-1.5899,-1.5872,-1.5825,-1.6257,-1.7702,-1.9066,-1.9777,-2.13,-2.2659,-2.2862,-2.2725,-2.2617,-2.2715,-2.2871,-2.3027,-2.3057,-2.3144,-2.2998,-2.3086,-2.3066,-2.3057,-2.3076,-2.3135,-2.3105,-2.3135,-2.3144,-2.3144,-2.3144,-2.3144,-2.3144,-2.3144,-2.3144,-2.3144,-2.3144,-2.3144,-2.3144,-2.3144,-2.3144,-2.3144,-2.3144,-2.3144,-2.38,-2.4988,-2.6085,-2.7181,-2.8611,-2.9534,-3.0002,-3.0055,-3.0168,-3.0143,-3.0131,-3.0209,-3.0401,-3.0843,-3.1889,-3.3112,-3.3213,-3.4888,-3.5589,-3.5504,-3.5489,-3.5489,-3.5489,-3.5489,-3.5489,-3.5489,-3.5489,-3.5489,-3.5489,-3.5489,-3.5489,-3.5489,-3.5489,-3.5489,-3.5489,-3.5489,-3.5489,-3.5489,-3.5489,-3.5489,-3.5489,-3.5489,-3.5489,-3.5489,-3.5489,-3.5489,-3.5489,-3.5489,-3.5704,-3.5899,-3.5899,-3.5989,-3.5968,-3.6013,-3.6043,-3.6207,-3.5953,-3.5699,-3.5669,-3.5654,-3.5609,-0.9212,-0.9892,-1.0642,-1.1695,-1.2878,-1.4316,-1.5101,-1.5463,-1.6026,-1.6186,-1.6039,-1.5892,-1.5825,-1.5825,-1.5825,-1.5758,-1.6171,-1.74,-1.8481,-1.9259,-2.0697,-2.2035,-2.2425,-2.2266,-2.2207,-2.2227,-2.2402,-2.251,-2.249,-2.2471,-2.2539,-2.249,-2.25,-2.2588,-2.2773,-2.2793,-2.2939,-2.3047,-2.3115,-2.3125,-2.3135,-2.3135,-2.3144,-2.3144,-2.3144,-2.3144,-2.3144,-2.3144,-2.3144,-2.3144,-2.3144,-2.3144,-2.3144,-2.3222,-2.3637,-2.4628,-2.5378,-2.6461,-2.7752,-2.8688,-2.9143,-2.9727,-2.9779,-2.9779,-2.9779,-2.9894,-3.0216,-3.1193,-3.1756,-3.3031,-3.4138,-3.4986,-3.5359,-3.5489,-3.5489,-3.5489,-3.5489,-3.5489,-3.5489,-3.5489,-3.5489,-3.5489,-3.5489,-3.5489,-3.5489,-3.5489,-3.5489,-3.5489,-3.5489,-3.5489,-3.5489,-3.5489,-3.5489,-3.5489,-3.5489,-3.5489,-3.5489,-3.5489,-3.5489,-3.5489,-3.5489,-3.5489,-3.5489,-3.5579,-3.5504,-3.5489,-3.5549,-3.5744,-3.5579,-3.5489,-3.5549,-3.5579,-3.5534,-3.5504,-3.5489,-0.8821,-0.8814,-0.9941,-1.0447,-1.1012,-1.3239,-1.4319,-1.4514,-1.5667,-1.6046,-1.5852,-1.5825,-1.5825,-1.5805,-1.5725,-1.5578,-1.5409,-1.6628,-1.7551,-1.827,-1.9683,-2.0857,-2.1358,-2.1695,-2.1748,-2.1738,-2.1611,-2.1728,-2.1982,-2.1992,-2.1924,-2.1992,-2.1924,-2.2021,-2.2324,-2.2383,-2.2637,-2.2764,-2.2881,-2.2823,-2.2998,-2.3096,-2.3144,-2.3144,-2.3144,-2.3144,-2.3144,-2.3144,-2.3144,-2.3144,-2.3144,-2.3144,-2.3144,-2.3144,-2.3551,-2.4296,-2.4617,-2.5942,-2.7186,-2.8096,-2.8688,-2.9702,-2.9779,-2.9779,-2.9779,-2.9921,-3.0432,-3.1888,-3.2593,-3.3171,-3.4476,-3.5294,-3.5489,-3.5489,-3.5489,-3.5489,-3.5489,-3.5489,-3.5489,-3.5489,-3.5489,-3.5489,-3.5489,-3.5489,-3.5489,-3.5489,-3.5489,-3.5489,-3.5489,-3.5489,-3.5489,-3.5489,-3.5489,-3.5489,-3.5489,-3.5489,-3.5489,-3.5489,-3.5489,-3.5489,-3.5489,-3.5489,-3.5489,-3.5489,-3.5489,-3.5489,-3.5489,-3.5489,-3.5489,-3.5489,-3.5489,-3.5489,-3.5489,-3.5489,-3.5489,-0.8726,-0.8696,-0.8772,-0.9342,-1.0412,-1.1903,-1.3073,-1.4051,-1.5319,-1.5872,-1.5825,-1.5812,-1.5798,-1.5725,-1.5524,-1.5284,-1.5438,-1.6042,-1.6843,-1.7502,-1.9041,-2.0069,-2.0541,-2.1029,-2.1247,-2.1269,-2.0967,-2.1221,-2.1572,-2.1748,-2.1816,-2.1787,-2.1738,-2.1904,-2.1934,-2.1953,-2.1982,-2.2051,-2.208,-2.2256,-2.2607,-2.2939,-2.3076,-2.3135,-2.3144,-2.3144,-2.3144,-2.3144,-2.3144,-2.3144,-2.3144,-2.3144,-2.3144,-2.3144,-2.3135,-2.3551,-2.4211,-2.5378,-2.6625,-2.7614,-2.8609,-2.9534,-2.9779,-2.9779,-2.9779,-2.9856,-3.0292,-3.118,-3.2092,-3.3171,-3.4394,-3.5067,-3.5359,-3.5489,-3.5489,-3.5489,-3.5489,-3.5489,-3.5489,-3.5489,-3.5489,-3.5489,-3.5489,-3.5489,-3.5489,-3.5489,-3.5489,-3.5489,-3.5489,-3.5489,-3.5489,-3.5489,-3.5489,-3.5489,-3.5489,-3.5489,-3.5489,-3.5489,-3.5489,-3.5489,-3.5489,-3.5489,-3.5489,-3.5489,-3.5489,-3.5489,-3.5489,-3.5489,-3.5489,-3.5489,-3.5489,-3.5489,-3.5489,-3.5489,-3.5489,-0.8459,-0.8455,-0.8391,-0.8575,-0.923,-1.1095,-1.233,-1.3125,-1.4949,-1.5825,-1.5785,-1.5645,-1.5504,-1.5351,-1.5184,-1.499,-1.4933,-1.5304,-1.6122,-1.693,-1.8162,-1.9235,-2.0316,-2.07,-2.0859,-2.084,-2.0703,-2.0732,-2.1094,-2.1172,-2.1143,-2.1182,-2.1182,-2.1269,-2.1484,-2.1514,-2.168,-2.1826,-2.1934,-2.2119,-2.2451,-2.2685,-2.2891,-2.3028,-2.3125,-2.3125,-2.3144,-2.3144,-2.3144,-2.3144,-2.3144,-2.3144,-2.3144,-2.3144,-2.3135,-2.3135,-2.3551,-2.4638,-2.6307,-2.7441,-2.853,-2.9456,-2.9779,-2.9779,-2.9779,-2.9856,-3.0495,-3.1888,-3.2321,-3.3255,-3.4394,-3.5198,-3.5359,-3.5489,-3.5489,-3.5489,-3.5489,-3.5489,-3.5489,-3.5489,-3.5489,-3.5489,-3.5489,-3.5489,-3.5489,-3.5489,-3.5489,-3.5489,-3.5489,-3.5489,-3.5489,-3.5489,-3.5489,-3.5489,-3.5489,-3.5489,-3.5489,-3.5489,-3.5489,-3.5489,-3.5489,-3.5489,-3.5489,-3.5489,-3.5489,-3.5489,-3.5489,-3.5489,-3.5489,-3.5489,-3.5489,-3.5489,-3.5489,-3.5489,-3.5489,-0.8211,-0.8211,-0.8214,-0.8143,-0.8237,-1.0774,-1.1945,-1.2237,-1.4663,-1.5785,-1.5658,-1.5418,-1.513,-1.491,-1.4836,-1.4696,-1.4422,-1.4409,-1.5445,-1.6433,-1.7415,-1.8514,-1.9692,-2.0362,-2.0596,-2.0576,-2.0596,-2.0625,-2.0605,-2.0625,-2.0664,-2.0576,-2.0703,-2.0791,-2.0977,-2.1084,-2.1191,-2.1416,-2.1602,-2.1826,-2.209,-2.2285,-2.2588,-2.2832,-2.2988,-2.3027,-2.3125,-2.3144,-2.3144,-2.3144,-2.3144,-2.3144,-2.3144,-2.3144,-2.3144,-2.3222,-2.3551,-2.4382,-2.5797,-2.6953,-2.8199,-2.904,-2.9702,-2.9779,-2.9779,-2.9856,-3.0558,-3.2307,-3.2522,-3.3616,-3.492,-3.5489,-3.5489,-3.5489,-3.5489,-3.5489,-3.5489,-3.5489,-3.5489,-3.5489,-3.5489,-3.5489,-3.5489,-3.5489,-3.5489,-3.5489,-3.5489,-3.5489,-3.5489,-3.5489,-3.5489,-3.5489,-3.5489,-3.5489,-3.5489,-3.5489,-3.5489,-3.5489,-3.5489,-3.5489,-3.5489,-3.5489,-3.5489,-3.5489,-3.5489,-3.5489,-3.5489,-3.5489,-3.5489,-3.5489,-3.5489,-3.5489,-3.5489,-3.5489,-3.5459,-0.8052,-0.8055,-0.8058,-0.8055,-0.8233,-1.0779,-1.1945,-1.2206,-1.4644,-1.5638,-1.5357,-1.5117,-1.4823,-1.4609,-1.4529,-1.4402,-1.4135,-1.4122,-1.5006,-1.6049,-1.6846,-1.8141,-1.9353,-2.0245,-2.0576,-2.0576,-2.0576,-2.0576,-2.0576,-2.0576,-2.0576,-2.0576,-2.0576,-2.0586,-2.0654,-2.0742,-2.0742,-2.0928,-2.1113,-2.1309,-2.1523,-2.1768,-2.2055,-2.2376,-2.2502,-2.2725,-2.3008,-2.2853,-2.2862,-2.2862,-2.3047,-2.3144,-2.3144,-2.3144,-2.3144,-2.3222,-2.3714,-2.4467,-2.5294,-2.6378,-2.729,-2.8199,-2.9106,-2.9779,-2.9779,-2.9856,-3.0771,-3.2307,-3.2735,-3.3685,-3.4839,-3.5489,-3.5489,-3.5489,-3.5489,-3.5489,-3.5489,-3.5489,-3.5489,-3.5489,-3.5489,-3.5489,-3.5489,-3.5489,-3.5489,-3.5489,-3.5489,-3.5489,-3.5489,-3.5489,-3.5489,-3.5489,-3.5489,-3.5489,-3.5489,-3.5489,-3.5489,-3.5489,-3.5489,-3.5489,-3.5489,-3.5489,-3.5489,-3.5489,-3.5489,-3.5489,-3.5489,-3.5489,-3.5489,-3.5489,-3.5554,-3.5668,-3.5604,-3.5489,-3.5429,-0.8038,-0.8038,-0.8825,-0.9217,-0.9316,-1.1165,-1.225,-1.3087,-1.479,-1.5291,-1.4863,-1.4723,-1.4529,-1.4322,-1.4249,-1.4202,-1.4095,-1.4088,-1.5144,-1.6281,-1.7253,-1.8381,-1.9511,-2.0245,-2.0576,-2.0576,-2.0576,-2.0576,-2.0576,-2.0576,-2.0576,-2.0576,-2.0576,-2.0576,-2.0576,-2.0576,-2.0576,-2.0596,-2.0752,-2.0928,-2.125,-2.1286,-2.1342,-2.109,-2.136,-2.103,-2.088,-2.1557,-2.1808,-2.2199,-2.2746,-2.3028,-2.3144,-2.3144,-2.3144,-2.3144,-2.3637,-2.4049,-2.5041,-2.6367,-2.7947,-2.887,-2.9534,-2.9779,-2.9856,-3.0266,-3.1193,-3.2321,-3.3101,-3.4109,-3.5133,-3.5489,-3.5489,-3.5489,-3.5489,-3.5489,-3.5489,-3.5489,-3.5489,-3.5489,-3.5489,-3.5489,-3.5489,-3.5489,-3.5489,-3.5489,-3.5489,-3.5489,-3.5489,-3.5489,-3.5489,-3.5489,-3.5489,-3.5489,-3.5489,-3.5489,-3.5489,-3.5489,-3.5489,-3.5604,-3.5668,-3.5489,-3.5489,-3.5489,-3.5554,-3.5554,-3.5554,-3.5489,-3.5489,-3.5489,-3.5718,-3.5991,-3.5831,-3.5529,-3.5289,-0.8038,-0.8137,-0.9015,-0.9604,-1.0186,-1.1676,-1.2707,-1.3496,-1.4733,-1.4997,-1.4516,-1.4436,-1.4289,-1.4128,-1.4088,-1.4095,-1.4088,-1.425,-1.5311,-1.6281,-1.7253,-1.8381,-1.9599,-2.0401,-2.0576,-2.0576,-2.0576,-2.0576,-2.0576,-2.0576,-2.0576,-2.0576,-2.0576,-2.0576,-2.0576,-2.0576,-2.0576,-2.0576,-2.0605,-2.0684,-2.1016,-2.0956,-2.1079,-2.066,-2.0876,-2.092,-2.0725,-2.129,-2.1668,-2.2023,-2.2466,-2.2921,-2.3086,-2.3144,-2.3144,-2.3144,-2.3222,-2.3551,-2.4628,-2.6614,-2.8518,-2.9443,-2.9702,-2.9779,-2.9985,-3.0696,-3.1536,-3.2464,-3.3463,-3.4394,-3.5359,-3.5489,-3.5489,-3.5489,-3.5489,-3.5489,-3.5489,-3.5489,-3.5489,-3.5489,-3.5489,-3.5489,-3.5554,-3.5554,-3.5619,-3.5554,-3.5489,-3.5489,-3.5489,-3.5489,-3.5489,-3.5489,-3.5489,-3.5489,-3.5489,-3.5489,-3.5489,-3.5668,-3.5718,-3.5943,-3.5943,-3.5782,-3.5782,-3.5991,-3.5943,-3.5782,-3.5718,-3.5767,-3.5653,-3.5504,-3.5688,-3.5867,-3.5645,-3.5275,-3.4971,-0.8038,-0.8038,-0.8131,-0.8913,-1.0249,-1.2368,-1.3298,-1.3564,-1.4482,-1.4763,-1.4456,-1.4242,-1.4128,-1.4088,-1.4088,-1.4088,-1.4088,-1.4173,-1.4901,-1.6116,-1.7009,-1.806,-1.9195,-2.0089,-2.0576,-2.0576,-2.0576,-2.0576,-2.0576,-2.0576,-2.0576,-2.0576,-2.0576,-2.0576,-2.0576,-2.0576,-2.0576,-2.0576,-2.0576,-2.0615,-2.0654,-2.0674,-2.075,-2.0652,-2.0727,-2.0707,-2.0568,-2.1015,-2.1485,-2.176,-2.2246,-2.2678,-2.2998,-2.3105,-2.3144,-2.3144,-2.3144,-2.3222,-2.356,-2.6438,-2.8347,-2.9534,-2.9779,-2.9856,-3.0075,-3.0771,-3.1756,-3.289,-3.3671,-3.4558,-3.5133,-3.5489,-3.5489,-3.5489,-3.5489,-3.5489,-3.5489,-3.5489,-3.5489,-3.5782,-3.5668,-3.5569,-3.5554,-3.5619,-3.5733,-3.5668,-3.5554,-3.5489,-3.5554,-3.5504,-3.5504,-3.5489,-3.5489,-3.5489,-3.5489,-3.5489,-3.5554,-3.5668,-3.5782,-3.5879,-3.6165,-3.6305,-3.6352,-3.6492,-3.6212,-3.5894,-3.5991,-3.6087,-3.592,-3.5691,-3.5394,-3.5431,-3.5247,-3.4941,-3.4516,-0.8038,-0.8028,-0.8897,-0.99,-1.1039,-1.1821,-1.2836,-1.3983,-1.4335,-1.4322,-1.4235,-1.4115,-1.4088,-1.4088,-1.4088,-1.4088,-1.4088,-1.4166,-1.4817,-1.6601,-1.7172,-1.855,-1.9678,-2.0245,-2.0576,-2.0576,-2.0576,-2.0576,-2.0576,-2.0576,-2.0576,-2.0576,-2.0576,-2.0576,-2.0576,-2.0576,-2.0576,-2.0576,-2.0576,-2.0576,-2.0576,-2.0576,-2.04,-1.994,-2.0065,-2.0016,-1.976,-2.0421,-2.0996,-2.1315,-2.1815,-2.2568,-2.2812,-2.293,-2.3144,-2.3135,-2.3135,-2.3887,-2.5136,-2.7279,-2.8518,-2.9365,-2.9779,-3.0062,-3.0696,-3.1623,-3.2536,-3.338,-3.4259,-3.5001,-3.5439,-3.5504,-3.5489,-3.5489,-3.5489,-3.5489,-3.5489,-3.5489,-3.5619,-3.6117,-3.6228,-3.66,-3.6707,-3.6554,-3.6554,-3.6368,-3.6258,-3.5846,-3.5797,-3.5634,-3.5519,-3.5504,-3.5489,-3.5489,-3.5554,-3.5846,-3.591,-3.5958,-3.5846,-3.5604,-3.5958,-3.6829,-3.6675,-3.6718,-3.6338,-3.607,-3.623,-3.6326,-3.6084,-3.5841,-3.5415,-3.4956,-3.4712,-3.4256,-3.3683,-0.8007,-0.8045,-0.8813,-0.9914,-1.1198,-1.1739,-1.2884,-1.4203,-1.4168,-1.4088,-1.4088,-1.4088,-1.4088,-1.4088,-1.4088,-1.4088,-1.4088,-1.4166,-1.4817,-1.6683,-1.718,-1.831,-1.952,-2.0489,-2.0566,-2.0576,-2.0576,-2.0576,-2.0576,-2.0576,-2.0576,-2.0576,-2.0576,-2.0576,-2.0576,-2.0576,-2.0576,-2.0576,-2.0576,-2.0576,-2.0576,-2.0489,-2.0323,-1.9929,-1.9743,-1.9668,-1.9317,-1.957,-2.031,-2.0763,-2.1398,-2.2363,-2.2559,-2.2861,-2.3105,-2.3135,-2.3714,-2.4638,-2.6141,-2.7441,-2.8597,-2.9611,-2.9779,-3.0062,-3.0908,-3.1756,-3.2536,-3.3533,-3.4773,-3.5279,-3.5504,-3.5489,-3.5489,-3.5489,-3.5489,-3.5489,-3.5554,-3.5554,-3.6006,-3.6508,-3.7084,-3.7499,-3.7748,-3.7632,-3.7472,-3.7235,-3.6951,-3.6569,-3.618,-3.6064,-3.6004,-3.5961,-3.6073,-3.623,-3.643,-3.6616,-3.6554,-3.6383,-3.6166,-3.5982,-3.704,-3.8003,-3.7472,-3.6975,-3.6927,-3.6778,-3.6619,-3.6486,-3.6031,-3.5506,-3.5018,-3.4565,-3.4202,-3.3863,-3.3465,-0.7943,-0.7814,-0.7797,-0.9019,-1.0821,-1.222,-1.3374,-1.4102,-1.4095,-1.4088,-1.4088,-1.4088,-1.4088,-1.4088,-1.4088,-1.4088,-1.425,-1.425,-1.5144,-1.6108,-1.7253,-1.8301,-1.9353,-2.0157,-2.0489,-2.0576,-2.0576,-2.0576,-2.0576,-2.0576,-2.0576,-2.0576,-2.0576,-2.0576,-2.0576,-2.0576,-2.0576,-2.0576,-2.0576,-2.0576,-2.0576,-2.0566,-2.0489,-2.0362,-2.0332,-2.0282,-2.0222,-2.0437,-2.069,-2.105,-2.1621,-2.2041,-2.2451,-2.2891,-2.3037,-2.3474,-2.4296,-2.5305,-2.6637,-2.7775,-2.8609,-2.9611,-2.9921,-2.9934,-3.0558,-3.1901,-3.2749,-3.3685,-3.4706,-3.5133,-3.5489,-3.5489,-3.5489,-3.5489,-3.5489,-3.5554,-3.5619,-3.5894,-3.6384,-3.7008,-3.7674,-3.8133,-3.8318,-3.8262,-3.8261,-3.801,-3.7762,-3.756,-3.7208,-3.6894,-3.6878,-3.6883,-3.701,-3.7218,-3.7249,-3.6817,-3.6609,-3.6185,-3.6927,-3.7141,-3.8199,-3.8395,-3.7559,-3.7132,-3.7574,-3.743,-3.6604,-3.6045,-3.569,-3.5241,-3.5005,-3.459,-3.434,-3.4216,-3.3896,-0.7794,-0.7655,-0.7543,-0.8806,-1.0934,-1.2886,-1.39,-1.4088,-1.4088,-1.4088,-1.4088,-1.4088,-1.4088,-1.4088,-1.4088,-1.4088,-1.4412,-1.4977,-1.5869,-1.6846,-1.7819,-1.9036,-1.9844,-2.0401,-2.0576,-2.0576,-2.0576,-2.0576,-2.0576,-2.0576,-2.0576,-2.0576,-2.0576,-2.0576,-2.0576,-2.0576,-2.0576,-2.0576,-2.0576,-2.0576,-2.0576,-2.0576,-2.0576,-2.0576,-2.0576,-2.0576,-2.0576,-2.0576,-2.0703,-2.082,-2.1211,-2.1621,-2.2051,-2.2461,-2.2916,-2.4265,-2.4872,-2.5535,-2.7279,-2.7936,-2.8664,-2.9806,-3.0343,-3.1267,-3.1769,-3.2407,-3.3255,-3.4041,-3.4773,-3.5279,-3.5489,-3.5489,-3.5619,-3.5668,-3.5733,-3.5782,-3.5958,-3.6523,-3.7008,-3.7831,-3.8486,-3.8826,-3.8966,-3.9023,-3.898,-3.875,-3.8517,-3.8231,-3.7945,-3.7623,-3.7408,-3.7415,-3.7248,-3.7245,-3.6648,-3.619,-3.6127,-3.6159,-3.695,-3.7334,-3.7161,-3.7129,-3.7015,-3.7124,-3.7253,-3.6754,-3.5964,-3.5619,-3.5678,-3.5593,-3.5343,-3.4873,-3.4478,-3.4408,-3.4339,-0.7645,-0.7595,-0.7953,-0.9387,-1.1499,-1.3291,-1.4088,-1.4088,-1.4088,-1.4088,-1.4088,-1.4088,-1.4088,-1.4088,-1.4088,-1.4088,-1.4173,-1.5137,-1.6191,-1.7253,-1.855,-1.9511,-2.0245,-2.0576,-2.0576,-2.0576,-2.0576,-2.0576,-2.0576,-2.0576,-2.0576,-2.0576,-2.0576,-2.0576,-2.0576,-2.0576,-2.0576,-2.0576,-2.0576,-2.0576,-2.0576,-2.0576,-2.0576,-2.0576,-2.0576,-2.0576,-2.0576,-2.0576,-2.0576,-2.0635,-2.0996,-2.1328,-2.1748,-2.2158,-2.2781,-2.4033,-2.521,-2.5964,-2.7197,-2.8359,-2.9238,-3.0165,-3.0908,-3.1829,-3.2607,-3.3325,-3.3822,-3.4461,-3.5052,-3.5489,-3.5489,-3.5554,-3.5718,-3.5958,-3.6022,-3.6133,-3.6646,-3.7144,-3.7905,-3.8707,-3.9196,-3.9564,-3.9733,-3.9732,-3.9428,-3.8639,-3.827,-3.8119,-3.7953,-3.7719,-3.7633,-3.756,-3.7269,-3.7011,-3.6373,-3.6095,-3.6375,-3.6659,-3.7131,-3.7215,-3.6486,-3.6542,-3.7085,-3.7003,-3.6824,-3.6252,-3.5679,-3.5869,-3.59,-3.5774,-3.5639,-3.5308,-3.5013,-3.4949,-3.4789,-0.7492,-0.7535,-0.8689,-1.0348,-1.2351,-1.3561,-1.4088,-1.4088,-1.4088,-1.4088,-1.4088,-1.4088,-1.4088,-1.4088,-1.4088,-1.425,-1.4741,-1.5628,-1.6683,-1.7504,-1.8877,-1.9835,-2.0323,-2.0576,-2.0576,-2.0576,-2.0576,-2.0576,-2.0576,-2.0576,-2.0576,-2.0576,-2.0576,-2.0576,-2.0576,-2.0576,-2.0576,-2.0576,-2.0576,-2.0576,-2.0576,-2.0576,-2.0576,-2.0576,-2.0576,-2.0576,-2.0576,-2.0576,-2.0576,-2.0713,-2.0879,-2.1143,-2.1621,-2.208,-2.2732,-2.3982,-2.5462,-2.6637,-2.7626,-2.8791,-2.9935,-3.0758,-3.1328,-3.2321,-3.3185,-3.3671,-3.4095,-3.4691,-3.5279,-3.5489,-3.5489,-3.5767,-3.6054,-3.6337,-3.6585,-3.6829,-3.7235,-3.7847,-3.858,-3.9212,-3.936,-3.9597,-3.9309,-3.9191,-3.8633,-3.8075,-3.7787,-3.7753,-3.7492,-3.7385,-3.7469,-3.7386,-3.6944,-3.662,-3.6683,-3.6534,-3.7011,-3.7326,-3.7295,-3.7112,-3.6421,-3.6748,-3.7347,-3.6891,-3.6291,-3.6016,-3.5689,-3.5825,-3.5876,-3.574,-3.5639,-3.5639,-3.5515,-3.5362,-3.527,-0.7336,-0.7371,-0.938,-1.1079,-1.2419,-1.3561,-1.4088,-1.4088,-1.4088,-1.4088,-1.4088,-1.4088,-1.4088,-1.4088,-1.425,-1.4489,-1.5379,-1.6445,-1.7504,-1.855,-1.9599,-2.0079,-2.0566,-2.0576,-2.0576,-2.0576,-2.0576,-2.0576,-2.0576,-2.0576,-2.0576,-2.0576,-2.0576,-2.0576,-2.0576,-2.0576,-2.0576,-2.0576,-2.0576,-2.0576,-2.0576,-2.0576,-2.0576,-2.0576,-2.0576,-2.0576,-2.0576,-2.0576,-2.0576,-2.0625,-2.0654,-2.1064,-2.1709,-2.2227,-2.3581,-2.5282,-2.6036,-2.7139,-2.8291,-2.9275,-3.019,-3.1193,-3.1901,-3.289,-3.3533,-3.3876,-3.4312,-3.4905,-3.5279,-3.5424,-3.5604,-3.5928,-3.6384,-3.6737,-3.7144,-3.7456,-3.7806,-3.8596,-3.9332,-3.9394,-3.9462,-3.9208,-3.8903,-3.8413,-3.7838,-3.7432,-3.7161,-3.6924,-3.6485,-3.6299,-3.6709,-3.6611,-3.6266,-3.6062,-3.6361,-3.6497,-3.6671,-3.6569,-3.6375,-3.6303,-3.6282,-3.64,-3.6518,-3.6146,-3.574,-3.5639,-3.5639,-3.5656,-3.5673,-3.5639,-3.5639,-3.5639,-3.5639,-3.5515,-3.5532,-0.7221,-0.7404,-0.9657,-1.1563,-1.3033,-1.3822,-1.4088,-1.4088,-1.4088,-1.4088,-1.4088,-1.4088,-1.4088,-1.425,-1.4573,-1.5054,-1.6026,-1.7415,-1.8149,-1.9125,-2.0001,-2.0411,-2.0576,-2.0576,-2.0576,-2.0576,-2.0576,-2.0576,-2.0576,-2.0576,-2.0576,-2.0644,-2.0644,-2.0644,-2.0644,-2.0644,-2.0576,-2.0576,-2.0576,-2.0576,-2.0576,-2.0576,-2.0576,-2.0576,-2.0576,-2.0576,-2.0576,-2.0576,-2.0576,-2.0576,-2.0596,-2.0898,-2.1465,-2.1943,-2.3296,-2.4826,-2.6057,-2.7221,-2.87,-2.9741,-3.0495,-3.1549,-3.2177,-3.3031,-3.4491,-3.4839,-3.4839,-3.5359,-3.5359,-3.5489,-3.5489,-3.5782,-3.6585,-3.71,-3.7515,-3.7921,-3.8596,-3.9385,-3.9462,-3.9211,-3.9039,-3.8633,-3.8227,-3.7618,-3.706,-3.6518,-3.6299,-3.6332,-3.5859,-3.5639,-3.592,-3.6043,-3.5797,-3.5645,-3.5876,-3.591,-3.591,-3.5723,-3.5639,-3.5774,-3.5943,-3.5791,-3.5656,-3.5639,-3.5639,-3.5639,-3.5639,-3.5639,-3.5639,-3.5639,-3.5639,-3.5639,-3.5639,-3.5639,-3.5639,-0.7316,-0.7837,-0.9744,-1.1912,-1.3913,-1.4088,-1.4088,-1.4088,-1.4088,-1.4088,-1.4088,-1.4088,-1.4166,-1.465,-1.522,-1.5703,-1.6593,-1.806,-1.8798,-1.952,-2.0157,-2.0489,-2.0576,-2.0576,-2.0576,-2.0576,-2.0576,-2.0576,-2.0576,-2.0644,-2.0644,-2.0712,-2.0712,-2.0634,-2.0712,-2.0644,-2.0576,-2.0576,-2.0576,-2.0576,-2.0576,-2.0576,-2.0576,-2.0576,-2.0576,-2.0576,-2.0576,-2.0576,-2.0576,-2.0576,-2.0596,-2.0889,-2.1351,-2.1957,-2.3207,-2.4658,-2.6172,-2.7415,-2.8682,-2.9793,-3.1106,-3.2249,-3.2607,-3.3478,-3.5001,-3.5439,-3.5439,-3.5604,-3.5604,-3.5604,-3.5604,-3.6022,-3.6829,-3.7616,-3.8092,-3.8469,-3.9315,-3.9902,-3.9429,-3.8988,-3.8497,-3.8058,-3.7516,-3.6891,-3.6366,-3.5825,-3.5639,-3.5639,-3.5639,-3.5639,-3.5763,-3.5847,-3.5695,-3.5639,-3.5639,-3.5639,-3.5639,-3.5639,-3.5639,-3.5639,-3.5639,-3.5639,-3.5639,-3.5639,-3.5639,-3.5639,-3.5639,-3.5639,-3.5639,-3.5639,-3.5639,-3.5639,-3.5639,-3.5639,-3.5639,-0.8181,-1.0005,-1.0438,-1.1997,-1.3913,-1.4088,-1.4088,-1.4088,-1.4088,-1.4088,-1.4088,-1.4173,-1.4496,-1.5379,-1.5538,-1.6347,-1.798,-1.8957,-1.9599,-2.0323,-2.0479,-2.0566,-2.0576,-2.0576,-2.0576,-2.0576,-2.0576,-2.0576,-2.0644,-2.0712,-2.1011,-2.1451,-2.0857,-2.1001,-2.1527,-2.1231,-2.0867,-2.0712,-2.0712,-2.0712,-2.0566,-2.0576,-2.0576,-2.0576,-2.0576,-2.0576,-2.0576,-2.0576,-2.0576,-2.0576,-2.0664,-2.0968,-2.1441,-2.2188,-2.3546,-2.5035,-2.6472,-2.8113,-2.9466,-3.0517,-3.1861,-3.3171,-3.3602,-3.4041,-3.5067,-3.5504,-3.5668,-3.6102,-3.6102,-3.5991,-3.618,-3.689,-3.769,-3.8414,-3.8995,-3.9265,-3.98,-3.9563,-3.9089,-3.8464,-3.7838,-3.7415,-3.6941,-3.6417,-3.5994,-3.5639,-3.5639,-3.5639,-3.5639,-3.5639,-3.5639,-3.5639,-3.5639,-3.5639,-3.5639,-3.5639,-3.5639,-3.5639,-3.5639,-3.5639,-3.5639,-3.5639,-3.5639,-3.5639,-3.5639,-3.5639,-3.5639,-3.5639,-3.5639,-3.5639,-3.5639,-3.5639,-3.5639,-3.5639,-3.5639]}]]